[[{"header":{"parameterUnit":"m.s-1","parameterCategory":1,"la1":30.6,"la2":29.2853,"lo1":-89.7004,"lo2":-87.6739,"dy":0.0162,"dx":0.0183,"nx":112,"ny":82,"refTime":"2024-08-23T00:00:00:Z","depth":0,"parameterNumber":2,"parameterNumberName":"U-component_of_WINDS"},"data":[0.0,0.0,0.0,0.0,0.0,0.0,0.0,0.0,0.0,0.0,0.0,0.0,0.0,0.0,0.0,0.0,0.0,0.0,0.0,0.0,0.0,0.0,0.0,0.0,0.0,0.0,0.0,0.0,0.0,0.0,0.0,0.0,0.0,0.0,0.0,0.0,0.0,0.0,0.0,0.0,0.0,0.0,0.0,0.0,0.0,0.0,0.0,0.0,0.0,0.0,0.0,0.0,0.0,0.0,0.0,0.0,0.0,0.0,0.0,0.0,0.0,0.0,0.0,0.0,0.0,0.0,0.0,0.0,0.0,0.0,0.0,0.0,0.0,0.0,0.0,0.0,0.0,0.0,0.0,0.0,0.0,0.0,0.0,0.0,0.0,0.0,0.0,0.0,0.0,0.0,0.5442,0.6172,0.6663,0.692,0.692,0.7816,0.8094,0.7459,0.0,0.0,0.0,0.0,0.0,0.0,0.0,0.0,0.0,0.0,0.0,0.0,0.0,0.0,0.0,0.0,0.0,0.0,0.0,0.0,0.0,0.0,0.0,0.0,0.0,0.0,0.0,0.0,0.0,0.0,0.0,0.0,0.0,0.0,0.0,0.0,0.0,0.0,0.0,0.0,0.0,0.0,0.0,0.0,0.0,0.0,0.0,0.0,0.0,0.0,0.0,0.0,0.0,0.0,0.0,0.0,0.0,0.0,0.0,0.0,0.0,0.0,0.0,0.0,0.0,0.0,0.0,0.0,0.0,0.0,0.0,0.0,0.0,0.0,0.0,0.0,0.0,0.0,0.0,0.0,0.0,0.0,0.0,0.0,0.0,0.0,0.0,0.0,0.0,0.0,0.0,0.0,0.0,0.0,0.0,0.0,0.0,0.0,0.0,0.0,0.0,0.0,0.0,0.0,0.5081,0.6325,0.6828,0.7065,0.7065,0.6923,0.7118,0.7847,0.0,0.0,0.0,0.0,0.0,0.0,0.0,0.0,0.0,0.0,0.0,0.0,0.0,0.0,0.0,0.0,0.0,0.0,0.0,0.0,0.0,0.0,0.0,0.0,0.0,0.0,0.0,0.0,0.0,0.0,0.0,0.0,0.0,0.0,0.0,0.0,0.0,0.0,0.0,0.0,0.0,0.0,0.0,0.0,0.0,0.0,0.0,0.0,0.0,0.0,0.0,0.0,0.0,0.0,0.0,0.0,0.0,0.0,0.0,0.0,0.0,0.0,0.0,0.0,0.0,0.0,0.0,0.0,0.0,0.0,0.0,0.0,0.0,0.0,0.0,0.0,0.0,0.0,0.0,0.0,0.0,0.0,0.0,0.0,0.0,0.0,0.0,0.0,0.0,0.0,0.0,0.0,0.0,0.0,0.0,0.0,0.0,0.0,0.0,0.0,0.0,0.0,0.0,0.5204,0.5549,0.6495,0.6922,0.7065,0.6991,0.6763,0.6954,0.7778,0.7257,0.0,0.0,0.0,0.0,0.0,0.0,0.0,0.0,0.0,0.0,0.0,0.0,0.0,0.0,0.0,0.0,0.0,0.0,0.0,0.0,0.0,0.0,0.0,0.0,0.0,0.0,0.0,0.0,0.0,0.0,0.0,0.0,0.0,0.0,0.0,0.0,0.0,0.0,0.0,0.0,0.0,0.0,0.0,0.0,0.0,0.0,0.0,0.0,0.0,0.0,0.0,0.0,0.0,0.0,0.0,0.0,0.0,0.0,0.0,0.0,0.0,0.0,0.0,0.0,0.0,0.0,0.0,0.0,0.0,0.0,0.0,0.0,0.0,0.0,0.0,0.0,0.0,0.0,0.0,0.0,0.0,0.0,0.0,0.0,0.0,0.0,0.0,0.0,0.0,0.0,0.0,0.0,0.0,0.0,0.0,0.0,0.0,0.0,0.0,0.0,0.0,0.0,0.5716,0.6125,0.6692,0.6943,0.7038,0.69,0.6692,0.6822,0.757,0.6354,0.0,0.0,0.0,0.0,0.0,0.0,0.0,0.0,0.0,0.0,0.0,0.0,0.0,0.0,0.0,0.0,0.0,0.0,0.0,0.0,0.0,0.0,0.0,0.0,0.0,0.0,0.0,0.0,0.0,0.0,0.0,0.0,0.0,0.0,0.0,0.0,0.0,0.0,0.0,0.0,0.0,0.0,0.0,0.0,0.0,0.0,0.0,0.0,0.0,0.0,0.0,0.0,0.0,0.0,0.0,0.0,0.0,0.0,0.0,0.0,0.0,0.0,0.0,0.0,0.0,0.0,0.0,0.0,0.0,0.0,0.0,0.0,0.0,0.0,0.0,0.0,0.0,0.0,0.0,0.0,0.0,0.0,0.0,0.0,0.0,0.0,0.0,0.0,0.0,0.0,0.0,0.0,0.0,0.0,0.0,0.0,0.0,0.0,0.0,0.0,0.0,0.0,0.5907,0.6403,0.6822,0.7004,0.7038,0.69,0.6367,0.6411,0.7278,0.5967,0.0,0.0,0.0,0.0,0.0,0.0,0.0,0.0,0.0,0.0,0.0,0.0,0.0,0.0,0.0,0.0,0.0,0.0,0.0,0.0,0.0,0.0,0.0,0.0,0.0,0.0,0.0,0.0,0.0,0.0,0.0,0.0,0.0,0.0,0.0,0.0,0.0,0.0,0.0,0.0,0.0,0.0,0.0,0.0,0.0,0.0,0.0,0.0,0.0,0.0,0.0,0.0,0.0,0.0,0.0,0.0,0.0,0.0,0.0,0.0,0.0,0.0,0.0,0.0,0.0,0.0,0.0,0.0,0.0,0.0,0.0,0.0,0.0,0.0,0.0,0.0,0.0,0.0,0.0,0.0,0.0,0.0,0.0,0.0,0.0,0.0,0.0,0.0,0.0,0.0,0.0,0.0,0.0,0.0,0.0,0.0,0.0,0.0,0.0,0.0,0.0,0.0,0.5924,0.6474,0.6839,0.7011,0.7001,0.6807,0.6491,0.6397,0.6604,0.0,0.0,0.0,0.0,0.0,0.0,0.0,0.0,0.0,0.0,0.0,0.0,0.0,0.0,0.0,0.0,0.0,0.0,0.0,0.0,0.0,0.0,0.0,0.0,0.0,0.0,0.0,0.0,0.0,0.0,0.0,0.0,0.0,0.0,0.0,0.0,0.0,0.0,0.0,0.0,0.0,0.0,0.0,0.0,0.0,0.0,0.0,0.0,0.0,0.0,0.0,0.0,0.0,0.0,0.0,0.0,0.0,0.0,0.0,0.0,0.0,0.0,0.0,0.0,0.0,0.0,0.0,0.0,0.0,0.0,0.0,0.0,0.0,0.0,0.0,0.0,0.0,0.0,0.0,0.0,0.0,0.0,0.0,0.0,0.0,0.0,0.0,0.0,0.0,0.0,0.0,0.0,0.0,0.0,0.0,0.0,0.0,0.0,0.0,0.0,0.0,0.0,0.5412,0.6023,0.6502,0.6906,0.7038,0.6977,0.6725,0.643,0.6204,0.6072,0.0,0.0,0.0,0.0,0.0,0.0,0.0,0.0,0.0,0.0,0.0,0.0,0.0,0.0,0.0,0.0,0.0,0.0,0.0,0.0,0.0,0.0,0.0,0.0,0.0,0.0,0.0,0.0,0.0,0.0,0.0,0.0,0.0,0.0,0.0,0.0,0.0,0.0,0.0,0.0,0.0,0.0,0.0,0.0,0.0,0.0,0.0,0.0,0.0,0.0,0.0,0.0,0.0,0.0,0.0,0.0,0.0,0.0,0.0,0.0,0.0,0.0,0.0,0.0,0.0,0.0,0.0,0.0,0.0,0.0,0.0,0.0,0.0,0.0,0.0,0.0,0.0,0.0,0.0,0.0,0.0,0.0,0.0,0.0,0.0,0.0,0.0,0.0,0.0,0.0,0.0,0.0,0.0,0.0,0.0,0.0,0.0,0.0,0.0,0.0,0.0,0.0,0.5667,0.6196,0.6647,0.7048,0.7095,0.6977,0.6725,0.6149,0.5785,0.0,0.0,0.0,0.0,0.0,0.0,0.0,0.0,0.0,0.0,0.0,0.0,0.0,0.0,0.0,0.0,0.0,0.0,0.0,0.0,0.0,0.0,0.0,0.0,0.0,0.0,0.0,0.0,0.0,0.0,0.0,0.0,0.0,0.0,0.0,0.0,0.0,0.0,0.0,0.0,0.0,0.0,0.0,0.0,0.0,0.0,0.0,0.0,0.0,0.0,0.0,0.0,0.0,0.0,0.0,0.0,0.0,0.0,0.0,0.0,0.0,0.0,0.0,0.0,0.0,0.0,0.0,0.0,0.0,0.0,0.0,0.0,0.0,0.0,0.0,0.0,0.0,0.0,0.0,0.0,0.0,0.0,0.0,0.0,0.0,0.0,0.0,0.0,0.0,0.0,0.0,0.0,0.0,0.0,0.0,0.0,0.0,0.0,0.0,0.0,0.0,0.0,0.0,0.5681,0.6288,0.6763,0.7058,0.7095,0.6977,0.6725,0.6346,0.5886,0.5207,0.0,0.0,0.0,0.0,0.0,0.0,0.0,0.0,0.0,0.0,0.0,0.0,0.0,0.0,0.0,0.0,0.0,0.0,0.0,0.0,0.0,0.0,0.0,0.0,0.0,0.0,0.0,0.0,0.0,0.0,0.0,0.0,0.0,0.0,0.0,0.0,0.0,0.0,0.0,0.0,0.0,0.0,0.0,0.0,0.0,0.0,0.0,0.0,0.0,0.0,0.0,0.0,0.0,0.0,0.0,0.0,0.0,0.0,0.0,0.0,0.0,0.0,0.0,0.0,0.0,0.0,0.0,0.0,0.0,0.0,0.0,0.0,0.0,0.0,0.0,0.0,0.0,0.0,0.0,0.0,0.0,0.0,0.0,0.0,0.0,0.0,0.0,0.0,0.0,0.0,0.0,0.0,0.0,0.0,0.0,0.0,0.0,0.0,0.0,0.0,0.0,0.0,0.5684,0.6329,0.6814,0.7065,0.7095,0.7001,0.681,0.6519,0.6023,0.5148,0.0,0.0,0.0,0.0,0.0,0.0,0.0,0.0,0.0,0.0,0.0,0.0,0.0,0.0,0.0,0.0,0.0,0.0,0.0,0.0,0.0,0.0,0.0,0.0,0.0,0.0,0.0,0.0,0.0,0.0,0.0,0.0,0.0,0.0,0.0,0.0,0.0,0.0,0.0,0.0,0.0,0.0,0.0,0.0,0.0,0.0,0.0,0.0,0.0,0.0,0.0,0.0,0.0,0.0,0.0,0.0,0.0,0.0,0.0,0.0,0.0,0.0,0.0,0.0,0.0,0.0,0.0,0.0,0.0,0.0,0.0,0.0,0.0,0.0,0.0,0.0,0.0,0.0,0.0,0.0,0.0,0.0,0.0,0.0,0.0,0.0,0.0,0.0,0.0,0.0,0.0,0.0,0.0,0.0,0.0,0.0,0.0,0.0,0.0,0.0,0.0,0.0,0.5688,0.6329,0.6814,0.7065,0.7095,0.7038,0.69,0.6647,0.6197,0.5463,0.0,0.0,0.0,0.0,0.0,0.0,0.0,0.0,0.0,0.0,0.0,0.0,0.0,0.0,0.0,0.0,0.0,0.0,0.0,0.0,0.0,0.0,0.0,0.0,0.0,0.0,0.0,0.0,0.0,0.0,0.0,0.0,0.0,0.0,0.0,0.0,0.0,0.0,0.0,0.0,0.0,0.0,0.0,0.0,0.0,0.0,0.0,0.0,0.0,0.0,0.0,0.0,0.0,0.0,0.0,0.0,0.0,0.0,0.0,0.0,0.3799,0.4271,0.0,0.0,0.0,0.0,0.0,0.0,0.0,0.0,0.0,0.0,0.0,0.0,0.0,0.0,0.0,0.0,0.0,0.0,0.0,0.0,0.0,0.0,0.0,0.0,0.0,0.0,0.0,0.0,0.0,0.0,0.0,0.0,0.0,0.0,0.0,0.0,0.0,0.0,0.0,0.0,0.5701,0.6329,0.6814,0.7065,0.7095,0.7038,0.69,0.6647,0.6245,0.5583,0.5006,0.0,0.0,0.0,0.0,0.0,0.0,0.0,0.0,0.0,0.0,0.0,0.0,0.0,0.0,0.0,0.0,0.0,0.0,0.0,0.0,0.0,0.0,0.0,0.0,0.0,0.0,0.0,0.0,0.0,0.0,0.0,0.0,0.0,0.0,0.0,0.0,0.0,0.0,0.0,0.0,0.0,0.0,0.0,0.0,0.0,0.0,0.0,0.0,0.0,0.0,0.0,0.0,0.0,0.0,0.0,0.0,0.0,0.0,0.0,0.2915,0.321,0.0,0.0,0.0,0.0,0.0,0.0,0.0,0.0,0.0,0.0,0.0,0.0,0.0,0.0,0.0,0.0,0.0,0.0,0.0,0.0,0.0,0.0,0.0,0.0,0.0,0.0,0.0,0.0,0.0,0.0,0.0,0.0,0.0,0.0,0.0,0.0,0.0,0.0,0.0,0.0,0.4951,0.5066,0.5167,0.5377,0.5395,0.564,0.6156,0.5966,0.5857,0.5945,0.5477,0.0,0.0,0.0,0.0,0.0,0.0,0.0,0.0,0.0,0.0,0.0,0.0,0.0,0.0,0.0,0.0,0.0,0.0,0.0,0.0,0.0,0.0,0.0,0.0,0.0,0.0,0.0,0.0,0.0,0.0,0.0,0.0,0.0,0.0,0.0,0.0,0.0,0.0,0.0,0.0,0.0,0.0,0.0,0.0,0.0,0.0,0.0,0.0,0.0,0.0,0.0,0.0,0.0,0.1755,0.1822,0.1808,0.1815,0.1921,0.2034,0.1764,0.1959,0.2465,0.2233,0.0,0.0,0.0,0.0,0.0,0.0,0.0,0.0,0.0,0.0,0.0,0.0,0.0,0.0,0.0,0.0,0.0,0.0,0.0,0.0,0.0,0.0,0.0939,0.1632,0.1333,0.1007,0.1388,0.0,0.0,0.0,0.0,0.0,0.0,0.0,0.0,0.0,0.0,0.0,0.392,0.3594,0.3379,0.3582,0.359,0.3987,0.5003,0.4903,0.5147,0.6005,0.5722,0.5346,0.0,0.0,0.0,0.0,0.0,0.0,0.0,0.0,0.0,0.0,0.0,0.0,0.0,0.0,0.0,0.0,0.0,0.0,0.0,0.0,0.0,0.0,0.0,0.0,0.0,0.0,0.0,0.0,0.0,0.0,0.0,0.0,0.165,0.1722,0.0,0.0,0.0,0.0,0.0,0.0,0.0,0.0,0.0,0.0,0.0,0.0,0.0,0.0273,0.0239,0.026,0.0271,0.0271,0.0297,0.0304,0.0294,0.0299,0.0302,0.0302,0.03,0.0,0.2499,0.2587,0.0,0.0,0.0,0.0,0.0,0.0,0.0,0.0,0.0,0.0,0.0,0.0,0.0,0.0,0.0,0.0,0.0,0.0,0.0,0.0,0.0,0.0,0.0138,0.0272,0.0227,0.0181,0.0223,0.1153,0.1926,0.1782,0.166,0.1523,0.0,0.0,0.0,0.0,0.0,0.0,0.3049,0.3244,0.3456,0.3569,0.3623,0.3641,0.3844,0.3723,0.4022,0.5033,0.4681,0.4792,0.5629,0.5162,0.0,0.0,0.0,0.0,0.0,0.0,0.0,0.0,0.0,0.0,0.0,0.0,0.0,0.0,0.0,0.0,0.0,0.0,0.0,0.0,0.0,0.0,0.0,0.0,0.0,0.0,0.0,0.0,0.0,0.1208,0.1111,0.0813,0.0788,0.0775,0.0,0.0,0.0,0.0,0.0,0.0,0.0,0.0,0.0,0.0,0.0,0.0,0.0,0.0,0.0,0.0,0.0,0.0,0.0,0.0,0.0,0.0,0.0,0.0406,0.1094,0.1135,0.1286,0.1447,0.0,0.0,0.0,0.0,0.1127,0.1449,0.1098,0.0939,0.088,0.0877,0.0,0.0,0.0,0.0,0.0,0.0,0.0,0.0322,0.0083,0.0,0.0,0.0,0.0,0.0,0.0,0.0459,0.085,0.078,0.0724,0.0763,0.1035,0.1222,0.0,0.0,0.0,0.1793,0.1955,0.1706,0.1534,0.1547,0.158,0.1838,0.2549,0.2545,0.2928,0.3976,0.3863,0.3874,0.4173,0.4402,0.4359,0.0,0.0,0.0,0.0,0.0,0.0,0.0,0.0,0.0,0.0,0.0,0.0,0.0,0.0,0.0,0.0,0.0,0.0,0.0,0.0,0.0,0.0,0.0,0.0,0.0,0.0,0.0,0.0,0.0611,0.0516,0.0065,0.0,0.0,0.0,0.0,0.0,0.0,0.0,0.0,-0.1122,-0.1168,-0.0991,-0.0564,-0.0931,-0.0967,-0.0631,-0.1016,-0.1244,-0.1249,-0.0819,-0.0657,-0.0602,-0.0219,0.0,0.0,0.0,0.0,0.0,0.0,0.0333,0.0773,0.0219,0.0683,0.1519,0.0393,0.0351,0.0748,0.019,0.0,0.0,0.0,0.0,0.0,0.0,0.0,0.0,0.0,0.0,0.0,0.0,0.0,0.0,0.0,0.0,0.0,0.0,0.0,0.0,0.0,0.0,0.0128,0.0593,0.0757,0.0,0.1569,0.117,0.0868,0.095,0.0423,0.0,0.0,0.0,0.0374,0.1248,0.1321,0.1833,0.2929,0.2954,0.2966,0.3021,0.3573,0.3702,0.336,0.0,0.0,0.0,0.0,0.0,0.0,0.0,0.0,0.0,0.0,0.0,0.0,0.0,0.0,0.0,0.0,0.0,0.0,0.0,0.0,0.0,0.0,0.0,0.0,0.0,0.0,0.0,0.0,0.0,0.0,0.0,0.0,0.0,0.0,0.0,-0.1986,-0.208,-0.2718,-0.4188,-0.4286,-0.36,-0.2159,-0.3486,-0.3679,-0.239,-0.3755,-0.4545,-0.4619,-0.3131,-0.2396,-0.2339,-0.0703,0.0,0.0,0.0,0.0,0.0,0.0,0.0,0.0051,0.0,0.005,0.01,0.005,0.0,0.0051,0.0,0.0,0.0,0.0,0.0,0.0,0.0,0.0,0.0,0.0,0.0,0.0,0.0,0.0,0.0,0.0,0.0,0.0,0.0,0.0,0.0,0.0,0.0,0.0,0.0043,0.0,0.0086,0.0086,0.0088,0.0045,0.0047,0.0048,0.0,0.0,0.0,0.0048,0.0093,0.0092,0.0595,0.179,0.1753,0.2206,0.3318,0.3118,0.2891,0.2734,0.3224,0.0,0.0,0.0,0.0,0.0,0.0,0.0,0.0,0.0,0.0,0.0,0.0,0.0,0.0,0.0,0.0,0.0,0.0,0.0,0.0,0.0,0.0,0.0,0.0,0.0,0.0,0.0,0.0,-0.1197,-0.1367,0.0,-0.2615,-0.2809,-0.3105,-0.3655,-0.3773,-0.4033,-0.4601,-0.4688,-0.4514,-0.3958,-0.445,-0.4543,-0.4057,-0.4539,-0.4854,-0.4882,-0.4328,-0.4048,-0.4048,-0.3403,-0.3169,-0.3169,-0.3169,-0.3148,-0.3169,-0.317,-0.192,0.0,0.0,0.0,0.0,0.0,0.0,0.0,0.0,0.0,0.0,0.0,0.0,0.0,0.0,0.0,0.0,0.0,0.0,0.0,0.0,0.0,0.0,0.0,0.0,0.0,0.0,0.0,0.0,0.0,0.0,0.0,0.0,0.0,0.0,0.0,0.0,0.0,0.0,0.0,0.0,0.0,0.0,0.0,0.0,0.0,0.0183,0.0629,0.0616,0.0772,0.1208,0.1746,0.1968,0.1812,0.2555,0.294,0.0,0.0,0.0,0.0,0.0,0.0,0.0,0.0,0.0,0.0,0.0,0.0,0.0,0.0,0.0,0.0,0.0,0.0,0.0,0.0,0.0,0.0,0.0,0.0,0.0,-0.0704,-0.1235,-0.2569,-0.2862,-0.3328,-0.4217,-0.4458,-0.4764,-0.5262,-0.5426,-0.5759,-0.6243,-0.6381,-0.6171,-0.5652,-0.6118,-0.6228,-0.5732,-0.6264,-0.6516,-0.6549,-0.6013,-0.5716,-0.5716,-0.5182,-0.4887,-0.4887,-0.4887,-0.4871,-0.4906,-0.4906,-0.3623,-0.1597,-0.1048,-0.1158,-0.1543,-0.0386,-0.0331,-0.0772,-0.0219,0.0,0.0,0.0,0.0,0.0,0.0,0.0,0.0,0.0,0.0,0.0,0.0,0.0,0.0,0.0,0.0,0.0,0.0,0.0,0.0,0.0,0.0,0.0,0.0,0.0,0.0,0.0,0.0,0.0,0.0,0.0,0.0,0.0,0.0,0.0,0.0,0.0,0.0,0.0,0.0,0.0,0.0,0.0692,0.0989,0.088,0.1687,0.2288,0.2669,0.0,0.0,0.0,0.0,0.0,0.0,0.0,0.0,0.0,0.0,0.0,0.0,0.0,0.0,0.0,0.0,0.0,0.0,0.0,0.0,0.0,0.0,0.0,-0.209,-0.2208,-0.2753,-0.4098,-0.4432,-0.4581,-0.4634,-0.4763,-0.5433,-0.6861,-0.7091,-0.7844,-0.932,-0.9391,-0.8748,-0.7224,-0.8635,-0.8821,-0.7519,-0.8907,-0.97,-0.9775,-0.823,-0.7492,-0.7431,-0.5782,-0.5046,-0.5042,-0.5042,-0.5059,-0.5047,-0.5047,-0.5062,-0.4872,-0.3229,-0.3521,-0.4516,-0.1352,-0.1176,-0.2345,-0.0694,-0.0171,-0.0168,-0.0165,-0.011,-0.0055,-0.0054,-0.0053,-0.0053,-0.0053,-0.0053,-0.0053,-0.0053,-0.0053,0.0,0.0,0.0,0.0,0.0,0.0,0.0,0.0,0.0,0.0,0.0,0.0,0.0,0.0,0.0,0.0,0.0,0.0,0.0,0.0,0.0,0.0,0.0,0.0,0.0,0.0,0.0,0.0,0.0,0.0,0.0,0.0,0.0586,0.118,0.1786,0.0,0.0,0.0,0.0,0.0,0.0,0.0,0.0,0.0,0.0,0.0,0.0,0.0,0.0,0.0,0.0,0.0,0.0,0.0,0.0,0.0,-0.2998,-0.3645,-0.358,-0.3759,-0.4354,-0.5715,-0.6071,-0.6621,-0.7612,-0.7958,-0.8286,-0.8673,-0.881,-0.9085,-0.9544,-0.9646,-0.9566,-0.9242,-0.9619,-0.9753,-0.9524,-0.9906,-1.0117,-1.0154,-0.9708,-0.9516,-0.9516,-0.901,-0.8768,-0.8611,-0.8611,-0.8538,-0.8476,-0.8476,-0.8455,-0.8162,-0.5322,-0.4516,-0.4808,-0.3872,-0.3872,-0.4162,-0.3736,-0.3545,-0.353,-0.3572,-0.274,-0.181,-0.1802,-0.1727,-0.16,-0.16,-0.16,-0.16,-0.16,-0.0822,0.0,0.0,0.0,0.0,0.0,0.0,0.0,0.0,0.0,0.0,0.0,0.0,0.0,0.0,0.0,0.0,0.0,0.0,0.0,0.0,0.0,0.0,0.0,0.0,0.0,0.0,0.0,0.0,0.0,0.0,0.0,0.0,0.0683,0.108,0.0,0.0,0.0,0.0,0.0,0.0,0.0,0.0,0.0,0.0,0.0,0.0,0.0,0.0,0.0,0.0,0.0,0.0,0.0,0.0,0.0,0.0,-0.4697,-0.5518,-0.6111,-0.5772,-0.5982,-0.7353,-0.7762,-0.826,-0.901,-0.9337,-0.95,-0.9561,-0.9707,-0.9822,-0.9886,-0.9968,-1.0053,-1.0144,-1.0144,-1.0188,-1.028,-1.028,-1.028,-1.028,-1.028,-1.028,-1.028,-1.028,-1.0232,-1.0144,-1.0144,-1.0097,-1.0012,-1.0012,-1.0012,-0.9734,0.0,0.0,0.0,0.0,-0.5477,-0.4915,-0.4915,-0.4895,-0.4925,-0.4925,-0.4254,-0.3528,-0.3528,-0.3448,-0.3308,-0.3308,-0.3291,-0.3272,-0.3272,-0.2066,-0.0939,-0.0939,-0.0439,0.0,0.0,0.0,0.0,0.0,0.0,0.0,0.0,0.0,0.0,0.0,0.0,0.0,0.0,0.0,0.0,0.0,0.0,0.0,0.0,0.0,0.0,0.0,0.0,0.0,0.0,0.0,0.0,0.0,0.0,0.0,0.0,0.0,0.0,0.0,0.2049,0.2243,0.0,0.0,0.0,0.0,0.0,0.0,0.0,0.0,0.0,0.0,0.0,0.0,0.0,0.0,0.0,0.0,-0.6822,-0.7601,-0.8801,-0.7926,-0.7644,-0.8821,-0.9235,-0.9408,-0.9408,-0.9561,-0.971,-0.9836,-0.9926,-1.0134,-1.0273,-1.028,0.0,0.0,0.0,-1.0314,-1.0331,-1.0331,-1.0331,-1.0331,-1.0331,-1.0331,-1.0331,-1.0331,-1.0321,-1.0304,-1.0304,-1.0293,-1.028,-1.028,-1.028,-1.0126,-0.8414,-0.8564,-0.966,-0.8241,-0.6764,-0.5476,-0.5476,0.0,0.0,-0.5481,-0.5358,-0.5172,-0.5172,-0.5167,-0.5159,-0.5159,-0.5047,-0.499,-0.499,-0.3747,-0.2528,-0.2528,-0.1517,-0.0506,-0.0506,-0.0505,-0.0446,-0.0275,-0.0274,-0.0218,-0.0054,0.0,0.0,0.0,0.0,0.0,0.0,0.0,0.0,0.0,0.0,0.0,0.0,0.0,0.0,0.0,0.0,0.0,0.0,0.0,0.0,0.0,0.0,0.0,0.0,0.0,0.0,0.0048,0.1532,0.1785,0.0,0.0,0.0,0.0,0.0,0.0,0.0,0.0,0.0,0.0,0.0,0.0,0.0,0.0,0.0,-0.6664,-0.79,-0.8891,-0.9273,-0.9165,-0.9137,-0.931,-0.9456,-0.9564,-0.9564,-0.9805,-0.9913,-0.994,-1.0148,-1.0249,-1.028,-1.028,-1.0334,-1.0449,-1.0453,-1.051,-1.0633,-1.0636,-1.0636,-1.0636,-1.0636,0.0,-1.0636,-1.0636,-1.0568,-1.0453,-1.0453,-1.0385,-1.028,-1.028,-1.028,-1.0273,-0.9893,-0.986,-0.9943,-0.9627,-0.9226,-0.886,-0.886,-0.8842,-0.888,-0.888,-0.7965,-0.6931,-0.6931,-0.6811,0.0,-0.6679,-0.6664,-0.6647,-0.6647,-0.5528,-0.4357,-0.4357,-0.4083,-0.3816,-0.3816,-0.3723,-0.3239,-0.2005,-0.1781,-0.1385,-0.0219,0.0,0.0,0.0,0.0,0.0,0.0,0.0,0.0,0.0,0.0,0.0,0.0,0.0,0.0,0.0,0.0,0.0,0.0,0.0,0.0,0.0,0.0,0.0,0.0,0.0,0.0,0.0,0.0351,0.0397,0.0,0.0,0.0,0.0,0.0,0.0,0.0,0.0,0.0,0.0,0.0,-0.3881,-0.5207,0.0,-0.7142,-0.7946,-0.8794,-0.9408,-0.9486,-0.9622,-0.9659,-0.9513,-0.9625,-0.9744,-0.9822,-0.9903,-1.0048,-1.0259,-1.0341,-1.0419,-1.0497,-1.05,-1.0534,-1.0605,-1.0605,-1.0643,-1.0721,-1.0721,-1.0721,-1.0721,-1.0721,-1.0721,-1.0721,-1.0721,-1.0677,-1.0605,-1.0605,-1.0565,-1.05,-1.05,-1.05,-1.05,-1.05,-1.0361,-1.0164,-1.0164,-1.0117,-1.0049,-1.0049,-1.0002,-0.9872,-0.9872,-0.9281,-0.8618,-0.8618,-0.8513,-0.8456,-0.8456,-0.8411,-0.8363,-0.8363,-0.7192,-0.5977,-0.5977,-0.536,-0.4796,-0.4698,-0.4662,-0.4344,-0.3526,-0.3352,-0.3122,-0.238,-0.1593,-0.0866,-0.0106,0.0,0.0,0.0,0.0,0.0,0.0,0.0,0.0,0.0,0.0,0.0,0.0,0.0,0.0,0.0,0.0,0.0,0.0,0.0,0.0,0.0,0.0,0.0,0.0,0.0,0.0,0.0,0.0,0.0,0.0,0.0,0.0,0.0,-0.2585,-0.3058,-0.4459,-0.4953,-0.5601,-0.6952,-0.7402,-0.796,-0.9104,-0.9469,-0.9649,-0.9649,-0.9747,-0.9778,-0.9663,-0.9751,-0.988,-0.9974,-1.0014,-1.0205,-1.0473,-1.0521,-1.0592,-1.0714,-1.0721,-1.0721,-1.0721,-1.0721,-1.0721,-1.0721,-1.0721,-1.0721,-1.0721,-1.0721,-1.0721,-1.0721,-1.0721,-1.0721,-1.0721,-1.0721,-1.0721,-1.0721,-1.0721,-1.0721,-1.0721,-1.0721,-1.0575,-1.0365,-1.0334,-1.0304,-1.028,-1.028,-1.0198,-1.0027,-0.9997,-0.9903,-0.9859,-0.9829,-0.9822,-0.9822,-0.9822,-0.9737,-0.9649,-0.9649,-0.866,-0.7629,-0.7629,-0.6725,-0.5808,-0.5675,-0.5643,-0.549,-0.5067,-0.4938,-0.4879,-0.4529,-0.3463,-0.2159,-0.0646,-0.0161,0.0,0.0,0.0,0.0,0.0,0.0,0.0,0.0,0.0,0.0,0.0,0.0,0.0,0.0,0.0,0.0,0.0,0.0,0.0,0.0,0.0,0.0,0.0,0.0,0.0,0.0104,-0.0811,-0.1789,-0.1785,-0.2752,-0.3813,0.0,-0.4341,-0.485,-0.6305,-0.6743,-0.7248,-0.8647,-0.914,-0.936,-0.9557,-0.9693,-0.9798,-0.9798,-0.9812,-0.9815,-0.9798,-0.9812,-0.988,-0.9974,-1.0175,-1.0321,-1.048,-1.0619,-1.0704,-1.0717,-1.0721,-1.0721,-1.0721,-1.0721,-1.0721,-1.0721,-1.0721,-1.0721,-1.0721,-1.0721,-1.0721,-1.0721,-1.0721,-1.0721,-1.0721,-1.0721,-1.0721,-1.0721,-1.0721,-1.0721,-1.0721,-1.0721,-1.07,-1.0656,-1.0517,-1.0388,-1.028,-1.028,-1.027,-1.0232,-1.0031,-0.9974,-0.9936,-0.9863,-0.9822,-0.9822,-0.9822,-0.9812,-0.9798,-0.9798,-0.966,-0.9526,-0.9526,-0.925,-0.9097,-0.9081,-0.8978,-0.8435,-0.692,-0.6613,-0.6188,-0.4761,-0.4359,-0.3721,-0.2183,-0.0818,0.0,0.0,0.0,0.0,0.0,0.0,0.0,0.0,0.0,0.0,0.0,0.0,0.0,0.0,0.0,0.0,0.0,0.0,0.0,0.0,0.0,0.0,0.0,0.0,0.0,-0.0956,-0.2088,-0.3099,-0.3405,-0.3971,-0.4724,-0.5692,-0.5982,-0.6483,-0.7961,-0.838,-0.8709,-0.9298,-0.9591,-0.9734,-0.9734,-0.9859,-0.9924,-0.9832,-0.9835,-0.9829,-0.972,-0.9771,-0.9917,-1.0161,-1.0243,-1.0375,-1.0609,-1.0683,-1.0721,-1.0721,-1.0721,-1.0721,-1.0721,-1.0721,-1.0721,-1.0721,-1.0721,-1.0721,-1.0721,-1.0721,-1.0721,-1.0721,-1.0721,-1.0721,-1.0721,-1.0721,-1.0721,-1.0721,-1.0721,-1.0721,-1.0721,-1.0721,-1.0721,-1.0714,-1.0649,-1.0585,-1.0534,-1.0534,-1.0477,-1.0392,-1.0327,-1.0188,-0.9974,-0.9913,-0.989,-0.9822,-0.9822,-0.9822,-0.9822,-0.9822,-0.9822,-0.9822,-0.9822,-0.9774,-0.971,-0.9629,-0.9557,-0.929,-0.8496,-0.8289,-0.8043,-0.7368,-0.6405,-0.5573,-0.4924,-0.2821,-0.1267,-0.13,-0.0541,0.0,0.0,0.0,0.0,0.0,0.0,0.0,0.0,0.0,0.0,0.0,0.0,0.0,0.0,0.0,0.0,0.0,0.0,0.0,0.0,0.0,0.0,-0.2247,-0.347,-0.4577,-0.4993,-0.5502,-0.6239,-0.7359,-0.7703,-0.8067,-0.913,-0.9513,-0.9656,-0.9615,-0.9727,-0.9808,-0.9771,-0.9927,-0.9998,-0.9842,-0.9856,-0.9845,-0.9693,-0.9724,-0.9883,-1.0185,-1.0256,-1.0385,-1.0636,-1.0697,-1.0721,-1.0721,-1.0721,-1.0721,-1.0721,-1.0721,-1.0721,-1.0721,-1.0721,-1.0721,-1.0721,-1.0721,-1.0721,-1.0721,-1.0721,-1.0721,-1.0721,-1.0721,-1.0721,-1.0721,-1.0721,-1.0721,-1.0721,-1.0721,-1.0721,-1.0721,-1.0721,-1.0721,-1.0721,-1.0721,-1.0649,-1.0548,-1.0507,-1.0348,-1.0102,-1.0061,-1.0005,-0.9883,-0.9883,-0.9852,-0.9822,-0.9822,-0.9822,-0.9822,-0.9822,-0.9822,-0.9791,-0.969,-0.9666,-0.9625,-0.9473,-0.9354,-0.9323,-0.9279,-0.8239,-0.7365,-0.7365,-0.515,-0.3116,-0.2311,-0.0932,0.0,0.0,0.0,0.0,0.0,0.0,0.0,0.0,0.0,0.0,0.0,0.0,0.0,0.0,0.0,0.0,0.0,0.0,0.0,0.0,0.0,0.0,-0.372,-0.4942,-0.6272,-0.6546,-0.7879,-0.9114,-0.9262,-0.9417,-0.9569,-0.9771,-0.9808,-0.9774,-0.9635,-0.9727,-0.9774,-0.9639,-0.9859,-0.9933,-0.9842,-0.9825,-0.9825,-0.9815,-0.9696,-0.9734,-0.9967,-1.0192,-1.0341,-1.0487,-1.0636,-1.0721,-1.0721,-1.0721,-1.0721,-1.0721,-1.0721,-1.0721,-1.0721,-1.0721,-1.0721,-1.0721,-1.0721,-1.0721,-1.0721,-1.0721,-1.0721,-1.0721,-1.0721,-1.0721,-1.0721,-1.0721,-1.0721,-1.0721,-1.0721,-1.0721,-1.0721,-1.0721,-1.0721,-1.0721,-1.0721,-1.0717,-1.0687,-1.0538,-1.0487,-1.0453,-1.0317,-1.0164,-0.998,-0.998,-0.9872,-0.9822,-0.9822,-0.9822,-0.9822,-0.9822,-0.9822,-0.9819,-0.9815,-0.9815,-0.9774,-0.9632,-0.9598,-0.9547,-0.9401,-0.9245,-0.9147,-0.9147,-0.767,-0.5526,-0.2569,-0.0938,0.0,0.0,0.0,0.0,0.0,0.0,0.0,0.0,0.0,0.0,0.0,0.0,0.0,0.0,0.0,0.0,0.0,0.0,0.0,0.0,0.0,0.0,-0.5463,-0.6662,-0.7861,-0.8345,-0.9,-0.9493,-0.9639,-0.9713,-0.9737,-0.969,-0.9598,-0.9483,-0.9334,-0.9347,-0.9395,-0.9449,-0.9791,-0.997,-0.9916,-1.0141,-1.0528,-1.1296,-1.0472,-1.0221,-1.1243,-1.0587,-1.0229,-1.0473,-1.0538,-1.0612,-1.0714,-1.0721,-1.0721,-1.0721,-1.0721,-1.0721,-1.0721,-1.0721,-1.0721,-1.0721,-1.0721,-1.0721,-1.0721,-1.0721,-1.0721,-1.0721,-1.0721,-1.0721,-1.0721,-1.0721,-1.0721,-1.0721,-1.0721,-1.0721,-1.0721,-1.0721,-1.0721,-1.0721,-1.0721,-1.0721,-1.0711,-1.066,-1.0575,-1.0483,-1.0436,-1.0317,-1.0181,-1.0014,-0.995,-0.9886,-0.9846,-0.9822,-0.9822,-0.9822,-0.9822,-0.9822,-0.9822,-0.9822,-0.9805,-0.9758,-0.9676,-0.9595,-0.954,-0.9405,-0.9326,-0.9224,-0.7785,-0.5975,-0.3967,-0.2393,-0.1443,-0.1443,-0.0608,0.0,0.0,0.0,0.0,0.0,0.0,0.0,0.0,0.0,0.0,0.0,0.0,0.0,0.0,0.0,0.0,0.0,0.0,0.0,-0.7093,-0.7952,-0.8842,-0.9337,-0.9574,-0.9707,-0.9798,-0.9781,-0.9703,-0.9557,-0.9364,-0.9178,-0.9025,-0.8994,-0.9062,-0.9266,-0.9676,-1.017,-1.0834,-1.1199,-1.1877,-1.3249,-1.2458,-1.2241,-1.3144,-1.2449,-1.1513,-1.0527,-1.0514,-1.0616,-1.0714,-1.0721,-1.0721,-1.0721,-1.0721,-1.0721,-1.0721,-1.0721,-1.0721,-1.0721,-1.0721,-1.0721,-1.0721,-1.0721,-1.0721,-1.0721,-1.0721,-1.0721,-1.0721,-1.0721,-1.0721,-1.0721,-1.0721,-1.0721,-1.0721,-1.0721,-1.0721,-1.0721,-1.0721,-1.0721,-1.0721,-1.0721,-1.0653,-1.0571,-1.0571,-1.0473,-1.0334,-1.0236,-1.0171,-1.0097,-0.9941,-0.99,-0.989,-0.9832,-0.9822,-0.9822,-0.9822,-0.9822,-0.9822,-0.9822,-0.9747,-0.9686,-0.9686,-0.9561,-0.9412,-0.9316,-0.8354,-0.7073,-0.5483,-0.3967,-0.2794,-0.2235,-0.1343,-0.056,-0.0056,0.0,0.0,0.0,0.0,0.0,0.0,0.0,0.0,0.0,0.0,0.0,0.0,0.0,0.0,0.0,0.0,0.0,-0.8482,-0.89,-0.9306,-0.9547,-0.9724,-0.9819,-0.9812,-0.97,-0.9547,-0.9371,-0.91,-0.8784,-0.8662,-0.8655,-0.8825,-0.9227,-0.9624,-1.0598,-1.2475,-1.2923,-1.3672,-1.5406,-1.5391,-1.5339,-1.5613,-1.552,-1.4159,-1.0855,-1.0743,-1.0843,-1.085,-1.0721,-1.0721,-1.0721,-1.0721,-1.0721,-1.0721,-1.0721,-1.0721,-1.0721,-1.0721,-1.0721,-1.0721,-1.0721,-1.0721,-1.0721,-1.0721,-1.0721,-1.0721,-1.0721,-1.0721,-1.0721,-1.0721,-1.0721,-1.0721,-1.0721,-1.0721,-1.0721,-1.0721,-1.0721,-1.0721,-1.0721,-1.0721,-1.0721,-1.0721,-1.0619,-1.0504,-1.0493,-1.0395,-1.0256,-1.01,-1.0,-0.996,-0.9869,-0.9832,-0.9829,-0.9822,-0.9822,-0.9822,-0.9822,-0.9822,-0.9822,-0.9822,-0.971,-0.9568,-0.9415,-0.9395,-0.8762,-0.7083,-0.5543,-0.4089,-0.2632,-0.2409,-0.1738,-0.0281,-0.0112,-0.0112,0.0,0.0,0.0,0.0,0.0,0.0,0.0,0.0,0.0,0.0,0.0,0.0,0.0,0.0,0.0,-0.9018,-0.932,-0.9537,-0.972,-0.9795,-0.9791,-0.9686,-0.9547,-0.9303,-0.8811,-0.8476,-0.8069,-0.7584,-0.7857,-0.8623,-0.9999,-1.109,-1.2379,-1.4308,-1.4935,-1.5686,-1.7229,-1.6327,-1.5992,-1.7189,-1.6279,-1.5304,-1.436,-1.3187,-1.2531,-1.2598,-1.1439,-1.0721,-1.0721,-1.0721,-1.0721,-1.0721,-1.0721,-1.0721,-1.0721,-1.0721,-1.0721,-1.0721,-1.0721,-1.0721,-1.0721,-1.0721,-1.0721,-1.0721,-1.0721,-1.0721,-1.0721,-1.0721,-1.0721,-1.0721,-1.0721,-1.0721,-1.0721,-1.0721,-1.0721,-1.0721,-1.0721,-1.0721,-1.0721,-1.0721,-1.0694,-1.0636,-1.0524,-1.0466,-1.0402,-1.0259,-1.0222,-1.0181,-0.9967,-0.993,-0.9899,-0.9846,-0.9822,-0.9822,-0.9822,-0.9822,-0.9822,-0.9822,-0.9791,-0.972,-0.9571,-0.9551,-0.9362,-0.8769,-0.7352,-0.6309,-0.5903,-0.4863,-0.3593,-0.1973,-0.1857,-0.1336,-0.0058,0.0,0.0,0.0,0.0,0.0,0.0,0.0,0.0,0.0,0.0,0.0,0.0,0.0,0.0,-0.9371,-0.9591,-0.9724,-0.9802,-0.9774,-0.9656,-0.9378,-0.9144,-0.8798,-0.813,-0.7807,-0.7456,-0.6991,-0.7833,-0.8979,-1.0235,-1.1801,-1.3673,-1.5928,-1.6563,-1.7493,-1.9197,-1.8611,-1.8425,-1.9231,-1.8584,-1.8093,-1.8093,-1.5021,-1.321,-1.3316,-1.1633,-1.0721,-1.0721,-1.1439,-1.1828,-1.1828,-1.1828,-1.1439,-1.0721,-1.0721,-1.0721,-1.0721,-1.0721,-1.0721,-1.0721,-1.0721,-1.0721,-1.0721,-1.0721,-1.0721,-1.0721,-1.0721,-1.0721,-1.0721,-1.0721,-1.0721,-1.0721,-1.0721,-1.0721,-1.0721,-1.0721,-1.0721,-1.0721,-1.0721,-1.0721,-1.0704,-1.0616,-1.0592,-1.0558,-1.0412,-1.0375,-1.0334,-1.0185,-1.0151,-1.0107,-0.9893,-0.9859,-0.9839,-0.9832,-0.9822,-0.9822,-0.9822,-0.9822,-0.9795,-0.9713,-0.9703,-0.9673,-0.9585,-0.8688,-0.7852,-0.7148,-0.6387,-0.5218,-0.3696,-0.2877,-0.2115,-0.1176,-0.0412,0.0,0.0,0.0,0.0,0.0,0.0,0.0,0.0,0.0,0.0,0.0,0.0,0.0,-0.9591,-0.9727,-0.9815,-0.9798,-0.9686,-0.9456,-0.8984,-0.8625,-0.818,-0.7438,-0.7231,-0.71,-0.6839,-0.8084,-0.9498,-1.0495,-1.2287,-1.4496,-1.7316,-1.8079,-1.9074,-2.0873,-2.1109,-2.1109,-2.1109,-2.1109,-2.1109,-2.1109,-1.6695,-1.397,-1.397,-1.2347,-1.1372,-1.1372,-1.2869,-1.3648,-1.3648,-1.3648,-1.2869,-1.1372,-1.1178,-1.1045,-1.1045,-1.0784,-1.0721,-1.0721,-1.0721,-1.0721,-1.0721,-1.0721,-1.0721,-1.0721,-1.0721,-1.0721,-1.0721,-1.0721,-1.0721,-1.0721,-1.0721,-1.0721,-1.0721,-1.0721,-1.0721,-1.0721,-1.0721,-1.0721,-1.0721,-1.0721,-1.0721,-1.069,-1.0558,-1.0521,-1.0487,-1.0341,-1.031,-1.0266,-1.0051,-1.0,-0.9943,-0.9849,-0.9822,-0.9822,-0.9822,-0.9822,-0.9822,-0.9822,-0.9822,-0.9822,-0.9822,-0.9598,-0.8965,-0.7604,-0.7429,-0.684,-0.5367,-0.3955,-0.3072,-0.2837,-0.1243,-0.0355,-0.0355,-0.0119,0.0,0.0,0.0,0.0,0.0,0.0,0.0,0.0,0.0,0.0,-0.971,-0.9802,-0.9791,-0.9676,-0.9534,-0.9269,-0.8693,-0.8231,-0.7716,-0.697,-0.72,-0.7467,-0.7216,-0.7837,-0.9444,-1.2564,-1.3388,-1.4983,-1.8814,-1.9658,-2.0125,-2.0979,-2.1109,-2.1109,-2.1109,-2.1109,-2.1109,-2.1109,-1.8896,-1.7597,-1.7597,-1.5983,-1.5009,-1.5009,-1.5265,-1.5459,-1.5459,-1.5459,-1.5329,-1.5009,-1.3517,-1.2869,-1.2804,-1.1372,-1.0721,-1.0721,-1.0721,-1.0721,-1.0721,-1.0721,-1.0721,-1.0721,-1.0721,-1.0721,-1.0721,-1.0721,-1.0721,-1.0721,-1.0721,-1.0721,-1.0721,-1.0721,-1.0721,-1.0721,-1.0721,-1.0721,-1.0721,-1.0721,-1.0721,-1.0714,-1.0687,-1.068,-1.0643,-1.049,-1.0456,-1.0415,-1.027,-1.0141,-0.9943,-0.9849,-0.9822,-0.9822,-0.9822,-0.9822,-0.9822,-0.9822,-0.9822,-0.9822,-0.9822,-0.9778,-0.9623,-0.9379,-0.9315,-0.8705,-0.712,-0.6694,-0.5968,-0.4573,-0.2992,-0.2077,-0.2077,-0.0734,0.0,0.0,0.0,0.0,0.0,0.0,0.0,0.0,0.0,0.0,-0.9741,-0.9822,-0.9788,-0.9646,-0.9435,-0.9101,-0.8211,-0.7675,-0.7095,-0.619,-0.6313,-0.6631,-0.6785,-0.7622,-0.9293,-1.2264,-1.3356,-1.5074,-1.8632,-1.9366,-1.994,-2.0982,-2.1109,-2.1109,-2.1109,-2.1109,-2.1109,-2.1109,-2.0329,-1.9483,-1.857,-1.6824,-1.6307,-1.7211,-1.7275,-1.7275,-1.7275,-1.7275,-1.6824,-1.5913,-1.5074,-1.4166,-1.3259,-1.2413,-1.1567,-1.0721,-1.0721,-1.0721,-1.0721,-1.0721,-1.0721,-1.0721,-1.0721,-1.0721,-1.0721,-1.0721,-1.0721,-1.0721,-1.0721,-1.0721,-1.0721,-1.0721,-1.0721,-1.0721,-1.0721,-1.0721,-1.0721,-1.0721,-1.0721,-1.0721,-1.0721,-1.0721,-1.07,-1.0629,-1.0551,-1.0473,-1.0405,-1.0212,-0.9967,-0.9893,-0.9876,-0.9822,-0.9822,-0.9822,-0.9822,-0.9822,-0.9822,-0.9822,-0.9822,-0.9822,-0.9822,-0.9822,-0.9822,-0.9511,-0.8711,-0.785,-0.7055,-0.6261,-0.4669,-0.3383,-0.2524,-0.1725,-0.0863,0.0,0.0,0.0,0.0,0.0,0.0,0.0,0.0,0.0,-1.052,-1.051,-1.0254,-1.0132,-0.9842,-0.9316,-0.812,-0.731,-0.659,-0.5837,-0.5862,-0.6189,-0.668,-0.7823,-0.9461,-1.1856,-1.3039,-1.4768,-1.7927,-1.8698,-1.9446,-2.0848,-2.1076,-2.1109,-2.1109,-2.1109,-2.1109,-2.1109,-2.1109,-2.0519,-1.9158,-1.7731,-1.7661,-1.9024,-1.9094,-1.9094,-1.9094,-1.9094,-1.8378,-1.7017,-1.663,-1.5529,-1.384,-1.3451,-1.2347,-1.0721,-1.0721,-1.0721,-1.0721,-1.0721,-1.0721,-1.0721,-1.0721,-1.0721,-1.0721,-1.0721,-1.0721,-1.0721,-1.0721,-1.0721,-1.0721,-1.0721,-1.0721,-1.0721,-1.0721,-1.0721,-1.0721,-1.0721,-1.0721,-1.0721,-1.0721,-1.0721,-1.0721,-1.0721,-1.0629,-1.0531,-1.05,-1.031,-1.0071,-1.0041,-0.9975,-0.9869,-0.9869,-0.9842,-0.9822,-0.9822,-0.9822,-0.9822,-0.9822,-0.9822,-0.9822,-0.9822,-0.9822,-0.9822,-0.9822,-0.865,-0.7914,-0.7914,-0.6383,-0.4853,-0.3628,-0.2892,-0.191,-0.0555,-0.0185,0.0,0.0,0.0,0.0,0.0,0.0,0.0,-1.295,-1.2903,-1.1894,-1.1666,-1.1349,-1.0682,-0.8984,-0.7532,-0.6525,-0.6569,-0.7086,-0.7603,-0.7955,-0.8865,-1.0415,-1.3012,-1.315,-1.4121,-1.7536,-1.8515,-1.9372,-2.0575,-2.0949,-2.1109,-2.1109,-2.1109,-2.1109,-2.1109,-2.1109,-2.1046,-2.0849,-2.0722,-2.0716,-2.0849,-2.0849,-2.0849,-2.0849,-2.0849,-2.0786,-2.0589,-1.9024,-1.7339,-1.5594,-1.4036,-1.2347,-1.0721,-1.0721,-1.0721,-1.0721,-1.0721,-1.0721,-1.0721,-1.0721,-1.0721,-1.0721,-1.0721,-1.0721,-1.0721,-1.0721,-1.0721,-1.0721,-1.0721,-1.0721,-1.0721,-1.0721,-1.0721,-1.0721,-1.0721,-1.0721,-1.0721,-1.0721,-1.0721,-1.0721,-1.0721,-1.0711,-1.066,-1.0521,-1.047,-1.0412,-1.0283,-1.0134,-0.9967,-0.9967,-0.9852,-0.9822,-0.9822,-0.9822,-0.9822,-0.9822,-0.9822,-0.9822,-0.9822,-0.9822,-0.9822,-0.9822,-0.9636,-0.9576,-0.9576,-0.8036,-0.7116,-0.6933,-0.4056,-0.2401,-0.2278,-0.0802,0.0,0.0,0.0,0.0,0.0,0.0,0.0,-1.2995,-1.3389,-1.3081,-1.2857,-1.2377,-1.1578,-1.0171,-0.8582,-0.7246,-0.6626,-0.6719,-0.7118,-0.7766,-0.8388,-0.9613,-1.2151,-1.2143,-1.2894,-1.602,-1.6954,-1.7963,-1.9686,-2.014,-2.0528,-2.1056,-2.1109,-2.1109,-2.1109,-2.1109,-2.1109,-2.1109,-2.1109,-2.1109,-2.1109,-2.1109,-2.1109,-2.1109,-2.1109,-2.1109,-2.1109,-2.0392,-1.857,-1.5854,-1.52,-1.3325,-1.0721,-1.0721,-1.0721,-1.0721,-1.0721,-1.0721,-1.0721,-1.0721,-1.0721,-1.0721,-1.0721,-1.0721,-1.0721,-1.0721,-1.0721,-1.0721,-1.0721,-1.0721,-1.0721,-1.0721,-1.0721,-1.0721,-1.0721,-1.0721,-1.0721,-1.0721,-1.0721,-1.0721,-1.0721,-1.0721,-1.0704,-1.0643,-1.0558,-1.0477,-1.0419,-1.029,-1.0188,-1.0188,-1.0137,-1.0097,-1.0097,-1.0097,-1.0066,-0.9909,-0.9896,-0.9862,-0.9832,-0.9822,-0.9822,-0.9822,-0.9822,-0.9822,-0.9822,-0.9204,-0.8404,-0.7421,-0.6137,-0.4976,-0.3936,-0.234,-0.1486,-0.15,-0.05,0.0,0.0,0.0,0.0,-1.3551,-1.4221,-1.4119,-1.4009,-1.3425,-1.2597,-1.1208,-0.9394,-0.784,-0.7283,-0.6974,-0.7068,-0.7933,-0.8549,-0.9558,-1.1581,-1.1757,-1.255,-1.5053,-1.5979,-1.7041,-1.8764,-1.9305,-1.9853,-2.0641,-2.0955,-2.1109,-2.1109,-2.1109,-2.1109,-2.1109,-2.1109,-2.1109,-2.1109,-2.1109,-2.1109,-2.1109,-2.1109,-2.1109,-2.1109,-2.1109,-1.9546,-1.6689,-1.6689,-1.5074,-1.2219,-1.1696,-1.1501,-1.1435,-1.0916,-1.0721,-1.0721,-1.0721,-1.0721,-1.0721,-1.0721,-1.0721,-1.0721,-1.0721,-1.0721,-1.0721,-1.0721,-1.0721,-1.0721,-1.0721,-1.0721,-1.0721,-1.0721,-1.0721,-1.0721,-1.0721,-1.0721,-1.0721,-1.0721,-1.0721,-1.0721,-1.0721,-1.0636,-1.0558,-1.0558,-1.0443,-1.0341,-1.0341,-1.031,-1.028,-1.028,-1.028,-1.0243,-1.0131,-1.0014,-0.9947,-0.9839,-0.9846,-0.9822,-0.9822,-0.9822,-0.9822,-0.9822,-0.9822,-0.9265,-0.8158,-0.7667,-0.6886,-0.575,-0.4084,-0.3057,-0.2535,-0.1396,-0.0512,0.0,0.0,0.0,-1.5413,-1.5936,-1.5157,-1.5007,-1.4648,-1.3801,-1.1915,-0.9682,-0.8167,-0.8848,-0.8273,-0.7959,-0.8838,-0.985,-1.0888,-1.1765,-1.2402,-1.3407,-1.5144,-1.6152,-1.7034,-1.7923,-1.8564,-1.9165,-1.9753,-2.0601,-2.1109,-2.1109,-2.1109,-2.1109,-2.1109,-2.1109,-2.1109,-2.1109,-2.1109,-2.1109,-2.1109,-2.1109,-2.1109,-2.1109,-2.1109,-2.0195,-1.8442,-1.8442,-1.7538,-1.5719,-1.4036,-1.3259,-1.3128,-1.1439,-1.0721,-1.0721,-1.0721,-1.0721,-1.0721,-1.0721,-1.0721,-1.0721,-1.0721,-1.0721,-1.0721,-1.0721,-1.0721,-1.0721,-1.0721,-1.0721,-1.0721,-1.0721,-1.0721,-1.0721,-1.0721,-1.0721,-1.0721,-1.0721,-1.0721,-1.0721,-1.0721,-1.0717,-1.0717,-1.0717,-1.0595,-1.049,-1.049,-1.0375,-1.028,-1.028,-1.028,-1.028,-1.028,-1.0144,-0.9987,-0.9984,-0.9849,-0.9822,-0.9822,-0.9822,-0.9822,-0.9822,-0.9822,-0.9822,-0.9758,-0.8221,-0.7475,-0.7591,-0.5898,-0.4302,-0.27,-0.27,-0.175,0.0,0.0,0.0,-1.3523,-1.4526,-1.4619,-1.4142,-1.3938,-1.351,-1.2303,-1.0412,-0.8939,-0.9171,-0.8499,-0.8175,-0.905,-0.9983,-1.1015,-1.2301,-1.2844,-1.354,-1.4955,-1.6248,-1.7268,-1.7902,-1.9446,-2.0488,-2.0675,-2.0949,-2.1109,-2.1109,-2.1109,-2.1109,-2.1109,-2.1109,-2.1109,-2.1109,-2.1109,-2.1109,-2.1109,-2.1109,-2.1109,-2.1109,-2.1109,-2.0195,-1.8506,-1.8506,-1.7538,-1.5848,-1.5334,-1.4423,-1.3259,-1.2672,-1.1762,-1.0721,-1.0721,-1.0721,-1.0721,-1.0721,-1.0721,-1.0721,-1.0721,-1.0721,-1.0721,-1.0721,-1.0721,-1.0721,-1.0721,-1.0721,-1.0721,-1.0721,-1.0721,-1.0721,-1.0721,-1.0721,-1.0721,-1.0721,-1.0721,-1.0721,-1.0721,-1.0721,-1.0721,-1.0721,-1.068,-1.0649,-1.0649,-1.0612,-1.0582,-1.0582,-1.0582,-1.0541,-1.0439,-1.0382,-1.0314,-1.0219,-1.0164,-1.0049,-0.9839,-0.9822,-0.9822,-0.9822,-0.9822,-0.9822,-0.9822,-0.9423,-0.9184,-0.9231,-0.7736,-0.6677,-0.619,-0.5084,-0.3614,-0.1801,-0.0601,0.0,-1.2208,-1.3353,-1.3788,-1.35,-1.3353,-1.3066,-1.2171,-1.0663,-0.9478,-0.9582,-0.892,-0.8594,-0.9602,-1.0238,-1.0961,-1.21,-1.273,-1.3447,-1.4629,-1.6059,-1.7328,-1.8209,-1.97,-2.0655,-2.0768,-2.0975,-2.1109,-2.1109,-2.1109,-2.1109,-2.1109,-2.1109,-2.1109,-2.1109,-2.1109,-2.1109,-2.1109,-2.1109,-2.1109,-2.1109,-2.1109,-2.0519,-1.9483,-1.9483,-1.8896,-1.7859,-1.7146,-1.6237,0.0,-1.4553,-1.3648,-1.2672,-1.2672,-1.2285,-1.1699,-1.1699,-1.124,-1.0721,-1.0721,-1.0721,-1.0721,-1.0721,-1.0721,-1.0721,-1.0721,-1.0721,-1.0721,-1.0721,-1.0721,-1.0721,-1.0721,-1.0721,-1.0721,-1.0721,-1.0721,-1.0721,-1.0721,-1.0721,-1.0721,-1.0721,-1.0721,-1.0721,-1.0721,-1.0721,-1.0721,-1.0721,-1.0721,-1.0683,-1.0592,-1.0527,-1.046,-1.0371,-1.0314,-1.0202,-1.0008,-0.9995,-0.9995,-0.9995,-0.9995,-0.9995,-0.9995,-1.0086,-1.0161,-1.0215,-0.9276,-0.8536,-0.7865,-0.6215,-0.4454,-0.2685,-0.1545,-0.0673,0.0,-1.2355,-1.2656,-1.2866,-1.2739,-1.2375,-1.149,-1.0434,0.0,-1.0017,-0.9407,-0.9167,-1.0428,-1.0653,-1.0881,-1.1536,-1.2351,-1.3353,-1.4482,-1.5925,-1.7415,-1.8905,-1.9559,-2.0,-2.0267,-2.0788,-2.1109,-2.1109,-2.1109,-2.1109,-2.1109,-2.1109,-2.1109,-2.1109,-2.1109,-2.1109,-2.1109,-2.1109,-2.1109,-2.1109,-2.1109,-2.1109,-2.1109,-2.1109,-2.1109,-2.0976,-1.9413,-1.8634,-1.8378,-1.6759,-1.5978,-1.5913,-1.5913,-1.4879,-1.3451,-1.3325,-1.2285,-1.085,-1.0721,-1.0721,-1.0721,-1.0721,-1.0721,-1.0721,-1.0721,-1.0721,-1.0721,-1.0721,-1.0721,-1.0721,-1.0721,-1.0721,-1.0721,-1.0721,-1.0721,-1.0721,-1.0721,-1.0721,-1.0721,-1.0721,-1.0721,-1.0721,-1.0721,-1.0721,-1.0721,-1.0721,-1.0721,-1.0721,-1.0721,-1.0595,-1.0507,-1.0507,-1.0388,-1.0314,-1.0314,-1.0293,-1.028,-1.028,-1.028,-1.028,-1.028,-1.029,-1.0358,-1.049,-1.0504,-0.978,-0.8166,-0.6431,-0.4693,-0.3087,-0.2819,-0.1814,-0.9515,0.0,-1.0648,-1.0236,-1.0454,-1.0621,0.0,-0.955,-0.9173,-0.9676,-0.9276,-0.9281,-1.0909,-1.1223,-1.1784,-1.3473,-1.4155,-1.4821,-1.5725,-1.7328,-1.8945,-2.0421,-2.0715,-2.0828,-2.0895,-2.1029,-2.1109,-2.1109,-2.1109,-2.1109,-2.1109,-2.1109,-2.1109,-2.1109,-2.1109,-2.1109,-2.1109,-2.1109,-2.1109,-2.1109,-2.1109,-2.1109,-2.1109,-2.1109,-2.1109,-2.1109,-2.0652,-1.9744,-1.8442,-1.8052,-1.7082,-1.5913,-1.5913,-1.5659,-1.5139,-1.3779,-1.3062,-1.2479,-1.1178,-1.0721,-1.0721,-1.0721,-1.0721,-1.0721,-1.0721,-1.0721,-1.0721,-1.0721,-1.0721,-1.0721,-1.0721,-1.0721,-1.0721,-1.0721,-1.0721,-1.0721,-1.0721,-1.0721,-1.0721,-1.0721,-1.0721,-1.0721,-1.0721,-1.0721,-1.0721,-1.0721,-1.0721,-1.0721,-1.0721,-1.0687,-1.0666,-1.0666,-1.0636,-1.0616,-1.0616,-1.0412,-1.028,-1.028,-1.028,-1.028,-1.028,-1.0385,-1.046,-1.049,-1.0605,-1.0482,-1.0047,-0.8235,-0.7162,-0.6694,-0.3956,-0.2484,-0.8775,-0.9766,-1.0474,-1.0256,-1.045,-1.0643,-1.0514,-0.9807,-0.9351,-0.9798,-0.9633,-0.98,-1.1161,-1.1536,-1.2171,-1.3806,-1.4589,-1.5604,-1.7248,-1.8551,-1.9766,-2.0969,-2.1109,-2.1109,-2.1109,-2.1109,-2.1109,-2.1109,-2.1109,-2.1109,-2.1109,-2.1109,-2.1109,-2.1109,-2.1109,-2.1109,-2.1109,-2.1109,-2.1109,-2.1109,-2.1109,-2.1109,-2.1109,-2.1109,-2.1109,-2.1109,-2.1109,-2.0583,-1.9674,-1.9674,-1.9158,-1.8314,-1.8314,-1.7795,-1.6953,-1.6043,-1.52,-1.4232,-1.2479,-1.1372,-1.0721,-1.0721,-1.0721,-1.0721,-1.0721,-1.0721,-1.0721,-1.0721,-1.0721,-1.0721,-1.0721,-1.0721,-1.0721,-1.0721,-1.0721,-1.0721,-1.0721,-1.0721,-1.0721,-1.0721,-1.0721,-1.0721,-1.0721,-1.0721,-1.0721,-1.0721,-1.0721,-1.0721,-1.0721,-1.0721,-1.0721,-1.0721,-1.0721,-1.0721,-1.0721,-1.0575,-1.0483,-1.0483,-1.0483,-1.0483,-1.0483,-1.0558,-1.0599,-1.0599,-1.0677,-1.0721,-1.0721,-0.9709,-0.8837,-0.7964,-0.6027,-0.429,-0.8862,-1.0114,-1.1189,-1.1162,-1.1222,-1.1349,-1.1303,-1.0528,-0.9886,-1.0134,-1.0254,-1.0569,-1.1495,-1.1977,-1.265,-1.3806,-1.483,-1.6299,-1.8778,-1.9553,-2.0174,-2.1009,-2.1109,-2.1109,-2.1109,-2.1109,-2.1109,-2.1109,-2.1109,-2.1109,-2.1109,-2.1109,-2.1109,-2.1109,-2.1109,-2.1109,-2.1109,-2.1109,-2.1109,-2.1109,-2.1109,-2.1109,-2.1109,-2.1109,-2.1109,-2.1109,-2.1109,-2.1109,-2.1109,-2.1109,-2.1109,-2.1109,-2.1109,-2.0195,-1.8832,-1.857,-1.7597,-1.5978,-1.397,-1.2153,-1.0721,-1.0721,-1.0721,-1.0721,-1.0721,-1.0721,-1.0721,-1.0721,-1.0721,-1.0721,-1.0721,-1.0721,-1.0721,-1.0721,-1.0721,-1.0721,-1.0721,-1.0721,-1.0721,-1.0721,-1.0721,-1.0721,-1.0721,-1.0721,-1.0721,-1.0721,-1.0721,-1.0721,-1.0721,-1.0721,-1.0721,-1.0721,-1.0721,-1.0721,-1.0721,-1.0721,-1.0721,-1.0721,-1.0721,-1.0721,-1.0721,-1.0721,-1.0721,-1.0721,-1.0721,-1.0721,-1.0721,-1.0721,-0.9911,-0.8432,-0.8097,-0.6227,-1.002,-1.1176,-1.1757,-1.0314,-1.0508,-1.0995,-1.078,-1.0586,-1.0472,-1.0512,-1.0882,-1.1542,-1.2726,-1.338,-1.4208,-1.5638,-1.6827,-1.8095,-1.974,-2.0107,-2.0401,-2.1029,-2.1109,-2.1109,-2.1109,-2.1109,-2.1109,-2.1109,-2.1109,-2.1109,-2.1109,-2.1109,-2.1109,-2.1109,-2.1109,-2.1109,-2.1109,-2.1109,-2.1109,-2.1109,-2.1109,-2.1109,-2.1109,-2.1109,-2.1109,-2.1109,-2.1109,-2.1109,-2.1109,-2.1109,-2.1109,-2.1109,-2.1109,-2.0912,-2.0526,-1.9024,-1.8314,-1.7661,-1.4428,-1.2153,-1.0721,-1.0721,-1.0721,-1.0721,-1.0721,-1.0721,-1.0721,-1.0721,-1.0721,-1.0721,-1.0721,-1.0721,-1.0721,-1.0721,-1.0721,-1.0721,-1.0721,-1.0721,-1.0721,-1.0721,-1.0721,-1.0721,-1.0721,-1.0721,-1.0721,-1.0721,-1.0721,-1.0721,-1.0721,-1.0721,-1.0721,-1.0721,-1.0721,-1.0721,-1.0721,-1.0721,-1.0721,-1.0721,-1.0721,-1.0721,-1.0721,-1.0721,-1.0721,-1.0721,-1.0721,-1.0721,-1.0721,-1.0721,-1.0585,-1.0246,-0.8701,-0.6896,-0.9466,-1.0499,-1.1276,-1.0748,-1.1657,-1.2672,-1.2699,-1.2241,-1.1826,-1.1993,-1.2204,-1.2652,-1.3527,-1.4162,-1.5144,-1.6927,-1.8083,-1.9105,-2.0033,-2.0368,-2.0628,-2.1056,-2.1109,-2.1109,-2.1109,-2.1109,-2.1109,-2.1109,-2.1109,-2.1109,-2.1109,-2.1109,-2.1109,-2.1109,-2.1109,-2.1109,-2.1109,-2.1109,-2.1109,-2.1109,-2.1109,-2.1109,-2.1109,-2.1109,-2.1109,-2.1109,-2.1109,-2.1109,-2.1109,-2.1109,-2.1109,-2.1109,-2.1109,-2.1109,-2.0982,-2.0195,-1.9285,-1.825,-1.6689,-1.4362,-1.2088,-1.2088,-1.1501,-1.0721,-1.0721,-1.0721,-1.0721,-1.0721,-1.0721,-1.0721,-1.0721,-1.0721,-1.0721,-1.0721,-1.0721,-1.0721,-1.0721,-1.0721,-1.0721,-1.0721,-1.0721,-1.0721,-1.0721,-1.0721,-1.0721,-1.0721,-1.0721,-1.0721,-1.0721,-1.0721,-1.0721,-1.0721,-1.0721,-1.0721,-1.0721,-1.0721,-1.0721,-1.0721,-1.0721,-1.0721,-1.0721,-1.0721,-1.0721,-1.0721,-1.0721,-1.0721,-1.0721,-1.0721,-1.0721,-1.0654,-0.9845,-0.8501,-0.9145,-0.9956,-1.0868,-1.1557,-1.2712,-1.3814,-1.4389,-1.3761,-1.3226,-1.3627,-1.3781,-1.3961,-1.4416,-1.509,-1.6228,-1.8029,-1.9032,-1.9773,-2.0354,-2.0635,-2.0862,-2.1082,-2.1109,-2.1109,-2.1109,-2.1109,-2.1109,-2.1109,-2.1109,-2.1109,-2.1109,-2.1109,-2.1109,-2.1109,-2.1109,-2.1109,-2.1109,-2.1109,-2.1109,-2.1109,-2.1109,-2.1109,-2.1109,-2.1109,-2.1109,-2.1109,-2.1109,-2.1109,-2.1109,-2.1109,-2.1109,-2.1109,-2.1109,-2.1109,-2.1109,-2.1109,-2.0005,-1.8506,-1.8506,-1.6496,-1.3905,-1.3905,-1.2997,-1.1828,-1.1435,-1.1306,-1.124,-1.0784,-1.0721,-1.0721,-1.0721,-1.0721,-1.0721,-1.0721,-1.0721,-1.0721,-1.0721,-1.0721,-1.0721,-1.0721,-1.0721,-1.0721,-1.0721,-1.0721,-1.0721,-1.0721,-1.0721,-1.0721,-1.0721,-1.0721,-1.0721,-1.0721,-1.0721,-1.0721,-1.0721,-1.0721,-1.0721,-1.0721,-1.0721,-1.0721,-1.0721,-1.0721,-1.0721,-1.0721,-1.0721,-1.0721,-1.0721,-1.0721,-1.0721,-1.0721,-1.0721,-0.9709,-1.0171,-1.0727,-1.1236,-1.2409,-1.2576,-1.2799,-1.4202,-1.4242,-1.4229,-1.5064,-1.5451,-1.5604,-1.5644,-1.6627,-1.7802,-1.9065,-1.978,-2.0374,-2.0962,-2.1069,-2.1089,-2.1109,-2.1109,-2.1109,-2.1109,-2.1109,-2.1109,-2.1109,-2.1109,-2.1109,-2.1109,-2.1109,-2.1109,-2.1109,-2.1109,-2.1109,-2.1109,-2.1109,-2.1109,-2.1109,-2.1109,-2.1109,-2.1109,-2.1109,-2.1109,-2.1109,-2.1109,-2.1109,-2.1109,-2.1109,-2.1109,-2.1109,-2.1109,-2.1109,-2.1109,-2.1109,-2.0005,-1.8506,-1.8506,-1.7275,-1.5719,-1.5719,-1.5654,-1.52,-1.3582,-1.3128,-1.2804,-1.1178,-1.0721,-1.0721,-1.0721,-1.0721,-1.0721,-1.0721,-1.0721,-1.0721,-1.0721,-1.0721,-1.0721,-1.0721,-1.0721,-1.0721,-1.0721,-1.0721,-1.0721,-1.0721,-1.0721,-1.0721,-1.0721,-1.0721,-1.0721,-1.0721,-1.0721,-1.0721,-1.0721,-1.0721,-1.0721,-1.0721,-1.0721,-1.0721,-1.0721,-1.0721,-1.0721,-1.0721,-1.0721,-1.0721,-1.0721,-1.0721,-1.0721,-1.0721,-1.0721,-0.9709,-0.9345,-1.0214,-1.1189,-1.2033,-1.2672,-1.3427,-1.4543,-1.5271,-1.5865,-1.6429,-1.6714,-1.6921,-1.6921,-1.7442,-1.8203,-1.9205,-1.9853,-2.0434,-2.1029,-2.1109,-2.1109,-2.1109,-2.1109,-2.1109,-2.1109,-2.1109,-2.1109,-2.1109,-2.1109,-2.1109,-2.1109,-2.1109,-2.1109,-2.1109,-2.1109,-2.1109,-2.1109,-2.1109,-2.1109,-2.1109,-2.1109,-2.1109,-2.1109,-2.1109,-2.1109,-2.1109,-2.1109,-2.1109,-2.1109,-2.1109,-2.1109,-2.1109,-2.1109,-2.1109,-2.1109,-2.1109,-2.0652,-2.0132,-2.0132,-1.896,-1.7532,-1.7532,-1.6754,-1.5589,-1.3844,-1.3325,-1.2935,-1.1178,-1.0721,-1.0721,-1.0721,-1.0721,-1.0721,-1.0721,-1.0721,-1.0721,-1.0721,-1.0721,-1.0721,-1.0721,-1.0721,-1.0721,-1.0721,-1.0721,-1.0721,-1.0721,-1.0721,-1.0721,-1.0721,-1.0721,-1.0721,-1.0721,-1.0721,-1.0721,-1.0721,-1.0721,-1.0721,-1.0721,-1.0721,-1.0721,-1.0721,-1.0721,-1.0721,-1.0721,-1.0721,-1.0721,-1.0721,-1.0721,-1.0721,-1.0721,-1.0721,-1.0316,-0.9198,-1.0087,-1.1156,-1.1837,-1.2899,-1.4041,-1.5017,-1.5999,-1.6867,-1.7507,-1.7649,-1.7776,-1.7969,-1.8103,-1.8477,-1.9359,-1.9993,-2.0541,-2.1042,-2.1109,-2.1109,-2.1109,-2.1109,-2.1109,-2.1109,-2.1109,-2.1109,-2.1109,-2.1109,-2.1109,-2.1109,-2.1109,-2.1109,-2.1109,-2.1109,-2.1109,-2.1109,-2.1109,-2.1109,-2.1109,-2.1109,-2.1109,-2.1109,-2.1109,-2.1109,-2.1109,-2.1109,-2.1109,-2.1109,-2.1109,-2.1109,-2.1109,-2.1109,-2.1109,-2.1109,-2.1109,-2.1109,-2.1109,-2.1109,-2.0329,-1.9349,-1.9349,-1.8506,-1.7082,-1.4814,-1.4101,-1.3648,-1.1372,-1.0721,-1.0721,-1.0721,-1.0721,-1.0721,-1.0721,-1.0721,-1.0721,-1.0721,-1.0721,-1.0721,-1.0721,-1.0721,-1.0721,-1.0721,-1.0721,-1.0721,-1.0721,-1.0721,-1.0721,-1.0721,-1.0721,-1.0721,-1.0721,-1.0721,-1.0721,-1.0721,-1.0721,-1.0721,-1.0721,-1.0721,-1.0721,-1.0721,-1.0721,-1.0721,-1.0721,-1.0721,-1.0721,-1.0721,-1.0721,-1.0721,-1.0721,-1.0721,-1.0721,-1.0033,-1.0548,-1.1209,-1.2091,-1.3213,-1.4416,-1.5531,-1.6299,-1.7054,-1.8257,-1.825,-1.821,-1.8818,-1.8698,-1.8791,-1.9659,-2.0294,-2.0775,-2.1069,-2.1109,-2.1109,-2.1109,-2.1109,-2.1109,-2.1109,-2.1109,-2.1109,-2.1109,-2.1109,-2.1109,-2.1109,-2.1109,-2.1109,-2.1109,-2.1109,-2.1109,-2.1109,-2.1109,-2.1109,-2.1109,-2.1109,-2.1109,-2.1109,-2.1109,-2.1109,-2.1109,-2.1109,-2.1109,-2.1109,-2.1109,-2.1109,-2.1109,-2.1109,-2.1109,-2.1109,-2.1109,-2.1109,-2.1109,-2.1109,-2.1109,-2.1109,-2.1109,-2.1109,-2.0456,-1.6953,-1.5913,-1.52,-1.1699,-1.0721,-1.0721,-1.0721,-1.0721,-1.0721,-1.0721,-1.0721,-1.0721,-1.0721,-1.0721,-1.0721,-1.0721,-1.0721,-1.0721,-1.0721,-1.0721,-1.0721,-1.0721,-1.0721,-1.0721,-1.0721,-1.0721,-1.0721,-1.0721,-1.0721,-1.0721,-1.0721,-1.0721,-1.0721,-1.0721,-1.0721,-1.0721,-1.0721,-1.0721,-1.0721,-1.0721,-1.0721,-1.0721,-1.0721,-1.0721,-1.0721,-1.0721,-1.0721,-1.0721,-0.9786,-1.0727,-1.1824,-1.2719,-1.4295,-1.5872,-1.6587,-1.7208,-1.7909,-1.8905,-1.9032,-1.9018,-1.9199,-1.9332,-1.9566,-2.0034,-2.0428,-2.0775,-2.1069,-2.1109,-2.1109,-2.1109,-2.1109,-2.1109,-2.1109,-2.1109,-2.1109,-2.1109,-2.1109,-2.1109,-2.1109,-2.1109,-2.1109,-2.1109,-2.1109,-2.1109,-2.1109,-2.1109,-2.1109,-2.1109,-2.1109,-2.1109,-2.1109,-2.1109,-2.1109,-2.1109,-2.1109,-2.1109,-2.1109,-2.1109,-2.1109,-2.1109,-2.1109,-2.1109,-2.1109,-2.1109,-2.1109,-2.1109,-2.1109,-2.1109,-2.1109,-2.1109,-2.1109,-2.0652,-1.8442,-1.6888,-1.5399,-1.3128,-1.1633,-1.0721,-1.0721,-1.0721,-1.0721,-1.0721,-1.0721,-1.0721,-1.0721,-1.0721,-1.0721,-1.0721,-1.0721,-1.0721,-1.0721,-1.0721,-1.0721,-1.0721,-1.0721,-1.0721,-1.0721,-1.0721,-1.0721,-1.0721,-1.0721,-1.0721,-1.0721,-1.0721,-1.0721,-1.0721,-1.0721,-1.0721,-1.0721,-1.0721,-1.0721,-1.0721,-1.0721,-1.0721,-1.0721,-1.0721,-1.0721,-1.0721,-1.0721,-1.0721,-1.0774,-1.1672,-1.2699,-1.3941,-1.5271,-1.6603,-1.7609,-1.8123,-1.8597,-1.9379,-1.9352,-1.9299,-1.9646,-1.976,-1.9933,-2.0341,-2.0655,-2.0909,-2.1082,-2.1109,-2.1109,-2.1109,-2.1109,-2.1109,-2.1109,-2.1109,-2.1109,-2.1109,-2.1109,-2.1109,-2.1109,-2.1109,-2.1109,-2.1109,-2.1109,-2.1109,-2.1109,-2.1109,-2.1109,-2.1109,-2.1109,-2.1109,-2.1109,-2.1109,-2.1109,-2.1109,-2.1109,-2.1109,-2.1109,-2.1109,-2.1109,-2.1109,-2.1109,-2.1109,-2.1109,-2.1109,-2.1109,-2.1109,-2.1109,-2.1109,-2.1109,-2.1109,-2.1109,-2.0786,-1.903,-1.7795,-1.6436,-1.397,-1.2541,-1.1567,-1.085,-1.0721,-1.0721,-1.0721,-1.0721,-1.0721,-1.0721,-1.0721,-1.0721,-1.0721,-1.0721,-1.0721,-1.0721,-1.0721,-1.0721,-1.0721,-1.0721,-1.0721,-1.0721,-1.0721,-1.0721,-1.0721,-1.0721,-1.0721,-1.0721,-1.0721,-1.0721,-1.0721,-1.0721,-1.0721,-1.0721,-1.0721,-1.0721,-1.0721,-1.0721,-1.0721,-1.0721,-1.0721,-1.0721,-1.0721,-1.0721,-1.0721,-1.2288,-1.2913,-1.3634,-1.5345,-1.6152,-1.6907,-1.8551,-1.8945,-1.9112,-1.9653,-1.9359,-1.9245,-2.0047,-2.002,-2.0054,-2.0588,-2.0922,-2.1109,-2.1109,-2.1109,-2.1109,-2.1109,-2.1109,-2.1109,-2.1109,-2.1109,-2.1109,-2.1109,-2.1109,-2.1109,-2.1109,-2.1109,-2.1109,-2.1109,-2.1109,-2.1109,-2.1109,-2.1109,-2.1109,-2.1109,-2.1109,-2.1109,-2.1109,-2.1109,-2.1109,-2.1109,-2.1109,-2.1109,-2.1109,-2.1109,-2.1109,-2.1109,-2.1109,-2.1109,-2.1109,-2.1109,-2.1109,-2.1109,-2.1109,-2.1109,-2.1109,-2.1109,-2.1109,-2.0786,-1.9221,-1.864,-1.7859,-1.4684,-1.3517,-1.2935,-1.1372,-1.085,-1.0721,-1.0721,-1.0721,-1.0721,-1.0721,-1.0721,-1.0721,-1.0721,-1.0721,-1.0721,-1.0721,-1.0721,-1.0721,-1.0721,-1.0721,-1.0721,-1.0721,-1.0721,-1.0721,-1.0721,-1.0721,-1.0721,-1.0721,-1.0721,-1.0721,-1.0721,-1.0721,-1.0721,-1.0721,-1.0721,-1.0721,-1.0721,-1.0721,-1.0721,-1.0721,-1.0721,-1.0721,-1.0721,-1.0721,-1.0721,-1.1503,-1.2445,-1.3634,-1.5345,-1.6927,-1.8176,-1.8784,-1.9105,-1.9305,-1.9432,-1.9539,-1.9666,-1.986,-2.0221,-2.0528,-2.0655,-2.0922,-2.1109,-2.1109,-2.1109,-2.1109,-2.1109,-2.1109,-2.1109,-2.1109,-2.1109,-2.1109,-2.1109,-2.1109,-2.1109,-2.1109,-2.1109,-2.1109,-2.1109,-2.1109,-2.1109,-2.1109,-2.1109,-2.1109,-2.1109,-2.1109,-2.1109,-2.1109,-2.1109,-2.1109,-2.1109,-2.1109,-2.1109,-2.1109,-2.1109,-2.1109,-2.1109,-2.1109,-2.1109,-2.1109,-2.1109,-2.1109,-2.1109,-2.1109,-2.1109,-2.1109,-2.1109,-2.1109,-2.1046,-2.0652,-1.961,-1.8314,-1.7597,-1.5394,-1.3193,-1.2869,-1.1762,-1.0721,-1.0721,-1.0721,-1.0721,-1.0721,-1.0721,-1.0721,-1.0721,-1.0721,-1.0721,-1.0721,-1.0721,-1.0721,-1.0721,-1.0721,-1.0721,-1.0721,-1.0721,-1.0721,-1.0721,-1.0721,-1.0721,-1.0721,-1.0721,-1.0721,-1.0721,-1.0721,-1.0721,-1.0721,-1.0721,-1.0721,-1.0721,-1.0721,-1.0721,-1.0721,-1.0721,-1.0721,-1.0721,-1.0721,-1.0721,-1.175,-1.2726,-1.3908,-1.5952,-1.7375,-1.839,-1.8824,-1.9045,-1.9192,-1.9397,-1.9486,-1.9633,-1.9773,-2.0054,-2.0301,-2.0441,-2.0595,-2.0688,-2.0688,-2.0808,-2.0902,-2.0902,-2.1029,-2.1109,-2.1109,-2.1109,-2.1109,-2.1109,-2.1109,-2.1109,-2.1109,-2.1109,-2.1109,-2.1109,-2.1109,-2.1109,-2.1109,-2.1109,-2.1109,-2.1109,-2.1109,-2.1109,-2.1109,-2.1109,-2.1109,-2.1109,-2.1109,-2.1109,-2.1109,-2.1109,-2.1109,-2.1109,-2.1109,-2.1109,-2.1109,-2.1109,-2.1109,-2.1109,-2.1109,-2.1109,-2.1109,-2.1109,-2.1109,-2.1109,-2.1109,-2.0456,-1.9546,-1.8704,-1.656,-1.4362,-1.3517,-1.2025,-1.0721,-1.0721,-1.0721,-1.0721,-1.0721,-1.0721,-1.0721,-1.0721,-1.0721,-1.0721,-1.0721,-1.0721,-1.0721,-1.0721,-1.0721,-1.0721,-1.0721,-1.0721,-1.0721,-1.0721,-1.0721,-1.0721,-1.0721,-1.0721,-1.0721,-1.0721,-1.0721,-1.0721,-1.0721,-1.0721,-1.0721,-1.0721,-1.0721,-1.0721,-1.0721,-1.0721,-1.0721,-1.0721,-1.0721,-1.0721,-1.1966,-1.3066,-1.4279,-1.6576,-1.7522,-1.8049,-1.8595,-1.8851,-1.8991,-1.9239,-1.939,-1.9497,-1.9679,-1.9766,-1.988,-2.0114,-2.0201,-2.0173,-2.0173,-2.0441,-2.0601,-2.0601,-2.0808,-2.0975,-2.1029,-2.1036,-2.1056,-2.1109,-2.1109,-2.1109,-2.1109,-2.1109,-2.1109,-2.1109,-2.1109,-2.1109,-2.1109,-2.1109,-2.1109,-2.1109,-2.1109,-2.1109,-2.1109,-2.1109,-2.1109,-2.1109,-2.1109,-2.1109,-2.1109,-2.1109,-2.1109,-2.1109,-2.1109,-2.1109,-2.1109,-2.1109,-2.1109,-2.1109,-2.1109,-2.1109,-2.1109,-2.1109,-2.1109,-2.1109,-2.1109,-2.1109,-2.0786,-1.9349,-1.7667,-1.6043,-1.4553,-1.2672,-1.1178,-1.1178,-1.0916,-1.0721,-1.0721,-1.0721,-1.0721,-1.0721,-1.0721,-1.0721,-1.0721,-1.0721,-1.0721,-1.0721,-1.0721,-1.0721,-1.0721,-1.0721,-1.0721,-1.0721,-1.0721,-1.0721,-1.0721,-1.0721,-1.0721,-1.0721,-1.0721,-1.0721,-1.0721,-1.0721,-1.0721,-1.0721,-1.0721,-1.0721,-1.0721,-1.0721,-1.0721,-1.0721,-1.0721,-1.0721,-1.0613,-1.2592,-1.4783,-1.6366,-1.7208,-1.7736,-1.8029,-1.8502,-1.8931,-1.8978,-1.9185,-1.9437,-1.9477,-1.9633,-1.9813,-1.9853,-2.0067,-2.0173,-2.0173,-2.0267,-2.0294,-2.0294,-2.0327,-2.0448,-2.0708,-2.0735,-2.0842,-2.1089,-2.1109,-2.1109,-2.1109,-2.1109,-2.1109,-2.1109,-2.1109,-2.1109,-2.1109,-2.1109,-2.1109,-2.1109,-2.1109,-2.1109,-2.1109,-2.1109,-2.1109,-2.1109,-2.1109,-2.1109,-2.1109,-2.1109,-2.1109,-2.1109,-2.1109,-2.1109,-2.1109,-2.1109,-2.1109,-2.1109,-2.1109,-2.1109,-2.1109,-2.1109,-2.1109,-2.1109,-2.1109,-2.1109,-2.1046,-2.0849,-1.9483,-1.8116,-1.7859,-1.5399,-1.2931,-1.2931,-1.1828,-1.0721,-1.0721,-1.0721,-1.0721,-1.0721,-1.0721,-1.0721,-1.0721,-1.0721,-1.0721,-1.0721,-1.0721,-1.0721,-1.0721,-1.0721,-1.0721,-1.0721,-1.0721,-1.0721,-1.0721,-1.0721,-1.0721,-1.0721,-1.0721,-1.0721,-1.0721,-1.0721,-1.0721,-1.0721,-1.0721,-1.0721,-1.0721,-1.0721,-1.0721,-1.0721,-1.0721,-1.0721,-1.1076,-1.2759,-1.4339,-1.5845,-1.666,-1.7215,-1.7682,-1.8123,-1.8422,-1.8644,-1.8784,-1.8978,-1.9363,-1.9472,-1.9559,-1.9559,-1.9659,-1.9746,-1.9746,-1.9887,-1.9993,-1.9993,-2.0134,-2.0287,-2.0414,-2.0428,-2.0481,-2.0608,-2.0621,-2.0621,-2.0621,-2.0775,-2.0869,-2.0869,-2.1022,-2.1109,-2.1109,-2.1109,-2.1109,-2.1109,-2.1109,-2.1109,-2.1109,-2.1109,-2.1109,-2.1109,-2.1109,-2.1109,-2.1109,-2.1109,-2.1109,-2.1109,-2.1109,-2.1109,-2.1109,-2.1109,-2.1109,-2.1109,-2.1109,-2.1109,-2.1109,-2.1109,-2.1109,-2.1109,-2.1109,-2.1109,-2.1109,-2.1109,-1.9871,-1.8506,-1.8506,-1.5913,-1.339,-1.3718,-1.2219,-1.0721,-1.0721,-1.0721,-1.0721,-1.0721,-1.0721,-1.0721,-1.0721,-1.0721,-1.0721,-1.0721,-1.0721,-1.0721,-1.0721,-1.0721,-1.0721,-1.0721,-1.0721,-1.0721,-1.0721,-1.0721,-1.0721,-1.0721,-1.0721,-1.0721,-1.0721,-1.0721,-1.0721,-1.0721,-1.0721,-1.0721,-1.0721,-1.0721,-1.0721,-1.0721,-1.0721,-1.0721,-1.1102,-1.2291,-1.33,-1.4839,-1.5772,-1.644,-1.7101,-1.7602,-1.7989,-1.8217,-1.8384,-1.8624,-1.9065,-1.9205,-1.9279,-1.9417,-1.9424,-1.9424,-1.9424,-1.9553,-1.9693,-1.9693,-1.988,-2.004,-2.0114,-2.0127,-2.0154,-2.0167,-2.0173,-2.0173,-2.0173,-2.0441,-2.0568,-2.0568,-2.0775,-2.0922,-2.0995,-2.1076,-2.1109,-2.1109,-2.1109,-2.1109,-2.1109,-2.1109,-2.1109,-2.1109,-2.1109,-2.1109,-2.1109,-2.1109,-2.1109,-2.1109,-2.1109,-2.1109,-2.1109,-2.1109,-2.1109,-2.1109,-2.1109,-2.1109,-2.1109,-2.1109,-2.1109,-2.1109,-2.1109,-2.1109,-2.1109,-2.1109,-2.0132,-1.9158,-1.9158,-1.6888,-1.4749,-1.5209,-1.3652,-1.1762,-1.0916,-1.0721,-1.0721,-1.0721,-1.0721,-1.0721,-1.0721,-1.0721,-1.0721,-1.0721,-1.0721,-1.0721,-1.0721,-1.0721,-1.0721,-1.0721,-1.0721,-1.0721,-1.0721,-1.0721,-1.0721,-1.0721,-1.0721,-1.0721,-1.0721,-1.0721,-1.0721,-1.0721,-1.0721,-1.0721,-1.0721,-1.0721,-1.0721,-1.0721,-1.0721,-1.0721,-0.9588,-1.0461,-1.155,-1.3273,-1.4416,-1.5323,-1.6194,-1.6994,-1.7609,-1.7622,-1.809,-1.8504,-1.8531,-1.8764,-1.9038,-1.9325,-1.9424,-1.9424,-1.9424,-1.9379,-1.945,-1.945,-1.9406,-1.9519,-1.98,-1.982,-1.994,-2.0153,-2.0173,-2.0173,-2.0173,-2.0247,-2.0254,-2.0254,-2.0267,-2.0414,-2.0695,-2.0969,-2.1109,-2.1109,-2.1109,-2.1109,-2.1109,-2.1109,-2.1109,-2.1109,-2.1109,-2.1109,-2.1109,-2.1109,-2.1109,-2.1109,-2.1109,-2.1109,-2.1109,-2.1109,-2.1109,-2.1109,-2.1109,-2.1109,-2.1109,-2.1109,-2.1109,-2.1109,-2.1109,-2.1109,-2.1109,-2.1109,-2.1046,-2.0976,-2.0976,-1.961,-1.825,-1.825,-1.6888,-1.4749,-1.1439,-1.0721,-1.0721,-1.0721,-1.0721,-1.0721,-1.0721,-1.0721,-1.0721,-1.0721,-1.0721,-1.0721,-1.0721,-1.0721,-1.0721,-1.0721,-1.0721,-1.0721,-1.0721,-1.0721,-1.0721,-1.0721,-1.0721,-1.0721,-1.0721,-1.0721,-1.0721,-1.0721,-1.0721,-1.0721,-1.0721,-1.0721,-1.0721,-1.0721,-1.0721,-1.0721,-0.9392,-1.0047,-1.0808,-1.2385,-1.3601,-1.4626,-1.5323,-1.6259,-1.7074,-1.7313,-1.7534,-1.7749,-1.8136,-1.845,-1.8677,-1.8784,-1.8958,-1.9085,-1.9085,-1.9245,-1.9424,-1.9424,-1.9424,-1.9464,-1.9512,-1.9519,-1.9566,-1.9673,-1.9679,-1.9679,-1.9679,-1.9853,-1.9953,-1.9953,-2.0134,-2.0374,-2.0675,-2.0782,-2.0922,-2.1109,-2.1109,-2.1109,-2.1109,-2.1109,-2.1109,-2.1109,-2.1109,-2.1109,-2.1109,-2.1109,-2.1109,-2.1109,-2.1109,-2.1109,-2.1109,-2.1109,-2.1109,-2.1109,-2.1109,-2.1109,-2.1109,-2.1109,-2.1109,-2.1109,-2.1109,-2.1109,-2.1109,-2.1109,-2.1109,-2.1109,-2.1109,-1.9807,-1.825,-1.7082,-1.5789,-1.4367,-1.2738,-1.1501,-1.0721,-1.0721,-1.0721,-1.0721,-1.0721,-1.0721,-1.0721,-1.0721,-1.0721,-1.0721,-1.0721,-1.0721,-1.0721,-1.0721,-1.0721,-1.0721,-1.0721,-1.0721,-1.0721,-1.0721,-1.0721,-1.0721,-1.0721,-1.0721,-1.0721,-1.0721,-1.0721,-1.0721,-1.0721,-1.0721,-1.0721,-1.0721,-1.0721,-1.0721,-0.8884,-0.9452,-1.0143,-1.1643,-1.2532,-1.336,-1.4549,-1.5418,-1.6112,-1.66,-1.6911,-1.7121,-1.7522,-1.7842,-1.8136,-1.8437,-1.8651,-1.8778,-1.8778,-1.8951,-1.9072,-1.9072,-1.9158,-1.9219,-1.9219,-1.9305,-1.9424,-1.9424,-1.9424,-1.9424,-1.9424,-1.9553,-1.9659,-1.9659,-1.994,-2.018,-2.0381,-2.0481,-2.0628,-2.0815,-2.0915,-2.0962,-2.0969,-2.1069,-2.1109,-2.1109,-2.1109,-2.1109,-2.1109,-2.1109,-2.1109,-2.1109,-2.1109,-2.1109,-2.1109,-2.1109,-2.1109,-2.1109,-2.1109,-2.1109,-2.1109,-2.1109,-2.1109,-2.1109,-2.1109,-2.1109,-2.1109,-2.1109,-2.1109,-2.1109,-2.1109,-2.0259,-1.9088,-1.7923,-1.663,-1.5399,-1.4362,-1.2347,-1.0721,-1.0721,-1.0721,-1.0721,-1.0721,-1.0721,-1.0721,-1.0721,-1.0721,-1.0721,-1.0721,-1.0721,-1.0721,-1.0721,-1.0721,-1.0721,-1.0721,-1.0721,-1.0721,-1.0721,-1.0721,-1.0721,-1.0721,-1.0721,-1.0721,-1.0721,-1.0721,-1.0721,-1.0721,-1.0721,-1.0721,-1.0721,-1.0721,-1.0382,0.0,0.0,0.0,-1.0976,-1.1169,-1.1583,-1.3901,-1.4399,-1.4665,-1.5571,-1.6246,-1.6653,-1.67,-1.6991,-1.7474,-1.8297,-1.8464,-1.8477,-1.8477,-1.8484,-1.849,-1.849,-1.8738,-1.8911,-1.8911,-1.9178,-1.941,-1.941,-1.9366,-1.9424,-1.9424,-1.9424,-1.9424,-1.9424,-1.9639,-1.9793,-1.98,-2.008,-2.0167,-2.0173,-2.0528,-2.0661,-2.0675,-2.0955,-2.1089,-2.1096,-2.1096,-2.1102,-2.1109,-2.1109,-2.1109,-2.1109,-2.1109,-2.1109,-2.1109,-2.1109,-2.1109,-2.1109,-2.1109,-2.1109,-2.1109,-2.1109,-2.1109,-2.1109,-2.1109,-2.1109,-2.1109,-2.1109,-2.1109,-2.1109,-2.1109,-2.1109,-2.1109,-2.1109,-1.9744,-1.7988,-1.6302,-1.3193,-1.0784,-1.0721,-1.0721,-1.0721,-1.0721,-1.0721,-1.0721,-1.0721,-1.0721,-1.0721,-1.0721,-1.0721,-1.0721,-1.0721,-1.0721,-1.0721,-1.0721,-1.0721,-1.0721,-1.0721,-1.0721,-1.0721,-1.0721,-1.0721,-1.0721,-1.0721,-1.0721,-1.0721,-1.0721,-1.0721,-1.0721,-1.0721,-1.0721,-0.9775,-0.831,0.0,0.0,0.0,0.0,0.0,-1.2037,-1.2612,-1.3353,-1.489,-1.5164,-1.5451,-1.6506,-1.6774,-1.6914,-1.7161,-1.7742,-1.8115,-1.8115,-1.8357,-1.849,-1.849,-1.8564,-1.8611,-1.8611,-1.8878,-1.9045,-1.9045,-1.9245,-1.9424,-1.9424,-1.9424,-1.9424,-1.9424,-1.9446,-1.9586,-1.98,-1.988,-2.0027,-2.0173,-2.0314,-2.0354,-2.0361,-2.0441,-2.0595,-2.0795,-2.0795,-2.0915,-2.1109,-2.1109,-2.1109,-2.1109,-2.1109,-2.1109,-2.1109,-2.1109,-2.1109,-2.1109,-2.1109,-2.1109,-2.1109,-2.1109,-2.1109,-2.1109,-2.1109,-2.1109,-2.1109,-2.1109,-2.1109,-2.1109,-2.1109,-2.1109,-2.1109,-2.1109,-1.9744,-1.7988,-1.6302,-1.4166,-1.2219,-1.0913,-1.0721,-1.0721,-1.0721,-1.0721,-1.0721,-1.0721,-1.0721,-1.0721,-1.0721,-1.0721,-1.0721,-1.0721,-1.0721,-1.0721,-1.0721,-1.0721,-1.0721,-1.0721,-1.0721,-1.0721,-1.0721,-1.0721,-1.0721,-1.0721,-1.0721,-1.0721,-1.0721,-1.0721,-1.0721,-1.0721,-1.0721,-1.0449,-0.9025,-0.9259,-0.9664,-1.003,0.0,0.0,-1.155,-1.1777,-1.2225,-1.3888,-1.4188,-1.4446,-1.5591,-1.5999,-1.6199,-1.6319,-1.6936,-1.7528,-1.7655,-1.7822,-1.7976,-1.8096,-1.823,-1.8303,-1.8303,-1.8571,-1.8744,-1.8744,-1.8905,-1.9058,-1.9178,-1.9185,-1.9239,-1.9424,-1.9424,-1.9511,-1.9619,-1.9619,-1.97,-1.9873,-1.9993,-2.0054,-2.0054,-2.018,-2.0327,-2.0494,-2.0494,-2.0588,-2.0755,-2.0875,-2.1002,-2.1109,-2.1109,-2.1109,-2.1109,-2.1109,-2.1109,-2.1109,-2.1109,-2.1109,-2.1109,-2.1109,-2.1109,-2.1109,-2.1109,-2.1109,-2.1109,-2.1109,-2.1109,-2.1109,-2.1109,-2.1109,-2.1109,-2.1109,-2.0329,-1.8896,-1.6436,-1.507,-1.3643,-1.1178,-1.0721,-1.0721,-1.0721,-1.0721,-1.0721,-1.0721,-1.0721,-1.0721,-1.0721,-1.0721,-1.0721,-1.0721,-1.0721,-1.0721,-1.0721,-1.0721,-1.0721,-1.0721,-1.0721,-1.0721,-1.0721,-1.0721,-1.0721,-1.0721,-1.0721,-1.0721,-1.0721,-1.0721,-1.0721,-1.0721,-1.0721,-1.0721,-0.9967,-1.0114,0.0,-1.1136,-1.0648,0.0,-1.1697,-1.1456,-1.1329,-1.2685,-1.3107,-1.3467,-1.4195,-1.4776,-1.5251,-1.5491,-1.6106,-1.6647,-1.7099,-1.7152,-1.7246,-1.7455,-1.7729,-1.7856,-1.7889,-1.8217,-1.8404,-1.8437,-1.847,-1.8604,-1.8865,-1.8905,-1.9045,-1.937,-1.941,-1.9424,-1.9424,-1.9424,-1.9424,-1.943,-1.9626,-1.9753,-1.976,-2.002,-2.0154,-2.0187,-2.0187,-2.014,-2.0193,-2.0514,-2.0802,-2.1069,-2.1096,-2.1109,-2.1109,-2.1109,-2.1109,-2.1109,-2.1109,-2.1109,-2.1109,-2.1109,-2.1109,-2.1109,-2.1109,-2.1109,-2.1109,-2.1109,-2.1109,-2.1109,-2.1109,-2.1109,-2.1109,-2.1109,-2.1109,-2.0195,-1.6888,-1.6043,-1.4944,-1.1633,-1.085,-1.0721,-1.0721,-1.0721,-1.0721,-1.0721,-1.0721,-1.0721,-1.0721,-1.0721,-1.0721,-1.0721,-1.0721,-1.0721,-1.0721,-1.0721,-1.0721,-1.0721,-1.0721,-1.0721,-1.0721,-1.0721,-1.0721,-1.0721,-1.0721,-1.0721,-1.0721,-1.0721,-1.0721,-1.0721,-1.0721,-1.0721,-1.1196,-1.147,-1.169,-1.0955,-1.1263,0.0,-1.0441,-1.0459,-1.0827,-1.1316,-1.1283,-1.1591,-1.2891,-1.3394,-1.3734,-1.3979,-1.4763,-1.5651,-1.6653,-1.6794,-1.6814,-1.6867,-1.6927,-1.7061,-1.7353,-1.7589,-1.7862,-1.8062,-1.8357,-1.8517,-1.8577,-1.8798,-1.8951,-1.9011,-1.9239,-1.9424,-1.9424,-1.9424,-1.9424,-1.9424,-1.9426,-1.9511,-1.9452,-1.9512,-1.9659,-1.9887,-1.9887,-2.0013,-2.0234,-2.0294,-2.0494,-2.0782,-2.1022,-2.1109,-2.1109,-2.1109,-2.1109,-2.1109,-2.1109,-2.1109,-2.1109,-2.1109,-2.1109,-2.1109,-2.1109,-2.1109,-2.1109,-2.1109,-2.1109,-2.1109,-2.1109,-2.1109,-2.1109,-2.1109,-2.1109,-2.0519,-1.8442,-1.6888,-1.5269,-1.3193,-1.1633,-1.0721,-1.0721,-1.0721,-1.0721,-1.0721,-1.0721,-1.0721,-1.0721,-1.0721,-1.0721,-1.0721,-1.0721,-1.0721,-1.0721,-1.0721,-1.0721,-1.0721,-1.0721,-1.0721,-1.0721,-1.0721,-1.0721,-1.0721,-1.0721,-1.0721,-1.0721,-1.0721,-1.0721,-1.0721,-1.0721,-1.0721,-1.2245,-1.2335,-1.2455,-1.2027,-1.1984,0.0,0.0,-1.0801,-1.0841,-1.1725,-1.1203,-1.1042,-1.2516,-1.2752,-1.2852,-1.3146,-1.4062,-1.4843,-1.5137,-1.5932,-1.6547,-1.6687,-1.6707,-1.6767,-1.6914,-1.7061,-1.7275,-1.7575,-1.7742,-1.7956,-1.8257,-1.8404,-1.8562,-1.8911,-1.9065,-1.9219,-1.9424,-1.9424,-1.9424,-1.9424,-1.9424,-1.9424,-1.9424,-1.9424,-1.9446,-1.9586,-1.9586,-1.9666,-1.9813,-1.996,-2.0107,-2.0267,-2.0561,-2.0668,-2.0688,-2.0835,-2.0895,-2.0915,-2.1056,-2.1109,-2.1109,-2.1109,-2.1109,-2.1109,-2.1109,-2.1109,-2.1109,-2.1109,-2.1109,-2.1109,-2.1109,-2.1109,-2.1109,-2.1109,-2.1109,-2.0589,-1.8896,-1.7146,-1.5399,-1.3648,-1.1894,-1.0721,-1.0721,-1.0721,-1.0721,-1.0721,-1.0721,-1.0721,-1.0721,-1.0721,-1.0721,-1.0721,-1.0721,-1.0721,-1.0721,-1.0721,-1.0721,-1.0721,-1.0721,-1.0721,-1.0721,-1.0721,-1.0721,-1.0721,-1.0721,-1.0721,-1.0721,-1.0721,-1.0721,-1.0721,-1.0721,-1.0721,-1.336,-1.3253,-1.3286,-1.322,-1.2832,-1.2429,0.0,0.0,0.0,-1.2161,-1.1417,-1.0975,-1.2214,-1.2201,-1.2064,-1.2395,-1.3353,-1.3908,-1.3333,-1.4676,-1.5792,-1.6079,-1.6266,-1.6393,-1.6446,-1.6453,-1.6627,-1.7085,-1.6958,-1.7121,-1.7836,-1.7876,-1.8149,-1.8738,-1.8865,-1.9038,-1.9279,-1.9397,-1.9424,-1.9424,-1.9424,-1.9424,-1.9424,-1.9424,-1.9424,-1.9424,-1.9424,-1.9424,-1.9444,-1.9619,-1.972,-1.9746,-2.01,-2.0173,-2.02,-2.0501,-2.0588,-2.0628,-2.0922,-2.1029,-2.1036,-2.1089,-2.1109,-2.1109,-2.1109,-2.1109,-2.1109,-2.1109,-2.1109,-2.1109,-2.1109,-2.1109,-2.1109,-2.1109,-2.1109,-2.0716,-1.9285,-1.7339,-1.5459,-1.4101,-1.2088,-1.0721,-1.0721,-1.0721,-1.0721,-1.0721,-1.0721,-1.0721,-1.0721,-1.0721,-1.0721,-1.0721,-1.0721,-1.0721,-1.0721,-1.0721,-1.0721,-1.0721,-1.0721,-1.0721,-1.0721,-1.0721,-1.0721,-1.0721,-1.0721,-1.0721,-1.0721,-1.0721,-1.0721,-1.0721,-1.0721,-1.0721,-1.4841,-1.4903,-1.479,-1.3527,-1.3915,-1.4043,-1.167,0.0,-1.1857,-1.1022,0.0,-1.072,-1.1116,0.0,0.0,-1.1142,-1.1957,-1.2438,-1.2154,-1.2933,-1.3667,-1.3913,-1.4683,-1.531,-1.5518,-1.5545,-1.5879,-1.6693,-1.6032,-1.6079,-1.7246,-1.7495,-1.7796,-1.8082,-1.8595,-1.8938,-1.8978,-1.9232,-1.9424,-1.9424,-1.9424,-1.9424,-1.9424,-1.9424,-1.9424,-1.9424,-1.9424,-1.9424,-1.943,-1.9406,-1.9477,-1.9472,-2.002,-2.0173,-2.0173,-2.0267,-2.0287,-2.0327,-2.0621,-2.0728,-2.0768,-2.1029,-2.1109,-2.1109,-2.1109,-2.1109,-2.1109,-2.1109,-2.1109,-2.1109,-2.1109,-2.1109,-2.1109,-2.1109,-2.1109,-2.1046,-2.0849,-1.825,-1.5854,-1.5654,-1.2931,-1.0721,-1.0721,-1.0721,-1.0721,-1.0721,-1.0721,-1.0721,-1.0721,-1.0721,-1.0721,-1.0721,-1.0721,-1.0721,-1.0721,-1.0721,-1.0721,-1.0721,-1.0721,-1.0721,-1.0721,-1.0721,-1.0721,-1.0721,-1.0721,-1.0721,-1.0721,-1.0721,-1.0721,-1.0721,-1.0721,-1.0721,-1.5089,-1.5102,-1.4957,-1.4168,-1.4082,-1.3861,-1.2572,-1.2164,-1.2094,-1.2091,0.0,0.0,0.0,0.0,0.0,0.0,-1.1196,-1.1383,-1.0915,-1.1617,-1.2478,-1.3253,-1.3561,-1.397,-1.4576,-1.4482,-1.4816,-1.5865,-1.5291,-1.5398,-1.663,-1.7132,-1.7468,-1.7769,-1.8135,-1.8522,-1.8918,-1.9045,-1.9199,-1.9424,-1.9424,-1.9424,-1.9424,-1.9424,-1.9424,-1.9424,-1.9424,-1.9424,-1.9424,-1.9424,-1.9424,-1.9392,-1.9633,-1.9733,-1.9746,-1.992,-1.998,-2.0027,-2.0314,-2.0421,-2.0468,-2.0762,-2.0969,-2.1109,-2.1109,-2.1109,-2.1109,-2.1109,-2.1109,-2.1109,-2.1109,-2.1109,-2.1109,-2.1109,-2.1109,-2.1109,-2.1109,-1.9158,-1.7082,-1.6113,-1.3905,-1.1894,-1.085,-1.0721,-1.0721,-1.0721,-1.0721,-1.0721,-1.0721,-1.0721,-1.0721,-1.0721,-1.0721,-1.0721,-1.0721,-1.0721,-1.0721,-1.0721,-1.0721,-1.0721,-1.0721,-1.0721,-1.0721,-1.0721,-1.0721,-1.0721,-1.0721,-1.0721,-1.0721,-1.0721,-1.0721,-1.0721,-1.5257,-1.5204,-1.505,-1.4436,-1.3979,-1.356,-1.2979,-1.2532,-1.2398,-1.2966,-1.2358,0.0,0.0,0.0,-1.0995,0.0,0.0,-1.0762,-1.0094,-1.0548,-1.1329,-1.2358,-1.2603,-1.2951,-1.3688,-1.3307,-1.3553,-1.4937,-1.4342,-1.4569,-1.6072,-1.6683,-1.7132,-1.7507,-1.7842,-1.8195,-1.8621,-1.8844,-1.9032,-1.9245,-1.9383,-1.9424,-1.9424,-1.9424,-1.9424,-1.9424,-1.9424,-1.9424,-1.9424,-1.9424,-1.9424,-1.9424,-1.9424,-1.9424,-1.9392,-1.9606,-1.9679,-1.9726,-2.0013,-2.0167,-2.0267,-2.0481,-2.0755,-2.0989,-2.0989,-2.1049,-2.1109,-2.1109,-2.1109,-2.1109,-2.1109,-2.1109,-2.1109,-2.1109,-2.1109,-2.1109,-2.1109,-1.9744,-1.7988,-1.6237,-1.4488,-1.2738,-1.0979,-1.0721,-1.0721,-1.0721,-1.0721,-1.0721,-1.0721,-1.0721,-1.0721,-1.0721,-1.0721,-1.0721,-1.0721,-1.0721,-1.0721,-1.0721,-1.0721,-1.0721,-1.0721,-1.0721,-1.0721,-1.0721,-1.0721,-1.0721,-1.0721,-1.0721,-1.0721,-1.0721,-1.0721,-1.0721,-1.5758,-1.5751,-1.5411,-1.3986,-1.3874,-1.3694,-1.2281,-1.2559,-1.3086,-1.2857,-1.3186,-1.344,-1.3227,-1.2665,0.0,0.0,0.0,0.0,0.0,-0.9726,-0.9997,-1.0606,-1.1637,-1.2438,-1.2797,-1.2004,-1.2225,-1.3995,-1.3039,-1.3387,-1.5671,-1.6132,-1.6616,-1.7199,-1.7736,-1.8002,-1.8022,-1.8582,-1.8925,-1.8945,-1.9232,-1.9424,-1.9424,-1.9424,-1.9424,-1.9424,-1.9424,-1.9424,-1.9424,-1.9424,-1.9424,-1.9424,-1.9424,-1.9424,-1.9424,-1.9437,-1.9379,-1.9419,-1.9713,-2.0,-2.0173,-2.018,-2.0448,-2.0688,-2.0688,-2.0882,-2.1109,-2.1109,-2.1109,-2.1109,-2.1109,-2.1109,-2.1109,-2.1109,-2.1109,-2.1109,-2.1109,-1.9744,-1.7988,-1.6237,-1.4488,-1.2738,-1.0979,-1.0721,-1.0721,-1.0721,-1.0721,-1.0721,-1.0721,-1.0721,-1.0721,-1.0721,-1.0721,-1.0721,-1.0721,-1.0721,-1.0721,-1.0721,-1.0721,-1.0721,-1.0721,-1.0721,-1.0721,-1.0721,-1.0721,-1.0721,-1.0721,-1.0721,-1.0721,-1.0721,-1.0721,-1.0721,-1.6015,-1.5784,-1.5618,-1.4736,-1.4302,-1.3854,-1.2959,-1.2993,-1.3066,-1.2559,-1.3086,-1.3453,-1.3032,-1.2572,0.0,0.0,0.0,0.0,0.0,-0.9364,-0.9539,-0.9963,-1.0842,-1.1403,-1.1343,-1.1236,-1.171,-1.3139,-1.2864,-1.3414,-1.5164,-1.5953,-1.6453,-1.684,-1.7241,-1.7642,-1.7989,-1.8189,-1.8482,-1.8925,-1.9025,-1.9178,-1.9424,-1.9424,-1.9424,-1.9424,-1.9424,-1.9424,-1.9424,-1.9424,-1.9424,-1.9424,-1.9424,-1.9424,-1.9424,-1.9424,-1.9424,-1.9379,-1.9479,-1.97,-1.9947,-1.9947,-2.0147,-2.0421,-2.0615,-2.0742,-2.0862,-2.1056,-2.1109,-2.1109,-2.1109,-2.1109,-2.1109,-2.1109,-2.1109,-2.1109,-2.1109,-2.0652,-1.9355,-1.6431,-1.5399,-1.4101,-1.1178,-1.0721,-1.0721,-1.0721,-1.0721,-1.0721,-1.0721,-1.0721,-1.0721,-1.0721,-1.0721,-1.0721,-1.0721,-1.0721,-1.0721,-1.0721,-1.0721,-1.0721,-1.0721,-1.0721,-1.0721,-1.0721,-1.0721,-1.0721,-1.0721,-1.0721,-1.0721,-1.0721,-1.0721,-1.0721,-1.7343,-1.6796,-1.6306,-1.562,-1.4939,-1.4162,-1.3253,-1.3293,-1.338,-1.2886,-1.328,-1.3748,-1.3608,-1.3079,0.0,0.0,0.0,0.0,0.0,-0.9237,-0.9364,-0.9372,-1.0084,-1.0534,-1.0586,-1.0441,-1.0942,-1.2368,-1.2375,-1.3052,-1.4716,-1.5538,-1.6192,-1.6693,-1.7045,-1.7388,-1.7876,-1.7935,-1.8182,-1.8555,-1.8718,-1.8925,-1.9205,-1.9205,-1.9265,-1.9424,-1.9424,-1.9424,-1.9424,-1.9424,-1.9424,-1.9424,-1.9424,-1.9424,-1.9424,-1.9424,-1.9424,-1.9424,-1.9424,-1.9492,-1.9646,-1.9646,-1.9846,-2.0134,-2.0428,-2.0595,-2.0735,-2.1029,-2.1109,-2.1109,-2.1109,-2.1109,-2.1109,-2.1109,-2.1109,-2.1109,-2.1109,-2.0589,-1.9355,-1.6431,-1.5394,-1.4101,-1.1178,-1.0721,-1.0721,-1.0721,-1.0721,-1.0721,-1.0721,-1.0721,-1.0721,-1.0721,-1.0721,-1.0721,-1.0721,-1.0721,-1.0721,-1.0721,-1.0721,-1.0721,-1.0721,-1.0721,-1.0721,-1.0721,-1.0721,-1.0721,-1.0721,-1.0721,-1.0721,-1.0721,-1.0721,-1.0721]},{"header":{"parameterUnit":"m.s-1","parameterCategory":1,"la1":30.6,"la2":29.2853,"lo1":-89.7004,"lo2":-87.6739,"dy":0.0162,"dx":0.0183,"nx":112,"ny":82,"refTime":"2024-08-23T00:00:00:Z","depth":0,"parameterNumber":3,"parameterNumberName":"V-component_of_WINDS"},"data":[0.0,0.0,0.0,0.0,0.0,0.0,0.0,0.0,0.0,0.0,0.0,0.0,0.0,0.0,0.0,0.0,0.0,0.0,0.0,0.0,0.0,0.0,0.0,0.0,0.0,0.0,0.0,0.0,0.0,0.0,0.0,0.0,0.0,0.0,0.0,0.0,0.0,0.0,0.0,0.0,0.0,0.0,0.0,0.0,0.0,0.0,0.0,0.0,0.0,0.0,0.0,0.0,0.0,0.0,0.0,0.0,0.0,0.0,0.0,0.0,0.0,0.0,0.0,0.0,0.0,0.0,0.0,0.0,0.0,0.0,0.0,0.0,0.0,0.0,0.0,0.0,0.0,0.0,0.0,0.0,0.0,0.0,0.0,0.0,0.0,0.0,0.0,0.0,0.0,0.0,2.7514,3.0853,3.6169,3.9496,3.9496,3.885,3.6136,3.0628,0.0,0.0,0.0,0.0,0.0,0.0,0.0,0.0,0.0,0.0,0.0,0.0,0.0,0.0,0.0,0.0,0.0,0.0,0.0,0.0,0.0,0.0,0.0,0.0,0.0,0.0,0.0,0.0,0.0,0.0,0.0,0.0,0.0,0.0,0.0,0.0,0.0,0.0,0.0,0.0,0.0,0.0,0.0,0.0,0.0,0.0,0.0,0.0,0.0,0.0,0.0,0.0,0.0,0.0,0.0,0.0,0.0,0.0,0.0,0.0,0.0,0.0,0.0,0.0,0.0,0.0,0.0,0.0,0.0,0.0,0.0,0.0,0.0,0.0,0.0,0.0,0.0,0.0,0.0,0.0,0.0,0.0,0.0,0.0,0.0,0.0,0.0,0.0,0.0,0.0,0.0,0.0,0.0,0.0,0.0,0.0,0.0,0.0,0.0,0.0,0.0,0.0,0.0,0.0,2.8099,3.4979,3.8481,4.0323,4.0323,3.8285,3.5584,3.2222,0.0,0.0,0.0,0.0,0.0,0.0,0.0,0.0,0.0,0.0,0.0,0.0,0.0,0.0,0.0,0.0,0.0,0.0,0.0,0.0,0.0,0.0,0.0,0.0,0.0,0.0,0.0,0.0,0.0,0.0,0.0,0.0,0.0,0.0,0.0,0.0,0.0,0.0,0.0,0.0,0.0,0.0,0.0,0.0,0.0,0.0,0.0,0.0,0.0,0.0,0.0,0.0,0.0,0.0,0.0,0.0,0.0,0.0,0.0,0.0,0.0,0.0,0.0,0.0,0.0,0.0,0.0,0.0,0.0,0.0,0.0,0.0,0.0,0.0,0.0,0.0,0.0,0.0,0.0,0.0,0.0,0.0,0.0,0.0,0.0,0.0,0.0,0.0,0.0,0.0,0.0,0.0,0.0,0.0,0.0,0.0,0.0,0.0,0.0,0.0,0.0,0.0,0.0,2.8076,3.1468,3.6834,3.9258,4.0323,3.99,3.8354,3.5776,3.1938,2.8061,0.0,0.0,0.0,0.0,0.0,0.0,0.0,0.0,0.0,0.0,0.0,0.0,0.0,0.0,0.0,0.0,0.0,0.0,0.0,0.0,0.0,0.0,0.0,0.0,0.0,0.0,0.0,0.0,0.0,0.0,0.0,0.0,0.0,0.0,0.0,0.0,0.0,0.0,0.0,0.0,0.0,0.0,0.0,0.0,0.0,0.0,0.0,0.0,0.0,0.0,0.0,0.0,0.0,0.0,0.0,0.0,0.0,0.0,0.0,0.0,0.0,0.0,0.0,0.0,0.0,0.0,0.0,0.0,0.0,0.0,0.0,0.0,0.0,0.0,0.0,0.0,0.0,0.0,0.0,0.0,0.0,0.0,0.0,0.0,0.0,0.0,0.0,0.0,0.0,0.0,0.0,0.0,0.0,0.0,0.0,0.0,0.0,0.0,0.0,0.0,0.0,0.0,3.2212,3.4737,3.795,3.9631,4.0169,3.9381,3.795,3.5304,3.1084,2.6595,0.0,0.0,0.0,0.0,0.0,0.0,0.0,0.0,0.0,0.0,0.0,0.0,0.0,0.0,0.0,0.0,0.0,0.0,0.0,0.0,0.0,0.0,0.0,0.0,0.0,0.0,0.0,0.0,0.0,0.0,0.0,0.0,0.0,0.0,0.0,0.0,0.0,0.0,0.0,0.0,0.0,0.0,0.0,0.0,0.0,0.0,0.0,0.0,0.0,0.0,0.0,0.0,0.0,0.0,0.0,0.0,0.0,0.0,0.0,0.0,0.0,0.0,0.0,0.0,0.0,0.0,0.0,0.0,0.0,0.0,0.0,0.0,0.0,0.0,0.0,0.0,0.0,0.0,0.0,0.0,0.0,0.0,0.0,0.0,0.0,0.0,0.0,0.0,0.0,0.0,0.0,0.0,0.0,0.0,0.0,0.0,0.0,0.0,0.0,0.0,0.0,0.0,3.3288,3.6315,3.8938,3.9977,4.0169,3.9381,3.6341,3.3175,3.017,2.4619,0.0,0.0,0.0,0.0,0.0,0.0,0.0,0.0,0.0,0.0,0.0,0.0,0.0,0.0,0.0,0.0,0.0,0.0,0.0,0.0,0.0,0.0,0.0,0.0,0.0,0.0,0.0,0.0,0.0,0.0,0.0,0.0,0.0,0.0,0.0,0.0,0.0,0.0,0.0,0.0,0.0,0.0,0.0,0.0,0.0,0.0,0.0,0.0,0.0,0.0,0.0,0.0,0.0,0.0,0.0,0.0,0.0,0.0,0.0,0.0,0.0,0.0,0.0,0.0,0.0,0.0,0.0,0.0,0.0,0.0,0.0,0.0,0.0,0.0,0.0,0.0,0.0,0.0,0.0,0.0,0.0,0.0,0.0,0.0,0.0,0.0,0.0,0.0,0.0,0.0,0.0,0.0,0.0,0.0,0.0,0.0,0.0,0.0,0.0,0.0,0.0,0.0,3.3385,3.6481,3.9034,4.0015,3.9958,3.8604,3.6815,3.3894,2.9484,0.0,0.0,0.0,0.0,0.0,0.0,0.0,0.0,0.0,0.0,0.0,0.0,0.0,0.0,0.0,0.0,0.0,0.0,0.0,0.0,0.0,0.0,0.0,0.0,0.0,0.0,0.0,0.0,0.0,0.0,0.0,0.0,0.0,0.0,0.0,0.0,0.0,0.0,0.0,0.0,0.0,0.0,0.0,0.0,0.0,0.0,0.0,0.0,0.0,0.0,0.0,0.0,0.0,0.0,0.0,0.0,0.0,0.0,0.0,0.0,0.0,0.0,0.0,0.0,0.0,0.0,0.0,0.0,0.0,0.0,0.0,0.0,0.0,0.0,0.0,0.0,0.0,0.0,0.0,0.0,0.0,0.0,0.0,0.0,0.0,0.0,0.0,0.0,0.0,0.0,0.0,0.0,0.0,0.0,0.0,0.0,0.0,0.0,0.0,0.0,0.0,0.0,3.05,3.3942,3.6873,3.9419,4.0169,3.9823,3.8142,3.6469,3.3473,2.8721,0.0,0.0,0.0,0.0,0.0,0.0,0.0,0.0,0.0,0.0,0.0,0.0,0.0,0.0,0.0,0.0,0.0,0.0,0.0,0.0,0.0,0.0,0.0,0.0,0.0,0.0,0.0,0.0,0.0,0.0,0.0,0.0,0.0,0.0,0.0,0.0,0.0,0.0,0.0,0.0,0.0,0.0,0.0,0.0,0.0,0.0,0.0,0.0,0.0,0.0,0.0,0.0,0.0,0.0,0.0,0.0,0.0,0.0,0.0,0.0,0.0,0.0,0.0,0.0,0.0,0.0,0.0,0.0,0.0,0.0,0.0,0.0,0.0,0.0,0.0,0.0,0.0,0.0,0.0,0.0,0.0,0.0,0.0,0.0,0.0,0.0,0.0,0.0,0.0,0.0,0.0,0.0,0.0,0.0,0.0,0.0,0.0,0.0,0.0,0.0,0.0,0.0,3.2141,3.5141,3.77,4.0227,4.0496,3.9823,3.8142,3.4872,3.1405,0.0,0.0,0.0,0.0,0.0,0.0,0.0,0.0,0.0,0.0,0.0,0.0,0.0,0.0,0.0,0.0,0.0,0.0,0.0,0.0,0.0,0.0,0.0,0.0,0.0,0.0,0.0,0.0,0.0,0.0,0.0,0.0,0.0,0.0,0.0,0.0,0.0,0.0,0.0,0.0,0.0,0.0,0.0,0.0,0.0,0.0,0.0,0.0,0.0,0.0,0.0,0.0,0.0,0.0,0.0,0.0,0.0,0.0,0.0,0.0,0.0,0.0,0.0,0.0,0.0,0.0,0.0,0.0,0.0,0.0,0.0,0.0,0.0,0.0,0.0,0.0,0.0,0.0,0.0,0.0,0.0,0.0,0.0,0.0,0.0,0.0,0.0,0.0,0.0,0.0,0.0,0.0,0.0,0.0,0.0,0.0,0.0,0.0,0.0,0.0,0.0,0.0,0.0,3.2218,3.5661,3.8354,4.0285,4.0496,3.9823,3.8142,3.5988,3.2756,2.8096,0.0,0.0,0.0,0.0,0.0,0.0,0.0,0.0,0.0,0.0,0.0,0.0,0.0,0.0,0.0,0.0,0.0,0.0,0.0,0.0,0.0,0.0,0.0,0.0,0.0,0.0,0.0,0.0,0.0,0.0,0.0,0.0,0.0,0.0,0.0,0.0,0.0,0.0,0.0,0.0,0.0,0.0,0.0,0.0,0.0,0.0,0.0,0.0,0.0,0.0,0.0,0.0,0.0,0.0,0.0,0.0,0.0,0.0,0.0,0.0,0.0,0.0,0.0,0.0,0.0,0.0,0.0,0.0,0.0,0.0,0.0,0.0,0.0,0.0,0.0,0.0,0.0,0.0,0.0,0.0,0.0,0.0,0.0,0.0,0.0,0.0,0.0,0.0,0.0,0.0,0.0,0.0,0.0,0.0,0.0,0.0,0.0,0.0,0.0,0.0,0.0,0.0,3.2237,3.5892,3.8642,4.0323,4.0496,3.9958,3.8623,3.6969,3.3942,2.9198,0.0,0.0,0.0,0.0,0.0,0.0,0.0,0.0,0.0,0.0,0.0,0.0,0.0,0.0,0.0,0.0,0.0,0.0,0.0,0.0,0.0,0.0,0.0,0.0,0.0,0.0,0.0,0.0,0.0,0.0,0.0,0.0,0.0,0.0,0.0,0.0,0.0,0.0,0.0,0.0,0.0,0.0,0.0,0.0,0.0,0.0,0.0,0.0,0.0,0.0,0.0,0.0,0.0,0.0,0.0,0.0,0.0,0.0,0.0,0.0,0.0,0.0,0.0,0.0,0.0,0.0,0.0,0.0,0.0,0.0,0.0,0.0,0.0,0.0,0.0,0.0,0.0,0.0,0.0,0.0,0.0,0.0,0.0,0.0,0.0,0.0,0.0,0.0,0.0,0.0,0.0,0.0,0.0,0.0,0.0,0.0,0.0,0.0,0.0,0.0,0.0,0.0,3.2256,3.5892,3.8642,4.0323,4.0496,4.0169,3.9381,3.77,3.4923,3.0788,0.0,0.0,0.0,0.0,0.0,0.0,0.0,0.0,0.0,0.0,0.0,0.0,0.0,0.0,0.0,0.0,0.0,0.0,0.0,0.0,0.0,0.0,0.0,0.0,0.0,0.0,0.0,0.0,0.0,0.0,0.0,0.0,0.0,0.0,0.0,0.0,0.0,0.0,0.0,0.0,0.0,0.0,0.0,0.0,0.0,0.0,0.0,0.0,0.0,0.0,0.0,0.0,0.0,0.0,0.0,0.0,0.0,0.0,0.0,0.0,2.5421,2.2767,0.0,0.0,0.0,0.0,0.0,0.0,0.0,0.0,0.0,0.0,0.0,0.0,0.0,0.0,0.0,0.0,0.0,0.0,0.0,0.0,0.0,0.0,0.0,0.0,0.0,0.0,0.0,0.0,0.0,0.0,0.0,0.0,0.0,0.0,0.0,0.0,0.0,0.0,0.0,0.0,3.2333,3.5892,3.8642,4.0323,4.0496,4.0169,3.9381,3.77,3.5192,3.166,2.8212,0.0,0.0,0.0,0.0,0.0,0.0,0.0,0.0,0.0,0.0,0.0,0.0,0.0,0.0,0.0,0.0,0.0,0.0,0.0,0.0,0.0,0.0,0.0,0.0,0.0,0.0,0.0,0.0,0.0,0.0,0.0,0.0,0.0,0.0,0.0,0.0,0.0,0.0,0.0,0.0,0.0,0.0,0.0,0.0,0.0,0.0,0.0,0.0,0.0,0.0,0.0,0.0,0.0,0.0,0.0,0.0,0.0,0.0,0.0,3.0623,2.8727,0.0,0.0,0.0,0.0,0.0,0.0,0.0,0.0,0.0,0.0,0.0,0.0,0.0,0.0,0.0,0.0,0.0,0.0,0.0,0.0,0.0,0.0,0.0,0.0,0.0,0.0,0.0,0.0,0.0,0.0,0.0,0.0,0.0,0.0,0.0,0.0,0.0,0.0,0.0,0.0,3.3128,3.6624,3.9251,4.0504,4.0639,4.0448,3.9998,3.8762,3.6723,3.3718,3.1064,0.0,0.0,0.0,0.0,0.0,0.0,0.0,0.0,0.0,0.0,0.0,0.0,0.0,0.0,0.0,0.0,0.0,0.0,0.0,0.0,0.0,0.0,0.0,0.0,0.0,0.0,0.0,0.0,0.0,0.0,0.0,0.0,0.0,0.0,0.0,0.0,0.0,0.0,0.0,0.0,0.0,0.0,0.0,0.0,0.0,0.0,0.0,0.0,0.0,0.0,0.0,0.0,0.0,3.7381,3.7925,3.7632,3.7788,3.8252,3.8814,3.6715,3.5884,3.5814,3.2971,0.0,0.0,0.0,0.0,0.0,0.0,0.0,0.0,0.0,0.0,0.0,0.0,0.0,0.0,0.0,0.0,0.0,0.0,0.0,0.0,0.0,0.0,3.4421,3.5607,3.7027,3.692,3.2607,0.0,0.0,0.0,0.0,0.0,0.0,0.0,0.0,0.0,0.0,0.0,3.4406,3.7759,4.0131,4.0937,4.1035,4.0939,4.0749,3.9934,3.8446,3.6125,3.4192,3.1523,0.0,0.0,0.0,0.0,0.0,0.0,0.0,0.0,0.0,0.0,0.0,0.0,0.0,0.0,0.0,0.0,0.0,0.0,0.0,0.0,0.0,0.0,0.0,0.0,0.0,0.0,0.0,0.0,0.0,0.0,0.0,0.0,2.3967,2.5841,0.0,0.0,0.0,0.0,0.0,0.0,0.0,0.0,0.0,0.0,0.0,0.0,0.0,3.5722,3.6581,3.9765,4.1366,4.1405,4.5311,4.6386,4.494,4.5702,4.6112,4.619,4.5858,0.0,3.6888,3.6432,0.0,0.0,0.0,0.0,0.0,0.0,0.0,0.0,0.0,0.0,0.0,0.0,0.0,0.0,0.0,0.0,0.0,0.0,0.0,0.0,0.0,0.0,4.2031,4.1483,4.1542,4.1523,4.0839,3.6447,3.2071,3.0221,2.8682,2.6812,0.0,0.0,0.0,0.0,0.0,0.0,3.6219,3.9045,4.1046,4.184,4.1934,4.1618,4.0855,4.0042,3.909,3.7909,3.5553,3.3566,3.2128,2.9275,0.0,0.0,0.0,0.0,0.0,0.0,0.0,0.0,0.0,0.0,0.0,0.0,0.0,0.0,0.0,0.0,0.0,0.0,0.0,0.0,0.0,0.0,0.0,0.0,0.0,0.0,0.0,0.0,0.0,2.3543,2.6793,2.7586,2.7782,2.7313,0.0,0.0,0.0,0.0,0.0,0.0,0.0,0.0,0.0,3.8301,4.0117,4.1719,4.3086,4.5058,4.6055,4.6074,4.7988,4.8496,4.7773,4.8164,4.832,4.832,4.832,4.658,4.358,4.1625,3.9295,3.6827,0.0,0.0,0.0,0.0,3.5627,3.5889,3.8695,3.9129,3.8408,3.8291,0.0,0.0,0.0,0.0,0.0,0.0,0.0,3.6913,3.793,4.0566,4.3125,4.3711,4.4238,4.459,4.459,4.2107,3.8936,3.5753,3.4934,3.3311,2.8731,2.9467,0.0,0.0,0.0,3.6499,3.8935,4.1136,4.2609,4.296,4.2568,4.2108,4.168,4.0878,3.9991,3.9056,3.7948,3.6474,3.4613,3.2614,3.0293,0.0,0.0,0.0,0.0,0.0,0.0,0.0,0.0,0.0,0.0,0.0,0.0,0.0,0.0,0.0,0.0,0.0,0.0,0.0,0.0,0.0,0.0,0.0,0.0,0.0,0.0,0.0,0.0,2.6673,2.9546,2.9609,3.0957,3.1133,0.0,0.0,0.0,0.0,0.0,0.0,3.8089,3.9631,4.1277,4.3063,4.4912,4.6631,4.8179,4.9013,4.9555,4.9769,5.0032,5.0152,5.0153,5.0195,5.0195,5.0195,5.0195,4.9941,4.9297,4.6035,4.3553,4.1653,4.0175,3.9154,3.8661,4.0057,4.0272,4.0325,4.3574,4.4277,4.3672,4.3281,4.2129,4.0351,3.7519,0.0,0.0,0.0,0.0,3.9297,4.0801,4.2305,4.3711,4.5019,4.582,4.6308,4.6308,4.5781,4.4258,4.0605,4.0254,3.8965,3.3979,3.4699,0.0,3.4222,3.6974,3.9795,4.1473,4.3064,4.4023,4.4023,4.3457,4.2869,4.2364,4.1737,4.0955,4.001,3.9754,3.8773,3.6849,3.5485,3.3468,3.0676,0.0,0.0,0.0,0.0,0.0,0.0,0.0,0.0,0.0,0.0,0.0,0.0,0.0,0.0,0.0,0.0,0.0,0.0,0.0,0.0,0.0,0.0,0.0,0.0,0.0,0.0,0.0,0.0,0.0,3.3144,3.6094,0.0,0.0,0.0,0.0,3.7897,3.887,4.0788,4.4,4.5031,4.6384,4.8252,4.8331,4.8787,4.9767,5.0525,5.1303,5.2139,5.3091,5.354,5.3562,5.3687,5.373,5.373,5.373,5.2793,5.1074,4.8476,4.7324,4.7129,4.6191,4.582,4.5781,4.5879,4.6406,4.7109,4.7324,4.7383,4.7461,4.8262,4.623,4.332,4.2324,4.0898,0.0,0.0,4.2129,4.3594,4.4512,4.543,4.6133,4.6211,4.6269,4.6308,4.6308,4.6269,4.5683,4.3808,4.2812,4.168,3.9766,0.0,3.9609,3.9512,4.039,4.168,4.3359,4.4375,4.4922,4.4922,4.4902,4.4199,4.2539,4.2344,4.1929,4.0996,4.0157,3.9607,3.9411,3.7037,3.5253,3.4266,3.0042,0.0,0.0,0.0,0.0,0.0,0.0,0.0,0.0,0.0,0.0,0.0,0.0,0.0,0.0,0.0,0.0,0.0,0.0,0.0,0.0,0.0,0.0,0.0,0.0,0.0,0.0,0.0,0.0,3.6562,3.9156,0.0,3.7996,3.9549,4.1172,4.2303,4.4234,4.6093,4.7787,4.925,5.0325,5.0999,5.1507,5.193,5.2284,5.2539,5.2824,5.3135,5.3497,5.3676,5.3676,5.372,5.3735,5.3735,5.3735,5.3384,5.2756,5.1837,5.0276,4.8418,4.8086,4.7969,4.7969,4.7969,4.8164,4.8437,4.8437,4.8437,4.8496,4.8808,4.8066,4.6992,4.668,4.6172,4.5762,4.6074,4.6582,4.7129,4.7422,4.7324,4.7148,4.7148,4.6719,4.6308,4.6308,4.6308,4.6113,4.5488,4.5117,4.4199,4.1894,4.2441,4.2793,4.168,4.2734,4.4062,4.5215,4.5644,4.584,4.584,4.5332,4.4746,4.4121,4.3047,4.2031,4.1187,4.0308,3.9309,3.8164,3.7205,3.604,3.4581,3.2458,2.9522,0.0,0.0,0.0,0.0,0.0,0.0,0.0,0.0,0.0,0.0,0.0,0.0,0.0,0.0,0.0,0.0,0.0,0.0,0.0,0.0,0.0,0.0,0.0,0.0,0.0,3.5872,3.9023,3.9193,4.2247,4.3506,4.1426,4.3797,4.5808,4.6638,4.8565,5.006,5.0848,5.1973,5.2628,5.2666,5.3184,5.3624,5.3974,5.3934,5.4042,5.4314,5.4356,5.4388,5.4388,5.4441,5.4488,5.4488,5.4488,5.4313,5.4035,5.4035,5.2629,5.0482,5.0536,5.0533,5.0504,5.0584,5.0585,5.0521,5.0273,4.998,4.9707,4.9433,4.9336,4.9277,4.8984,4.8906,4.8906,4.8906,4.8906,4.8906,4.8906,4.8476,4.8047,4.8047,4.7598,4.7187,4.7187,4.7187,4.709,4.6797,4.6504,4.5742,4.4004,4.4668,4.5058,4.3887,4.4707,4.5644,4.623,4.6308,4.6308,4.6308,4.5781,4.5312,4.5039,4.3398,4.2168,4.1641,4.0254,3.9082,3.8203,3.7298,3.6256,3.5087,3.359,3.1244,2.8037,0.0,0.0,0.0,0.0,0.0,0.0,0.0,0.0,0.0,0.0,0.0,0.0,0.0,0.0,0.0,0.0,0.0,0.0,0.0,0.0,0.0,0.0,0.0,3.6111,3.9646,4.2,4.1144,4.5507,4.7573,4.5036,4.783,5.0116,5.0828,5.1684,5.2483,5.3194,5.326,5.335,5.3518,5.3388,5.3793,5.4799,5.4689,5.5011,5.5791,5.5901,5.5965,5.5974,5.6188,5.6258,5.622,5.622,5.5728,5.4925,5.4925,5.4433,5.3666,5.3751,5.3713,5.3638,5.3889,5.3913,5.3699,5.2984,5.2187,5.1347,5.0566,5.0293,5.0117,4.9277,4.8984,4.8965,4.8965,4.8965,4.8965,4.8965,4.8965,4.8945,4.8945,4.8926,4.8906,4.8906,4.8906,4.8652,4.7793,4.6953,4.6367,4.6308,4.6308,4.6308,4.6308,4.6308,0.0,4.6308,4.6308,4.6308,4.6308,4.6308,4.5957,4.5117,4.3437,4.2422,4.2363,4.0,3.8984,3.9824,3.7422,3.6094,3.6113,3.3589,3.1794,3.0866,0.0,0.0,0.0,0.0,0.0,0.0,0.0,0.0,0.0,0.0,0.0,0.0,0.0,0.0,0.0,0.0,0.0,0.0,0.0,0.0,0.0,3.8634,4.0638,4.0408,4.2961,4.522,4.6132,4.8567,4.9875,4.9101,5.0964,5.2316,5.2531,5.336,5.3927,5.4126,5.4703,5.5312,5.598,5.5976,5.6389,5.73,5.7275,5.7376,5.7588,5.7625,5.7638,5.7638,5.7699,5.7381,5.6772,5.6772,5.629,5.5469,5.5469,5.5334,5.5023,5.4035,5.3638,5.3613,5.3689,5.3689,5.3628,5.3424,5.3202,5.2968,5.2731,5.2291,5.1824,5.159,5.1064,5.0561,5.0561,5.0561,5.0561,5.0561,5.0208,4.9844,4.9844,4.9355,4.8906,4.8906,4.8906,4.8828,4.8594,4.8359,4.7773,4.6523,4.6308,4.6308,4.6308,4.6308,4.6308,4.6308,4.6308,4.6308,4.6308,4.6308,4.6191,4.5957,4.4336,4.2812,4.1601,3.9687,3.8711,3.8945,3.8262,3.8184,3.8828,3.683,3.5355,0.0,0.0,0.0,0.0,0.0,0.0,0.0,0.0,0.0,0.0,0.0,0.0,0.0,0.0,0.0,0.0,0.0,0.0,0.0,0.0,0.0,0.0,4.2888,4.5349,4.5647,4.701,4.8283,4.92,5.0797,5.1787,5.1761,5.2953,5.3876,5.4222,5.5049,5.5703,5.6069,5.653,5.7011,5.753,5.753,5.778,5.83,5.83,5.83,5.83,5.83,5.83,5.83,5.83,5.803,5.753,5.753,5.7261,5.678,5.678,5.678,5.665,0.0,0.0,0.0,0.0,5.4393,5.4133,5.4133,5.3919,5.3602,5.3602,5.3307,5.2949,5.2949,5.2602,5.2219,5.2219,5.1947,5.1654,5.1654,5.115,5.0616,5.0616,5.0271,4.9941,4.9941,4.9941,4.9844,4.9512,4.9433,0.0,4.7637,4.709,4.6719,4.6348,4.6308,4.6308,4.6308,4.6308,4.6308,4.6308,4.6308,4.6308,4.6308,4.4707,0.0,0.0,0.0,3.9531,3.916,3.9141,0.0,0.0,0.0,0.0,0.0,0.0,0.0,0.0,3.6798,3.7335,0.0,0.0,0.0,0.0,0.0,0.0,0.0,0.0,0.0,0.0,0.0,0.0,0.0,0.0,0.0,0.0,4.6692,5.011,5.0885,5.1127,5.1151,5.1001,5.2375,5.3356,5.3356,5.4222,5.5068,5.578,5.6656,5.7473,5.8261,5.83,0.0,0.0,0.0,5.8492,5.8588,5.8588,5.8588,5.8588,5.8588,5.8588,5.8588,5.8588,5.8531,5.8434,5.8434,5.8377,5.83,5.83,5.83,5.8168,5.6723,5.6049,5.585,5.5979,5.5586,5.4982,5.4982,0.0,0.0,5.3843,5.3796,5.3716,5.3716,5.3658,5.358,5.358,5.3022,5.2419,5.2419,5.1955,5.1461,5.1461,5.1481,5.1501,5.1501,5.1423,5.115,5.0448,5.0312,5.0038,4.9199,4.832,4.7441,4.6582,4.6445,4.6406,4.6308,4.6308,4.6308,4.6308,4.6308,0.0,4.6308,4.4785,4.4121,4.4805,4.2734,4.1133,4.0351,4.0527,4.0937,4.1621,4.1621,4.2363,4.3848,4.4726,4.4805,4.4043,4.0107,3.9882,0.0,0.0,0.0,0.0,0.0,0.0,0.0,0.0,0.0,0.0,0.0,0.0,0.0,0.0,0.0,4.6675,4.953,5.1742,5.2587,5.3339,5.3522,5.2799,5.3626,5.4241,5.4241,5.5607,5.6579,5.6733,5.755,5.8127,5.83,5.83,5.8607,5.9261,5.9281,5.9608,6.03,6.0319,6.0319,6.0319,6.0319,0.0,6.0319,6.0319,5.9935,5.9281,5.9281,5.8896,5.83,5.83,5.83,5.8261,5.7951,5.7382,5.6753,5.6767,5.626,5.5548,5.5548,5.5432,5.5287,5.5287,5.4933,5.4483,5.4483,5.4006,0.0,5.3432,5.3315,5.318,5.318,5.3151,5.3142,5.3142,5.2615,5.2126,5.2126,5.1624,5.1128,5.1035,5.1004,5.0782,5.0078,4.9238,4.8359,4.748,4.7344,4.709,4.6387,4.6308,4.6308,4.6308,4.6308,4.6308,4.6308,4.5351,4.4512,4.3984,4.3496,4.3144,4.2969,4.4316,4.4805,4.4277,4.4277,4.4414,4.4746,4.5625,4.6328,4.6836,4.5975,4.5545,0.0,0.0,0.0,0.0,0.0,0.0,0.0,0.0,0.0,0.0,0.0,4.0302,4.279,0.0,4.8145,4.9819,5.1857,5.3356,5.3799,5.4568,5.478,5.3953,5.4587,5.5261,5.5703,5.6522,5.7349,5.8184,5.8646,5.9088,5.9531,5.955,5.9742,6.0146,6.0146,6.0358,6.08,6.08,6.08,6.08,6.08,6.08,6.08,6.08,6.055,6.0146,6.0146,5.9915,5.955,5.955,5.955,5.955,5.955,5.8761,5.7646,5.7646,5.7376,5.6992,5.6992,5.6722,5.6349,5.6349,5.5835,5.519,5.519,5.491,5.4544,5.4544,5.4254,5.3945,5.3945,5.372,5.3495,5.3495,5.3227,5.2829,5.2387,5.1979,5.1595,5.1226,5.114,5.1037,5.0706,5.0326,4.9641,4.8437,4.8242,4.7949,4.7051,4.6953,4.6777,4.6348,4.6308,4.6308,4.6308,4.5898,4.5469,4.5039,4.5,4.5,4.5,4.584,4.6094,4.5664,4.6074,4.6308,4.6308,4.7187,4.7812,4.8262,4.8691,4.8672,0.0,0.0,0.0,0.0,0.0,0.0,0.0,3.6393,3.8316,4.1126,4.3469,4.5614,4.7581,4.9903,5.1715,5.2299,5.3703,5.4722,5.4722,5.528,5.5453,5.4799,5.5299,5.603,5.6926,5.7157,5.7877,5.9396,5.9665,6.0069,6.0762,6.08,6.08,6.08,6.08,6.08,6.08,6.08,6.08,6.08,6.08,6.08,6.08,6.08,6.08,6.08,6.08,6.08,6.08,6.08,6.08,6.08,6.08,5.9973,5.8781,5.8607,5.8434,5.83,5.83,5.7838,5.7234,5.706,5.6522,5.5915,5.5742,5.5703,5.5703,5.5703,5.5222,5.4722,5.4722,5.4294,5.3857,5.3857,5.38,5.3573,5.288,5.2589,5.2232,5.145,5.1286,5.1253,5.1128,5.1133,5.0716,4.9312,4.914,4.8848,4.7969,4.7851,4.7519,4.6641,4.6543,4.6484,4.6308,4.6308,4.6308,4.6308,4.6308,4.6387,4.6543,4.6543,4.6621,4.6797,4.748,4.7851,4.7851,4.873,4.9141,4.918,5.0039,5.0351,3.1855,3.3799,3.5619,3.7164,3.7027,3.8287,0.0,4.5084,4.4738,4.8715,5.0371,5.1169,5.1327,5.2848,5.4118,5.4203,5.4972,5.5568,5.5568,5.5645,5.5665,5.5568,5.5645,5.603,5.6926,5.7703,5.8531,5.9435,6.0223,6.0704,6.0781,6.08,6.08,6.08,6.08,6.08,6.08,6.08,6.08,6.08,6.08,6.08,6.08,6.08,6.08,6.08,6.08,6.08,6.08,6.08,6.08,6.08,6.08,6.0685,6.0435,5.9646,5.8915,5.83,5.83,5.8242,5.803,5.7253,5.6926,5.6714,5.5934,5.5703,5.5703,5.5703,5.5645,5.5568,5.5568,5.5493,5.5437,5.5437,5.491,5.4361,5.4265,5.3648,5.2886,5.2121,5.1983,5.18,5.1205,5.1103,5.0821,4.9991,4.9974,4.9746,4.8867,4.875,4.8418,4.7558,4.7441,4.7148,4.6367,4.6308,4.6308,4.6308,4.6308,4.6641,4.7422,4.7441,4.7812,4.8594,4.8691,4.875,4.8769,4.9629,5.0058,5.0078,5.0898,5.0879,3.8093,3.9026,3.937,4.2089,4.3216,4.4476,4.7649,4.8283,4.8829,5.0984,5.2539,5.3475,5.3415,5.4395,5.5203,5.5203,5.5915,5.628,5.5761,5.6137,5.6099,5.5126,5.5415,5.6242,5.7627,5.8088,5.8838,6.0165,6.0589,6.08,6.08,6.08,6.08,6.08,6.08,6.08,6.08,6.08,6.08,6.08,6.08,6.08,6.08,6.08,6.08,6.08,6.08,6.08,6.08,6.08,6.08,6.08,6.08,6.08,6.0762,6.0396,6.0031,5.9742,5.9742,5.9415,5.8934,5.8569,5.778,5.6926,5.6579,5.6088,5.5703,5.5703,5.5703,5.5703,5.5703,5.5703,5.5703,5.5703,5.5434,5.5068,5.4607,5.4203,5.3714,5.2896,5.2336,5.188,5.1606,5.1242,5.0887,5.0561,5.0664,5.0472,4.9651,4.9606,4.9316,4.8457,4.8359,4.8203,4.7832,4.7812,4.7812,4.7812,4.7812,4.7988,4.834,4.8359,4.8535,4.8887,4.9394,4.9668,4.9668,5.0488,5.1152,5.166,5.1992,5.2246,4.115,4.2319,4.3097,4.5587,4.7829,4.9471,4.9613,5.0786,5.2035,5.279,5.3953,5.4761,5.453,5.5164,5.5626,5.5415,5.6299,5.6703,5.5818,5.6252,5.6195,5.4972,5.5145,5.6049,5.7761,5.8165,5.8896,6.0319,6.0666,6.08,6.08,6.08,6.08,6.08,6.08,6.08,6.08,6.08,6.08,6.08,6.08,6.08,6.08,6.08,6.08,6.08,6.08,6.08,6.08,6.08,6.08,6.08,6.08,6.08,6.08,6.08,6.08,6.08,6.08,6.0396,5.9819,5.9588,5.8684,5.7657,5.7426,5.6742,5.6049,5.6049,5.5876,5.5703,5.5703,5.5703,5.5703,5.5703,5.5703,5.553,5.4953,5.4818,5.4587,5.3722,5.3049,5.2538,5.2288,5.1652,5.1191,5.1191,5.1147,5.094,5.0396,5.0245,4.9961,4.9336,4.9043,4.8906,4.8906,4.8906,4.8906,4.8906,4.8906,4.9004,4.9258,4.9258,4.9355,4.959,5.0215,5.0527,5.0527,5.1367,5.207,5.2715,5.2949,5.3535,3.9081,4.2546,4.6848,4.6948,4.9395,5.202,5.2866,5.3751,5.4617,5.5415,5.5626,5.5434,5.4645,5.5164,5.5434,5.4664,5.5915,5.6695,5.5818,5.5722,5.5722,5.5665,5.4991,5.5203,5.6887,5.78,5.8646,5.9473,6.0319,6.08,6.08,6.08,6.08,6.08,6.08,6.08,6.08,6.08,6.08,6.08,6.08,6.08,6.08,6.08,6.08,6.08,6.08,6.08,6.08,6.08,6.08,6.08,6.08,6.08,6.08,6.08,6.08,6.08,6.08,6.0781,6.0608,5.9762,5.9473,5.9281,5.8511,5.7646,5.6964,5.6964,5.6349,5.5703,5.5703,5.5703,5.5703,5.5703,5.5703,5.5684,5.5665,5.5665,5.5434,5.4626,5.4434,5.4145,5.3318,5.2433,5.1875,5.1875,5.1324,5.0971,5.1146,5.0597,5.0195,5.0156,4.9394,4.8906,4.8906,4.8906,4.8906,4.8906,4.8906,4.9277,5.0137,5.0156,5.0527,5.1308,5.1348,5.1367,5.1367,5.2246,5.2676,5.2715,5.3574,5.4433,4.4096,4.63,4.827,5.0546,5.2377,5.3837,5.4664,5.5088,5.5222,5.4953,5.4434,5.378,5.2933,5.301,5.328,5.3587,5.553,5.6907,5.6599,5.7511,5.7501,5.5523,5.5823,5.583,5.4955,5.6437,5.8011,5.9396,5.9762,6.0185,6.0762,6.08,6.08,6.08,6.08,6.08,6.08,6.08,6.08,6.08,6.08,6.08,6.08,6.08,6.08,6.08,6.08,6.08,6.08,6.08,6.08,6.08,6.08,6.08,6.08,6.08,6.08,6.08,6.08,6.08,6.0742,6.0454,5.9973,5.9454,5.9184,5.8511,5.7742,5.7157,5.6791,5.6426,5.5838,5.5703,5.5703,5.5703,5.5703,5.5703,5.5703,5.5703,5.5607,5.5338,5.4876,5.4414,5.4107,5.3337,5.2558,5.1981,5.1327,5.0959,5.1116,5.0979,5.0858,5.0858,5.068,5.0566,5.0566,5.0566,5.0566,5.0566,5.0566,5.0683,5.0976,5.0996,5.1113,5.1387,5.1973,5.2266,5.2266,5.3144,5.3867,5.4433,5.4726,5.5332,4.7106,4.8829,5.0144,5.2953,5.4299,5.5049,5.5568,5.5472,5.503,5.4203,5.3106,5.2049,5.1183,5.101,5.1395,5.2549,5.4876,5.6593,5.6728,5.7951,5.8055,5.5993,5.6194,5.6082,5.5014,5.6156,5.7551,5.895,5.9627,6.0204,6.0762,6.08,6.08,6.08,6.08,6.08,6.08,6.08,6.08,6.08,6.08,6.08,6.08,6.08,6.08,6.08,6.08,6.08,6.08,6.08,6.08,6.08,6.08,6.08,6.08,6.08,6.08,6.08,6.08,6.08,6.08,6.08,6.0416,5.9954,5.9954,5.9396,5.8607,5.805,5.7684,5.7261,5.6376,5.6145,5.6088,5.5761,5.5703,5.5703,5.5703,5.5703,5.5703,5.5703,5.528,5.4934,5.4934,5.4222,5.3376,5.25,5.2009,5.1548,5.1093,5.1116,5.1174,5.1201,5.1271,5.1344,5.1406,5.1406,5.1406,5.1406,5.1406,5.1406,5.1406,5.1406,5.1543,5.1855,5.2402,5.2851,5.3164,5.4043,5.4746,5.5312,5.5625,5.6055,4.8105,5.0154,5.2442,5.4145,5.5145,5.5684,5.5645,5.5011,5.4145,5.3145,5.1606,5.0135,4.9125,4.9086,4.9731,5.1345,5.3893,5.5819,5.627,5.7111,5.7498,5.6998,5.6212,5.6024,5.6779,5.6926,5.732,5.8215,5.9784,6.0719,6.0757,6.08,6.08,6.08,6.08,6.08,6.08,6.08,6.08,6.08,6.08,6.08,6.08,6.08,6.08,6.08,6.08,6.08,6.08,6.08,6.08,6.08,6.08,6.08,6.08,6.08,6.08,6.08,6.08,6.08,6.08,6.08,6.08,6.08,6.08,6.0223,5.9569,5.9511,5.8954,5.8165,5.728,5.708,5.6849,5.5972,5.5761,5.5742,5.5703,5.5703,5.5703,5.5703,5.5703,5.5703,5.5703,5.5068,5.426,5.3395,5.328,5.2714,5.1212,5.1126,5.1243,5.13,5.1311,5.1377,5.1503,5.1523,5.1523,5.1523,5.1523,5.1523,5.1523,5.1523,5.1914,5.2754,5.2812,5.3242,5.4062,5.4941,5.5371,5.539,5.6211,5.6601,5.1144,5.2856,5.4087,5.5126,5.5549,5.553,5.4934,5.4145,5.276,4.9971,4.8067,4.6056,4.3286,4.4844,4.681,4.7554,5.1895,5.5551,5.6598,5.8011,5.854,5.7473,5.7411,5.7181,5.6444,5.7242,5.7874,5.8135,5.8873,5.9595,6.024,6.061,6.08,6.08,6.08,6.08,6.08,6.08,6.08,6.08,6.08,6.08,6.08,6.08,6.08,6.08,6.08,6.08,6.08,6.08,6.08,6.08,6.08,6.08,6.08,6.08,6.08,6.08,6.08,6.08,6.08,6.08,6.08,6.08,6.08,6.0646,6.0319,5.9685,5.9358,5.8992,5.8184,5.7973,5.7742,5.6887,5.6676,5.6503,5.5838,5.5703,5.5703,5.5703,5.5703,5.5703,5.5703,5.553,5.5126,5.428,5.4164,5.3781,5.2753,5.2732,5.2808,5.2835,5.2921,5.3042,5.3186,5.319,5.3225,5.332,5.334,5.334,5.334,5.334,5.3437,5.3652,5.4316,5.4746,5.4961,5.584,5.6269,5.6269,5.6504,5.6601,5.3145,5.4395,5.5145,5.5588,5.5434,5.4761,5.3183,5.1856,4.9894,4.6105,4.4278,4.2555,3.99,4.1752,4.4135,4.5464,4.9873,5.3838,5.5778,5.7526,5.8352,5.7793,5.7923,5.7778,5.7061,5.7624,5.8046,5.8046,5.8876,5.9588,6.0065,6.0553,6.08,6.08,6.061,6.0495,6.0495,6.0495,6.061,6.08,6.08,6.08,6.08,6.08,6.08,6.08,6.08,6.08,6.08,6.08,6.08,6.08,6.08,6.08,6.08,6.08,6.08,6.08,6.08,6.08,6.08,6.08,6.08,6.08,6.08,6.08,6.0704,6.0204,6.0069,5.9877,5.905,5.8838,5.8607,5.7761,5.7569,5.7319,5.6464,5.6272,5.6156,5.5761,5.5703,5.5703,5.5703,5.5703,5.5549,5.5088,5.503,5.4857,5.4357,5.3716,5.3331,5.3391,5.3467,5.3575,5.3701,5.3771,5.3826,5.3913,5.3963,5.4004,5.4004,5.4004,5.418,5.4551,5.5058,5.5488,5.5879,5.6367,5.6601,5.6601,5.6601,5.6601,5.4395,5.5164,5.5665,5.5568,5.4934,5.3626,5.0952,4.8913,4.6394,4.2181,4.0492,3.9265,3.7586,3.9294,4.1765,4.414,4.7943,5.1616,5.4503,5.6268,5.7423,5.7937,5.7997,5.7997,5.7997,5.7997,5.7997,5.7997,5.9195,5.9916,5.9916,6.0351,6.0622,6.0622,6.0222,6.001,6.001,6.001,6.0222,6.0622,6.0678,6.0702,6.0702,6.0769,6.08,6.08,6.08,6.08,6.08,6.08,6.08,6.08,6.08,6.08,6.08,6.08,6.08,6.08,6.08,6.08,6.08,6.08,6.08,6.08,6.08,6.08,6.08,6.08,6.08,6.0627,5.9877,5.9665,5.9473,5.8646,5.8473,5.8223,5.7368,5.708,5.6753,5.5857,5.5703,5.5703,5.5703,5.5703,5.5703,5.5703,5.5703,5.5703,5.5703,5.4434,5.3571,5.3683,5.3707,5.3766,5.3893,5.4015,5.4092,5.4125,5.4243,5.4315,5.4315,5.4336,5.4707,5.5469,5.5469,5.584,5.6601,5.6601,5.6601,5.6601,5.6601,5.666,5.5068,5.5588,5.553,5.4876,5.4068,5.2568,4.9298,4.6682,4.3758,3.9527,3.726,3.5512,3.3769,3.6672,3.9913,4.1744,4.6307,5.0785,5.4066,5.5322,5.6441,5.7836,5.7997,5.7997,5.7997,5.7997,5.7997,5.7997,5.8591,5.8933,5.8933,5.9391,5.9644,5.9644,5.9559,5.9509,5.9509,5.9509,5.9543,5.9644,6.004,6.0222,6.0236,6.0622,6.08,6.08,6.08,6.08,6.08,6.08,6.08,6.08,6.08,6.08,6.08,6.08,6.08,6.08,6.08,6.08,6.08,6.08,6.08,6.08,6.08,6.08,6.08,6.08,6.08,6.0762,6.0608,6.0569,6.0358,5.9492,5.93,5.9069,5.8242,5.7511,5.6753,5.5857,5.5703,5.5703,5.5703,5.5703,5.5703,5.5703,5.5703,5.5703,5.5703,5.5453,5.5282,5.5304,5.5295,5.5355,5.5482,5.5516,5.5618,5.577,5.5916,5.5977,5.5977,5.6089,5.6211,5.6367,5.6367,5.6445,5.6601,5.6601,5.6601,5.6601,5.6601,5.6992,5.5241,5.5703,5.5511,5.4703,5.351,5.1288,4.6567,4.3528,4.0239,3.5103,3.3651,3.2773,3.0924,3.438,3.78,3.875,4.2849,4.7448,5.1893,5.3206,5.4785,5.7648,5.7997,5.7997,5.7997,5.7997,5.7997,5.7997,5.8213,5.8439,5.8674,5.9158,5.9303,5.9047,5.9028,5.9028,5.9028,5.9028,5.9158,5.9389,5.9628,5.987,6.0118,6.0338,6.0565,6.08,6.08,6.08,6.08,6.08,6.08,6.08,6.08,6.08,6.08,6.08,6.08,6.08,6.08,6.08,6.08,6.08,6.08,6.08,6.08,6.08,6.08,6.08,6.08,6.08,6.08,6.08,6.0685,6.0281,5.9838,5.9396,5.9011,5.7915,5.6887,5.6464,5.6011,5.5703,5.5703,5.5703,5.5703,5.5703,5.5703,5.5703,5.5703,5.5703,5.5703,5.5703,5.5703,5.5717,5.5789,5.5857,5.5944,5.6038,5.6193,5.6324,5.6408,5.6458,5.6536,5.6601,5.6601,5.6601,5.6601,5.6601,5.6601,5.6601,5.707,5.75,5.476,5.5359,5.5327,5.4337,5.2782,4.9959,4.4082,4.0676,3.7135,3.1495,3.0695,3.0591,2.9227,3.2429,3.562,3.6625,3.9834,4.4138,4.976,5.1371,5.3427,5.7281,5.7905,5.7997,5.7997,5.7997,5.7997,5.7997,5.7997,5.8146,5.8526,5.8913,5.8914,5.8549,5.8547,5.8547,5.8547,5.8547,5.8735,5.9103,5.9213,5.9511,5.9946,6.0055,6.0351,6.08,6.08,6.08,6.08,6.08,6.08,6.08,6.08,6.08,6.08,6.08,6.08,6.08,6.08,6.08,6.08,6.08,6.08,6.08,6.08,6.08,6.08,6.08,6.08,6.08,6.08,6.08,6.08,6.08,6.0281,5.9723,5.955,5.8473,5.7484,5.7311,5.6569,5.5972,5.5972,5.5818,5.5703,5.5703,5.5703,5.5703,5.5703,5.5703,5.5703,5.5703,5.5703,5.5703,5.5703,5.5798,5.5868,5.5868,5.6024,5.6177,5.6289,5.6352,5.6452,5.656,5.6582,5.6601,5.6601,5.6601,5.6699,5.6894,5.7578,5.8086,5.3172,5.4268,5.4778,5.3169,5.1459,4.8686,4.2957,3.9205,3.5638,3.1071,2.9372,2.8879,2.9432,3.1044,3.3414,3.6873,3.916,4.2665,4.8842,5.1042,5.3225,5.6528,5.7556,5.7997,5.7997,5.7997,5.7997,5.7997,5.7997,5.802,5.807,5.8115,5.8097,5.807,5.807,5.807,5.807,5.807,5.8092,5.8142,5.8549,5.9009,5.9494,5.9901,6.0351,6.08,6.08,6.08,6.08,6.08,6.08,6.08,6.08,6.08,6.08,6.08,6.08,6.08,6.08,6.08,6.08,6.08,6.08,6.08,6.08,6.08,6.08,6.08,6.08,6.08,6.08,6.08,6.08,6.08,6.0742,6.0454,5.9665,5.9377,5.905,5.8319,5.7473,5.6887,5.6887,5.6233,5.5703,5.5703,5.5703,5.5703,5.5703,5.5703,5.5703,5.5703,5.5703,5.5703,5.5703,5.5716,5.5726,5.5726,5.5851,5.5936,5.5959,5.6241,5.6414,5.6419,5.6537,5.6601,5.6601,5.6601,5.7012,5.7773,5.7851,5.8711,5.1168,5.2479,5.2959,5.1807,4.9874,4.6872,4.1567,3.7928,3.4461,3.02,2.8957,2.8681,2.8856,3.0245,3.2067,3.4194,3.616,3.9245,4.4468,4.6581,4.9352,5.4087,5.5335,5.64,5.785,5.7997,5.7997,5.7997,5.7997,5.7997,5.7997,5.7997,5.7997,5.7997,5.7997,5.7997,5.7997,5.7997,5.7997,5.7997,5.819,5.8674,5.9425,5.9576,6.0103,6.08,6.08,6.08,6.08,6.08,6.08,6.08,6.08,6.08,6.08,6.08,6.08,6.08,6.08,6.08,6.08,6.08,6.08,6.08,6.08,6.08,6.08,6.08,6.08,6.08,6.08,6.08,6.08,6.08,6.08,6.0704,6.0358,5.9877,5.9415,5.9088,5.8357,5.778,5.778,5.7492,5.7261,5.7261,5.7261,5.7088,5.656,5.6483,5.6291,5.5761,5.5703,5.5703,5.5703,5.5703,5.5703,5.5703,5.5749,5.5816,5.5896,5.6032,5.6167,5.6288,5.6416,5.6738,5.7265,5.7341,5.7832,5.8691,5.918,5.9765,4.8656,5.0213,5.091,5.009,4.8204,4.5232,4.0246,3.699,3.379,2.9485,2.8636,2.8613,2.8365,2.9448,3.0899,3.2366,3.4146,3.6971,4.164,4.3901,4.6819,5.1555,5.3041,5.4546,5.6712,5.7574,5.7997,5.7997,5.7997,5.7997,5.7997,5.7997,5.7997,5.7997,5.7997,5.7997,5.7997,5.7997,5.7997,5.7997,5.7997,5.8418,5.9176,5.9176,5.9628,6.0397,6.0521,6.0578,6.059,6.0746,6.08,6.08,6.08,6.08,6.08,6.08,6.08,6.08,6.08,6.08,6.08,6.08,6.08,6.08,6.08,6.08,6.08,6.08,6.08,6.08,6.08,6.08,6.08,6.08,6.08,6.08,6.08,6.0319,5.9877,5.9877,5.9223,5.8646,5.8646,5.8473,5.83,5.83,5.83,5.8088,5.7453,5.7157,5.6772,5.6156,5.5838,5.5703,5.5703,5.5703,5.5703,5.5703,5.5703,5.5739,5.5833,5.5883,5.6083,5.6485,5.663,5.7145,5.807,5.8147,5.867,5.957,6.0137,6.0547,4.5569,4.7454,4.8814,4.7961,4.6456,4.3938,3.9124,3.6451,3.3692,2.9054,2.8267,2.8337,2.8137,2.8606,2.9812,3.2216,3.3959,3.671,4.1607,4.4378,4.6801,4.9242,5.1004,5.2656,5.4271,5.6602,5.7997,5.7997,5.7997,5.7997,5.7997,5.7997,5.7997,5.7997,5.7997,5.7997,5.7997,5.7997,5.7997,5.7997,5.7997,5.8238,5.8715,5.8715,5.8971,5.9441,5.9901,6.0118,6.0146,6.061,6.08,6.08,6.08,6.08,6.08,6.08,6.08,6.08,6.08,6.08,6.08,6.08,6.08,6.08,6.08,6.08,6.08,6.08,6.08,6.08,6.08,6.08,6.08,6.08,6.08,6.08,6.08,6.0781,6.0781,6.0781,6.0089,5.9492,5.9492,5.8838,5.83,5.83,5.83,5.83,5.83,5.753,5.7003,5.6983,5.6214,5.5703,5.5703,5.5703,5.5703,5.5703,5.5703,5.5703,5.5695,5.5843,5.6303,5.7174,5.7314,5.7887,5.8883,5.8883,5.9408,6.039,6.039,6.0859,3.9136,4.102,4.2456,4.1071,4.0335,3.9099,3.5858,3.4457,3.2929,2.9649,2.9158,2.923,2.9032,2.8993,3.0161,3.3683,3.5169,3.7202,4.0948,4.4489,4.7443,4.9353,5.3427,5.629,5.6804,5.7556,5.7997,5.7997,5.7997,5.7997,5.7997,5.7997,5.7997,5.7997,5.7997,5.7997,5.7997,5.7997,5.7997,5.7997,5.7997,5.8238,5.8694,5.8694,5.8971,5.9407,5.9561,5.9789,6.0118,6.0264,6.0508,6.08,6.08,6.08,6.08,6.08,6.08,6.08,6.08,6.08,6.08,6.08,6.08,6.08,6.08,6.08,6.08,6.08,6.08,6.08,6.08,6.08,6.08,6.08,6.08,6.08,6.08,6.08,6.08,6.08,6.0569,6.0396,6.0396,6.0185,6.0012,6.0012,6.0012,5.9781,5.9204,5.8877,5.8492,5.7953,5.7646,5.6992,5.5799,5.5703,5.5703,5.5703,5.5703,5.5703,5.5703,5.6307,5.6781,5.7071,5.7785,5.8605,5.9523,5.9608,6.0165,6.1145,6.1247,6.1445,3.4837,3.6688,3.7881,3.7217,3.6813,3.5899,3.344,3.2576,3.1618,2.9272,2.895,2.913,2.9225,2.9112,3.0014,3.3133,3.4857,3.6945,4.0194,4.4121,4.7609,5.0198,5.4124,5.6748,5.706,5.7629,5.7997,5.7997,5.7997,5.7997,5.7997,5.7997,5.7997,5.7997,5.7997,5.7997,5.7997,5.7997,5.7997,5.7997,5.7997,5.8146,5.8439,5.8439,5.8591,5.8874,5.9065,5.9302,0.0,5.9757,6.001,6.0264,6.0264,6.0384,6.054,6.054,6.0647,6.08,6.08,6.08,6.08,6.08,6.08,6.08,6.08,6.08,6.08,6.08,6.08,6.08,6.08,6.08,6.08,6.08,6.08,6.08,6.08,6.08,6.08,6.08,6.08,6.08,6.08,6.08,6.08,6.08,6.08,6.0589,6.0069,5.9704,5.9319,5.8819,5.8492,5.7857,5.6761,5.6684,5.6684,5.6684,5.6684,5.6684,5.6684,5.7203,5.7627,5.7934,5.8567,5.933,6.025,6.0404,6.0833,6.1504,6.1582,6.1656,0.0,3.383,3.4656,3.5349,3.5,3.3885,3.1568,3.0738,0.0,2.8092,2.7911,2.8319,2.9044,2.917,2.9794,3.1696,3.3935,3.6564,3.979,4.3754,4.7847,5.194,5.3739,5.495,5.5684,5.7116,5.7997,5.7997,5.7997,5.7997,5.7997,5.7997,5.7997,5.7997,5.7997,5.7997,5.7997,5.7997,5.7997,5.7997,5.7997,5.7997,5.7997,5.7997,5.7997,5.8024,5.8442,5.8654,5.8735,5.9176,5.9372,5.9389,5.9389,5.9677,6.0055,6.0103,6.0384,6.0757,6.08,6.08,6.08,6.08,6.08,6.08,6.08,6.08,6.08,6.08,6.08,6.08,6.08,6.08,6.08,6.08,6.08,6.08,6.08,6.08,6.08,6.08,6.08,6.08,6.08,6.08,6.08,6.08,6.08,6.08,6.08,6.0089,5.9588,5.9588,5.8915,5.8492,5.8492,5.8377,5.83,5.83,5.83,5.83,5.83,5.8357,5.8742,5.9492,5.9569,6.0049,6.0999,6.1186,6.1344,6.1465,6.1498,6.1575,2.6964,0.0,2.9255,2.822,2.8723,2.9182,0.0,2.8233,2.8337,2.7135,2.7522,2.8672,3.049,3.0834,3.2375,3.7144,3.8891,4.0581,4.3204,4.7609,5.205,5.6106,5.6914,5.7226,5.7409,5.7776,5.7997,5.7997,5.7997,5.7997,5.7997,5.7997,5.7997,5.7997,5.7997,5.7997,5.7997,5.7997,5.7997,5.7997,5.7997,5.7997,5.7997,5.7997,5.7997,5.7997,5.8119,5.8372,5.8715,5.8815,5.9084,5.9389,5.9389,5.9477,5.9611,5.9981,6.0161,6.0324,6.0678,6.08,6.08,6.08,6.08,6.08,6.08,6.08,6.08,6.08,6.08,6.08,6.08,6.08,6.08,6.08,6.08,6.08,6.08,6.08,6.08,6.08,6.08,6.08,6.08,6.08,6.08,6.08,6.08,6.08,6.08,6.0608,6.0492,6.0492,6.0319,6.0204,6.0204,5.905,5.83,5.83,5.83,5.83,5.83,5.8896,5.9319,5.9492,6.0146,6.0604,6.0856,6.1009,6.1085,6.1119,6.1376,6.1512,2.4781,2.6833,2.8778,2.8275,2.8808,2.934,2.8888,2.8083,2.7352,2.7195,2.7585,2.8664,3.098,3.1696,3.344,3.8062,4.0084,4.2728,4.7388,5.0967,5.4308,5.7611,5.7997,5.7997,5.7997,5.7997,5.7997,5.7997,5.7997,5.7997,5.7997,5.7997,5.7997,5.7997,5.7997,5.7997,5.7997,5.7997,5.7997,5.7997,5.7997,5.7997,5.7997,5.7997,5.7997,5.7997,5.7997,5.8123,5.8375,5.8375,5.8526,5.8755,5.8755,5.8894,5.9121,5.9354,5.9576,5.9855,6.0324,6.0622,6.08,6.08,6.08,6.08,6.08,6.08,6.08,6.08,6.08,6.08,6.08,6.08,6.08,6.08,6.08,6.08,6.08,6.08,6.08,6.08,6.08,6.08,6.08,6.08,6.08,6.08,6.08,6.08,6.08,6.08,6.08,6.08,6.08,6.08,6.08,5.9973,5.9454,5.9454,5.9454,5.9454,5.9454,5.9877,6.0108,6.0108,6.055,6.08,6.08,6.0871,6.0945,6.1006,6.1188,6.1354,2.4854,2.7787,3.0742,3.0668,3.0938,3.1182,3.1054,2.8925,2.7163,2.7842,2.8172,2.9138,3.169,3.2908,3.4637,3.8062,4.0744,4.4782,5.1591,5.372,5.5427,5.7721,5.7997,5.7997,5.7997,5.7997,5.7997,5.7997,5.7997,5.7997,5.7997,5.7997,5.7997,5.7997,5.7997,5.7997,5.7997,5.7997,5.7997,5.7997,5.7997,5.7997,5.7997,5.7997,5.7997,5.7997,5.7997,5.7997,5.7997,5.7997,5.7997,5.7997,5.7997,5.8238,5.8611,5.8674,5.8933,5.9372,5.9916,6.0411,6.08,6.08,6.08,6.08,6.08,6.08,6.08,6.08,6.08,6.08,6.08,6.08,6.08,6.08,6.08,6.08,6.08,6.08,6.08,6.08,6.08,6.08,6.08,6.08,6.08,6.08,6.08,6.08,6.08,6.08,6.08,6.08,6.08,6.08,6.08,6.08,6.08,6.08,6.08,6.08,6.08,6.08,6.08,6.08,6.08,6.08,6.08,6.08,6.0858,6.0962,6.0988,6.1168,2.753,3.0705,3.2302,2.8338,2.887,3.021,2.9519,2.8987,2.8675,2.8785,2.9898,3.1819,3.4963,3.6762,3.9038,4.2965,4.6232,4.9886,5.4421,5.5244,5.6051,5.7776,5.7997,5.7997,5.7997,5.7997,5.7997,5.7997,5.7997,5.7997,5.7997,5.7997,5.7997,5.7997,5.7997,5.7997,5.7997,5.7997,5.7997,5.7997,5.7997,5.7997,5.7997,5.7997,5.7997,5.7997,5.7997,5.7997,5.7997,5.7997,5.7997,5.7997,5.7997,5.8047,5.8164,5.8549,5.8755,5.8914,5.9808,6.0411,6.08,6.08,6.08,6.08,6.08,6.08,6.08,6.08,6.08,6.08,6.08,6.08,6.08,6.08,6.08,6.08,6.08,6.08,6.08,6.08,6.08,6.08,6.08,6.08,6.08,6.08,6.08,6.08,6.08,6.08,6.08,6.08,6.08,6.08,6.08,6.08,6.08,6.08,6.08,6.08,6.08,6.08,6.08,6.08,6.08,6.08,6.08,6.08,6.0804,6.0823,6.0944,6.1116,2.6007,2.8748,3.0876,2.9531,3.2027,3.4816,3.489,3.3518,3.2381,3.2839,3.3532,3.4761,3.7165,3.8909,4.1607,4.6507,4.9682,5.2491,5.5229,5.5959,5.6675,5.785,5.7997,5.7997,5.7997,5.7997,5.7997,5.7997,5.7997,5.7997,5.7997,5.7997,5.7997,5.7997,5.7997,5.7997,5.7997,5.7997,5.7997,5.7997,5.7997,5.7997,5.7997,5.7997,5.7997,5.7997,5.7997,5.7997,5.7997,5.7997,5.7997,5.7997,5.7997,5.7997,5.8042,5.8238,5.8484,5.8775,5.9176,5.9823,6.0424,6.0424,6.0578,6.08,6.08,6.08,6.08,6.08,6.08,6.08,6.08,6.08,6.08,6.08,6.08,6.08,6.08,6.08,6.08,6.08,6.08,6.08,6.08,6.08,6.08,6.08,6.08,6.08,6.08,6.08,6.08,6.08,6.08,6.08,6.08,6.08,6.08,6.08,6.08,6.08,6.08,6.08,6.08,6.08,6.08,6.08,6.08,6.08,6.08,6.0812,6.0869,6.0973,2.5126,2.7262,2.9757,3.1751,3.4926,3.7955,3.9533,3.7808,3.6215,3.7441,3.7863,3.8358,3.9606,4.146,4.4434,4.9536,5.2289,5.4326,5.5923,5.6693,5.7317,5.7923,5.7997,5.7997,5.7997,5.7997,5.7997,5.7997,5.7997,5.7997,5.7997,5.7997,5.7997,5.7997,5.7997,5.7997,5.7997,5.7997,5.7997,5.7997,5.7997,5.7997,5.7997,5.7997,5.7997,5.7997,5.7997,5.7997,5.7997,5.7997,5.7997,5.7997,5.7997,5.7997,5.7997,5.7997,5.8304,5.8694,5.8694,5.923,5.9931,5.9931,6.0175,6.0495,6.059,6.0634,6.0647,6.0769,6.08,6.08,6.08,6.08,6.08,6.08,6.08,6.08,6.08,6.08,6.08,6.08,6.08,6.08,6.08,6.08,6.08,6.08,6.08,6.08,6.08,6.08,6.08,6.08,6.08,6.08,6.08,6.08,6.08,6.08,6.08,6.08,6.08,6.08,6.08,6.08,6.08,6.08,6.08,6.08,6.08,6.08,6.08,6.0871,2.7849,2.9372,3.087,3.3977,3.4435,3.5165,3.9019,3.9129,3.9093,4.1387,4.2451,4.3019,4.3129,4.5681,4.8912,5.238,5.4344,5.5978,5.7593,5.7886,5.7941,5.7997,5.7997,5.7997,5.7997,5.7997,5.7997,5.7997,5.7997,5.7997,5.7997,5.7997,5.7997,5.7997,5.7997,5.7997,5.7997,5.7997,5.7997,5.7997,5.7997,5.7997,5.7997,5.7997,5.7997,5.7997,5.7997,5.7997,5.7997,5.7997,5.7997,5.7997,5.7997,5.7997,5.7997,5.7997,5.8304,5.8694,5.8694,5.9028,5.9441,5.9441,5.9458,5.9576,6.0025,6.0146,6.0236,6.0678,6.08,6.08,6.08,6.08,6.08,6.08,6.08,6.08,6.08,6.08,6.08,6.08,6.08,6.08,6.08,6.08,6.08,6.08,6.08,6.08,6.08,6.08,6.08,6.08,6.08,6.08,6.08,6.08,6.08,6.08,6.08,6.08,6.08,6.08,6.08,6.08,6.08,6.08,6.08,6.08,6.08,6.08,6.08,6.0871,2.5676,2.8062,3.0742,3.2949,3.4816,3.689,3.9955,4.1956,4.3589,4.4984,4.592,4.6489,4.6489,4.7921,5.0013,5.2766,5.4546,5.6143,5.7776,5.7997,5.7997,5.7997,5.7997,5.7997,5.7997,5.7997,5.7997,5.7997,5.7997,5.7997,5.7997,5.7997,5.7997,5.7997,5.7997,5.7997,5.7997,5.7997,5.7997,5.7997,5.7997,5.7997,5.7997,5.7997,5.7997,5.7997,5.7997,5.7997,5.7997,5.7997,5.7997,5.7997,5.7997,5.7997,5.7997,5.7997,5.8119,5.826,5.826,5.857,5.8952,5.8952,5.9158,5.9475,5.9965,6.0103,6.0208,6.0678,6.08,6.08,6.08,6.08,6.08,6.08,6.08,6.08,6.08,6.08,6.08,6.08,6.08,6.08,6.08,6.08,6.08,6.08,6.08,6.08,6.08,6.08,6.08,6.08,6.08,6.08,6.08,6.08,6.08,6.08,6.08,6.08,6.08,6.08,6.08,6.08,6.08,6.08,6.08,6.08,6.08,6.08,6.08,6.0831,2.5273,2.7714,3.065,3.2522,3.544,3.8579,4.1258,4.3956,4.6342,4.7938,4.8489,4.8838,4.937,4.9738,5.0765,5.3188,5.4932,5.6436,5.7813,5.7997,5.7997,5.7997,5.7997,5.7997,5.7997,5.7997,5.7997,5.7997,5.7997,5.7997,5.7997,5.7997,5.7997,5.7997,5.7997,5.7997,5.7997,5.7997,5.7997,5.7997,5.7997,5.7997,5.7997,5.7997,5.7997,5.7997,5.7997,5.7997,5.7997,5.7997,5.7997,5.7997,5.7997,5.7997,5.7997,5.7997,5.7997,5.7997,5.7997,5.8213,5.8463,5.8463,5.8694,5.9084,5.9693,5.9885,6.001,6.0622,6.08,6.08,6.08,6.08,6.08,6.08,6.08,6.08,6.08,6.08,6.08,6.08,6.08,6.08,6.08,6.08,6.08,6.08,6.08,6.08,6.08,6.08,6.08,6.08,6.08,6.08,6.08,6.08,6.08,6.08,6.08,6.08,6.08,6.08,6.08,6.08,6.08,6.08,6.08,6.08,6.08,6.08,6.08,6.08,2.7567,2.898,3.0797,3.322,3.6303,3.9606,4.2817,4.4782,4.6856,5.016,5.0141,5.0031,5.1701,5.1371,5.1628,5.4014,5.5757,5.7079,5.7886,5.7997,5.7997,5.7997,5.7997,5.7997,5.7997,5.7997,5.7997,5.7997,5.7997,5.7997,5.7997,5.7997,5.7997,5.7997,5.7997,5.7997,5.7997,5.7997,5.7997,5.7997,5.7997,5.7997,5.7997,5.7997,5.7997,5.7997,5.7997,5.7997,5.7997,5.7997,5.7997,5.7997,5.7997,5.7997,5.7997,5.7997,5.7997,5.7997,5.7997,5.7997,5.7997,5.7997,5.7997,5.8168,5.9121,5.9389,5.9576,6.054,6.08,6.08,6.08,6.08,6.08,6.08,6.08,6.08,6.08,6.08,6.08,6.08,6.08,6.08,6.08,6.08,6.08,6.08,6.08,6.08,6.08,6.08,6.08,6.08,6.08,6.08,6.08,6.08,6.08,6.08,6.08,6.08,6.08,6.08,6.08,6.08,6.08,6.08,6.08,6.08,6.08,6.08,6.08,6.08,2.6888,2.9372,3.2485,3.4945,3.9276,4.3462,4.5571,4.7278,4.9205,5.194,5.2289,5.2252,5.2747,5.3115,5.3757,5.5042,5.6124,5.7079,5.7886,5.7997,5.7997,5.7997,5.7997,5.7997,5.7997,5.7997,5.7997,5.7997,5.7997,5.7997,5.7997,5.7997,5.7997,5.7997,5.7997,5.7997,5.7997,5.7997,5.7997,5.7997,5.7997,5.7997,5.7997,5.7997,5.7997,5.7997,5.7997,5.7997,5.7997,5.7997,5.7997,5.7997,5.7997,5.7997,5.7997,5.7997,5.7997,5.7997,5.7997,5.7997,5.7997,5.7997,5.7997,5.8119,5.8715,5.914,5.9545,6.0146,6.0553,6.08,6.08,6.08,6.08,6.08,6.08,6.08,6.08,6.08,6.08,6.08,6.08,6.08,6.08,6.08,6.08,6.08,6.08,6.08,6.08,6.08,6.08,6.08,6.08,6.08,6.08,6.08,6.08,6.08,6.08,6.08,6.08,6.08,6.08,6.08,6.08,6.08,6.08,6.08,6.08,6.08,6.08,6.08,2.95,3.1959,3.489,3.8303,4.1956,4.5461,4.8379,4.9793,5.1096,5.3243,5.317,5.3023,5.3977,5.4289,5.4766,5.5886,5.6748,5.7446,5.7923,5.7997,5.7997,5.7997,5.7997,5.7997,5.7997,5.7997,5.7997,5.7997,5.7997,5.7997,5.7997,5.7997,5.7997,5.7997,5.7997,5.7997,5.7997,5.7997,5.7997,5.7997,5.7997,5.7997,5.7997,5.7997,5.7997,5.7997,5.7997,5.7997,5.7997,5.7997,5.7997,5.7997,5.7997,5.7997,5.7997,5.7997,5.7997,5.7997,5.7997,5.7997,5.7997,5.7997,5.7997,5.8092,5.8568,5.8894,5.9267,5.9916,6.0291,6.0565,6.0757,6.08,6.08,6.08,6.08,6.08,6.08,6.08,6.08,6.08,6.08,6.08,6.08,6.08,6.08,6.08,6.08,6.08,6.08,6.08,6.08,6.08,6.08,6.08,6.08,6.08,6.08,6.08,6.08,6.08,6.08,6.08,6.08,6.08,6.08,6.08,6.08,6.08,6.08,6.08,6.08,6.08,3.3647,3.5477,3.7459,4.2303,4.4378,4.6452,5.0967,5.205,5.2509,5.3995,5.3188,5.2876,5.5078,5.5005,5.5097,5.6565,5.7483,5.7997,5.7997,5.7997,5.7997,5.7997,5.7997,5.7997,5.7997,5.7997,5.7997,5.7997,5.7997,5.7997,5.7997,5.7997,5.7997,5.7997,5.7997,5.7997,5.7997,5.7997,5.7997,5.7997,5.7997,5.7997,5.7997,5.7997,5.7997,5.7997,5.7997,5.7997,5.7997,5.7997,5.7997,5.7997,5.7997,5.7997,5.7997,5.7997,5.7997,5.7997,5.7997,5.7997,5.7997,5.7997,5.7997,5.8092,5.8505,5.8673,5.8874,5.9725,6.004,6.0208,6.0622,6.0757,6.08,6.08,6.08,6.08,6.08,6.08,6.08,6.08,6.08,6.08,6.08,6.08,6.08,6.08,6.08,6.08,6.08,6.08,6.08,6.08,6.08,6.08,6.08,6.08,6.08,6.08,6.08,6.08,6.08,6.08,6.08,6.08,6.08,6.08,6.08,6.08,6.08,6.08,6.08,6.08,3.1604,3.4192,3.7459,4.2303,4.6507,4.9939,5.161,5.2491,5.3041,5.339,5.3683,5.4032,5.4564,5.5556,5.64,5.6748,5.7483,5.7997,5.7997,5.7997,5.7997,5.7997,5.7997,5.7997,5.7997,5.7997,5.7997,5.7997,5.7997,5.7997,5.7997,5.7997,5.7997,5.7997,5.7997,5.7997,5.7997,5.7997,5.7997,5.7997,5.7997,5.7997,5.7997,5.7997,5.7997,5.7997,5.7997,5.7997,5.7997,5.7997,5.7997,5.7997,5.7997,5.7997,5.7997,5.7997,5.7997,5.7997,5.7997,5.7997,5.7997,5.7997,5.7997,5.802,5.8119,5.8397,5.8755,5.8933,5.9526,6.0132,6.0222,6.0508,6.08,6.08,6.08,6.08,6.08,6.08,6.08,6.08,6.08,6.08,6.08,6.08,6.08,6.08,6.08,6.08,6.08,6.08,6.08,6.08,6.08,6.08,6.08,6.08,6.08,6.08,6.08,6.08,6.08,6.08,6.08,6.08,6.08,6.08,6.08,6.08,6.08,6.08,6.08,6.08,3.2284,3.4963,3.8212,4.3828,4.7737,5.0527,5.172,5.2325,5.2729,5.3112,5.3537,5.394,5.4326,5.5097,5.5776,5.6161,5.6583,5.684,5.684,5.7171,5.7428,5.7428,5.7776,5.7997,5.7997,5.7997,5.7997,5.7997,5.7997,5.7997,5.7997,5.7997,5.7997,5.7997,5.7997,5.7997,5.7997,5.7997,5.7997,5.7997,5.7997,5.7997,5.7997,5.7997,5.7997,5.7997,5.7997,5.7997,5.7997,5.7997,5.7997,5.7997,5.7997,5.7997,5.7997,5.7997,5.7997,5.7997,5.7997,5.7997,5.7997,5.7997,5.7997,5.7997,5.7997,5.8168,5.8418,5.8652,5.9212,5.9823,6.004,6.0456,6.08,6.08,6.08,6.08,6.08,6.08,6.08,6.08,6.08,6.08,6.08,6.08,6.08,6.08,6.08,6.08,6.08,6.08,6.08,6.08,6.08,6.08,6.08,6.08,6.08,6.08,6.08,6.08,6.08,6.08,6.08,6.08,6.08,6.08,6.08,6.08,6.08,6.08,6.08,6.08,3.2766,3.5899,3.9365,4.5388,4.8141,4.9757,5.1263,5.1793,5.2179,5.2858,5.3093,5.3387,5.4069,5.4308,5.462,5.5262,5.55,5.5614,5.5614,5.6161,5.6602,5.6602,5.7171,5.7629,5.7776,5.7795,5.785,5.7997,5.7997,5.7997,5.7997,5.7997,5.7997,5.7997,5.7997,5.7997,5.7997,5.7997,5.7997,5.7997,5.7997,5.7997,5.7997,5.7997,5.7997,5.7997,5.7997,5.7997,5.7997,5.7997,5.7997,5.7997,5.7997,5.7997,5.7997,5.7997,5.7997,5.7997,5.7997,5.7997,5.7997,5.7997,5.7997,5.7997,5.7997,5.7997,5.8092,5.8463,5.8932,5.9354,5.9757,6.0264,6.0678,6.0678,6.0746,6.08,6.08,6.08,6.08,6.08,6.08,6.08,6.08,6.08,6.08,6.08,6.08,6.08,6.08,6.08,6.08,6.08,6.08,6.08,6.08,6.08,6.08,6.08,6.08,6.08,6.08,6.08,6.08,6.08,6.08,6.08,6.08,6.08,6.08,6.08,6.08,6.08,2.906,3.4596,4.0616,4.4966,4.7278,4.8728,4.9702,5.1006,5.2013,5.2142,5.2711,5.3222,5.3332,5.394,5.4436,5.4546,5.5133,5.5614,5.5614,5.5684,5.5757,5.5757,5.5849,5.618,5.6895,5.6969,5.7262,5.7941,5.7997,5.7997,5.7997,5.7997,5.7997,5.7997,5.7997,5.7997,5.7997,5.7997,5.7997,5.7997,5.7997,5.7997,5.7997,5.7997,5.7997,5.7997,5.7997,5.7997,5.7997,5.7997,5.7997,5.7997,5.7997,5.7997,5.7997,5.7997,5.7997,5.7997,5.7997,5.7997,5.7997,5.7997,5.7997,5.7997,5.7997,5.7997,5.802,5.807,5.8439,5.8796,5.8874,5.9545,6.0189,6.0189,6.0495,6.08,6.08,6.08,6.08,6.08,6.08,6.08,6.08,6.08,6.08,6.08,6.08,6.08,6.08,6.08,6.08,6.08,6.08,6.08,6.08,6.08,6.08,6.08,6.08,6.08,6.08,6.08,6.08,6.08,6.08,6.08,6.08,6.08,6.08,6.08,6.08,6.08,3.043,3.5055,3.953,4.3534,4.5773,4.7297,4.8581,4.9793,5.0785,5.1224,5.161,5.2142,5.302,5.35,5.3739,5.3739,5.4014,5.4252,5.4252,5.4638,5.4932,5.4932,5.5317,5.5739,5.6088,5.6124,5.6271,5.662,5.6657,5.6657,5.6657,5.7079,5.7336,5.7336,5.7758,5.7997,5.7997,5.7997,5.7997,5.7997,5.7997,5.7997,5.7997,5.7997,5.7997,5.7997,5.7997,5.7997,5.7997,5.7997,5.7997,5.7997,5.7997,5.7997,5.7997,5.7997,5.7997,5.7997,5.7997,5.7997,5.7997,5.7997,5.7997,5.7997,5.7997,5.7997,5.7997,5.7997,5.8329,5.8694,5.8694,5.9389,6.0089,6.0015,6.0397,6.08,6.08,6.08,6.08,6.08,6.08,6.08,6.08,6.08,6.08,6.08,6.08,6.08,6.08,6.08,6.08,6.08,6.08,6.08,6.08,6.08,6.08,6.08,6.08,6.08,6.08,6.08,6.08,6.08,6.08,6.08,6.08,6.08,6.08,6.08,6.08,6.08,3.0503,3.377,3.6666,4.0907,4.3332,4.5168,4.6985,4.8361,4.9426,5.005,5.0508,5.1169,5.238,5.2766,5.2968,5.3167,5.3185,5.3185,5.3185,5.372,5.4106,5.4106,5.462,5.506,5.5262,5.5299,5.5372,5.5596,5.5614,5.5614,5.5614,5.6161,5.651,5.651,5.7079,5.7483,5.7685,5.7905,5.7997,5.7997,5.7997,5.7997,5.7997,5.7997,5.7997,5.7997,5.7997,5.7997,5.7997,5.7997,5.7997,5.7997,5.7997,5.7997,5.7997,5.7997,5.7997,5.7997,5.7997,5.7997,5.7997,5.7997,5.7997,5.7997,5.7997,5.7997,5.7997,5.7997,5.826,5.8526,5.8526,5.914,5.9709,5.9614,6.003,6.0508,6.0746,6.08,6.08,6.08,6.08,6.08,6.08,6.08,6.08,6.08,6.08,6.08,6.08,6.08,6.08,6.08,6.08,6.08,6.08,6.08,6.08,6.08,6.08,6.08,6.08,6.08,6.08,6.08,6.08,6.08,6.08,6.08,6.08,6.08,6.08,6.08,2.6253,2.8741,3.1733,3.6593,3.9606,4.1957,4.4342,4.6691,4.8379,4.8416,4.9701,5.0839,5.0912,5.1555,5.2307,5.3096,5.3185,5.3185,5.3185,5.3243,5.3259,5.3259,5.3316,5.3628,5.4399,5.4454,5.4785,5.5559,5.5614,5.5614,5.5614,5.5629,5.5647,5.5647,5.5684,5.6088,5.6859,5.7611,5.7997,5.7997,5.7997,5.7997,5.7997,5.7997,5.7997,5.7997,5.7997,5.7997,5.7997,5.7997,5.7997,5.7997,5.7997,5.7997,5.7997,5.7997,5.7997,5.7997,5.7997,5.7997,5.7997,5.7997,5.7997,5.7997,5.7997,5.7997,5.7997,5.7997,5.802,5.8024,5.8024,5.8397,5.8775,5.8775,5.914,5.9709,6.061,6.08,6.08,6.08,6.08,6.08,6.08,6.08,6.08,6.08,6.08,6.08,6.08,6.08,6.08,6.08,6.08,6.08,6.08,6.08,6.08,6.08,6.08,6.08,6.08,6.08,6.08,6.08,6.08,6.08,6.08,6.08,6.08,6.08,6.08,6.08,2.5805,2.7603,2.9696,3.4027,3.7367,4.0049,4.1957,4.4672,4.6911,4.7406,4.8012,4.8765,4.9829,5.0692,5.1316,5.161,5.2087,5.2435,5.2435,5.2876,5.3185,5.3185,5.3185,5.3295,5.361,5.3628,5.3757,5.4051,5.4069,5.4069,5.4069,5.4546,5.4821,5.4821,5.5317,5.5978,5.6804,5.7097,5.7483,5.7997,5.7997,5.7997,5.7997,5.7997,5.7997,5.7997,5.7997,5.7997,5.7997,5.7997,5.7997,5.7997,5.7997,5.7997,5.7997,5.7997,5.7997,5.7997,5.7997,5.7997,5.7997,5.7997,5.7997,5.7997,5.7997,5.7997,5.7997,5.7997,5.7997,5.7997,5.7997,5.8351,5.8775,5.9084,5.9443,5.9842,6.025,6.0578,6.08,6.08,6.08,6.08,6.08,6.08,6.08,6.08,6.08,6.08,6.08,6.08,6.08,6.08,6.08,6.08,6.08,6.08,6.08,6.08,6.08,6.08,6.08,6.08,6.08,6.08,6.08,6.08,6.08,6.08,6.08,6.08,6.08,6.08,2.441,2.597,2.7963,3.199,3.4431,3.6707,3.9974,4.2359,4.4268,4.5608,4.6305,4.704,4.8141,4.9022,4.9829,5.0655,5.1242,5.1591,5.1591,5.2068,5.2399,5.2399,5.2637,5.2803,5.2803,5.3041,5.3185,5.3185,5.3185,5.3185,5.3185,5.372,5.4014,5.4014,5.4785,5.5445,5.5996,5.6271,5.6675,5.7189,5.7464,5.7593,5.7611,5.7886,5.7997,5.7997,5.7997,5.7997,5.7997,5.7997,5.7997,5.7997,5.7997,5.7997,5.7997,5.7997,5.7997,5.7997,5.7997,5.7997,5.7997,5.7997,5.7997,5.7997,5.7997,5.7997,5.7997,5.7997,5.7997,5.7997,5.7997,5.8216,5.8528,5.8855,5.9213,5.9545,5.9823,6.0351,6.08,6.08,6.08,6.08,6.08,6.08,6.08,6.08,6.08,6.08,6.08,6.08,6.08,6.08,6.08,6.08,6.08,6.08,6.08,6.08,6.08,6.08,6.08,6.08,6.08,6.08,6.08,6.08,6.08,6.08,6.08,6.08,6.08,6.0819,0.0,0.0,0.0,3.0258,3.0687,3.1825,3.8193,3.9696,4.043,4.2927,4.4635,4.5755,4.5883,4.6526,4.7846,5.027,5.0729,5.0765,5.0765,5.0784,5.0802,5.0802,5.1481,5.1958,5.1958,5.2692,5.3148,5.3148,5.3206,5.3185,5.3185,5.3185,5.3185,5.3185,5.3959,5.4381,5.4399,5.517,5.5596,5.5614,5.64,5.6767,5.6804,5.7574,5.7941,5.796,5.796,5.7978,5.7997,5.7997,5.7997,5.7997,5.7997,5.7997,5.7997,5.7997,5.7997,5.7997,5.7997,5.7997,5.7997,5.7997,5.7997,5.7997,5.7997,5.7997,5.7997,5.7997,5.7997,5.7997,5.7997,5.7997,5.7997,5.7997,5.8372,5.8835,5.9284,6.0132,6.0769,6.08,6.08,6.08,6.08,6.08,6.08,6.08,6.08,6.08,6.08,6.08,6.08,6.08,6.08,6.08,6.08,6.08,6.08,6.08,6.08,6.08,6.08,6.08,6.08,6.08,6.08,6.08,6.08,6.08,6.08,6.08,6.08,6.086,2.2832,0.0,0.0,0.0,0.0,0.0,3.3073,3.4651,3.6688,4.091,4.1662,4.2451,4.5351,4.6085,4.6471,4.715,4.8746,4.9941,4.9941,5.0435,5.0802,5.0802,5.1004,5.1132,5.1132,5.1867,5.2325,5.2325,5.2876,5.3185,5.3185,5.3185,5.3185,5.3185,5.3427,5.3812,5.4399,5.462,5.5023,5.5614,5.5812,5.5923,5.5941,5.6161,5.6583,5.7134,5.7134,5.7464,5.7997,5.7997,5.7997,5.7997,5.7997,5.7997,5.7997,5.7997,5.7997,5.7997,5.7997,5.7997,5.7997,5.7997,5.7997,5.7997,5.7997,5.7997,5.7997,5.7997,5.7997,5.7997,5.7997,5.7997,5.7997,5.7997,5.8372,5.8835,5.9284,5.987,6.0397,6.0726,6.08,6.08,6.08,6.08,6.08,6.08,6.08,6.08,6.08,6.08,6.08,6.08,6.08,6.08,6.08,6.08,6.08,6.08,6.08,6.08,6.08,6.08,6.08,6.08,6.08,6.08,6.08,6.08,6.08,6.08,6.08,6.0808,2.4712,2.5438,2.6641,2.7651,0.0,0.0,3.1733,3.2357,3.3587,3.8157,3.8982,3.9824,4.2837,4.3956,4.4507,4.4837,4.6691,4.8159,4.8508,4.8967,4.9389,4.9719,5.0086,5.0288,5.0288,5.1022,5.1499,5.1499,5.194,5.2362,5.2692,5.2711,5.2858,5.3185,5.3185,5.3424,5.3904,5.3904,5.4124,5.4601,5.4932,5.5097,5.5097,5.5445,5.5849,5.6308,5.6308,5.6565,5.7024,5.7354,5.7703,5.7997,5.7997,5.7997,5.7997,5.7997,5.7997,5.7997,5.7997,5.7997,5.7997,5.7997,5.7997,5.7997,5.7997,5.7997,5.7997,5.7997,5.7997,5.7997,5.7997,5.7997,5.7997,5.7997,5.8213,5.8591,5.9267,5.9609,5.9991,6.0678,6.08,6.08,6.08,6.08,6.08,6.08,6.08,6.08,6.08,6.08,6.08,6.08,6.08,6.08,6.08,6.08,6.08,6.08,6.08,6.08,6.08,6.08,6.08,6.08,6.08,6.08,6.08,6.08,6.08,6.08,6.08,6.08,2.7383,2.7787,0.0,3.0699,2.9255,0.0,3.2137,3.1476,3.1127,3.4853,3.6134,3.7125,3.9001,4.0598,4.1901,4.2707,4.425,4.5736,4.6819,4.6966,4.7223,4.7957,4.871,4.9225,4.9317,5.005,5.0563,5.0655,5.0747,5.1114,5.183,5.194,5.2325,5.3038,5.3148,5.3185,5.3185,5.3185,5.3185,5.3203,5.3922,5.4271,5.4289,5.5005,5.5372,5.5464,5.5464,5.5522,5.5669,5.6363,5.7152,5.7886,5.796,5.7997,5.7997,5.7997,5.7997,5.7997,5.7997,5.7997,5.7997,5.7997,5.7997,5.7997,5.7997,5.7997,5.7997,5.7997,5.7997,5.7997,5.7997,5.7997,5.7997,5.7997,5.7997,5.8238,5.914,5.9354,5.9661,6.0553,6.0757,6.08,6.08,6.08,6.08,6.08,6.08,6.08,6.08,6.08,6.08,6.08,6.08,6.08,6.08,6.08,6.08,6.08,6.08,6.08,6.08,6.08,6.08,6.08,6.08,6.08,6.08,6.08,6.08,6.08,6.08,6.08,3.0864,3.1513,3.2118,2.9996,3.0944,0.0,2.8686,2.8638,2.9647,3.1091,3.0999,3.1739,3.5298,3.6798,3.7734,3.8539,4.0561,4.3002,4.5755,4.614,4.6195,4.6342,4.6507,4.6874,4.7516,4.8324,4.9077,4.9794,5.0435,5.0875,5.1041,5.1646,5.2068,5.2234,5.2858,5.3185,5.3185,5.3185,5.3185,5.3185,5.3371,5.3424,5.3445,5.361,5.4014,5.4638,5.4638,5.4987,5.5592,5.5757,5.6308,5.7097,5.7758,5.7997,5.7997,5.7997,5.7997,5.7997,5.7997,5.7997,5.7997,5.7997,5.7997,5.7997,5.7997,5.7997,5.7997,5.7997,5.7997,5.7997,5.7997,5.7997,5.7997,5.7997,5.7997,5.8146,5.8715,5.914,5.9578,6.0132,6.0553,6.08,6.08,6.08,6.08,6.08,6.08,6.08,6.08,6.08,6.08,6.08,6.08,6.08,6.08,6.08,6.08,6.08,6.08,6.08,6.08,6.08,6.08,6.08,6.08,6.08,6.08,6.08,6.08,6.08,6.08,6.08,3.3642,3.3775,3.4105,3.2931,3.2926,0.0,0.0,2.9574,2.9684,3.2106,3.0675,3.0234,3.427,3.5037,3.5312,3.6119,3.8634,4.0781,4.1589,4.3773,4.5461,4.5847,4.5902,4.6067,4.6471,4.6874,4.7462,4.8288,4.8746,4.9334,5.016,5.0563,5.1171,5.1958,5.238,5.2803,5.3185,5.3185,5.3185,5.3185,5.3185,5.3185,5.3185,5.3185,5.3427,5.3812,5.3812,5.4032,5.4436,5.484,5.5244,5.5684,5.6492,5.6785,5.684,5.7244,5.7409,5.7464,5.785,5.7997,5.7997,5.7997,5.7997,5.7997,5.7997,5.7997,5.7997,5.7997,5.7997,5.7997,5.7997,5.7997,5.7997,5.7997,5.7997,5.8142,5.8591,5.9065,5.9545,6.001,6.0482,6.08,6.08,6.08,6.08,6.08,6.08,6.08,6.08,6.08,6.08,6.08,6.08,6.08,6.08,6.08,6.08,6.08,6.08,6.08,6.08,6.08,6.08,6.08,6.08,6.08,6.08,6.08,6.08,6.08,6.08,6.08,3.6582,3.6288,3.638,3.6321,3.5257,3.4032,0.0,0.0,0.0,3.3298,3.1262,3.0051,3.3445,3.3408,3.3146,3.394,3.6688,3.8212,3.6758,4.0322,4.3387,4.4176,4.469,4.5039,4.5186,4.5204,4.5681,4.6782,4.6434,4.704,4.9003,4.928,5.0033,5.1481,5.183,5.2307,5.2968,5.3112,5.3185,5.3185,5.3185,5.3185,5.3185,5.3185,5.3185,5.3185,5.3185,5.3185,5.324,5.3904,5.4179,5.4252,5.5225,5.5614,5.5688,5.6326,5.6565,5.6675,5.7483,5.7776,5.7795,5.7941,5.7997,5.7997,5.7997,5.7997,5.7997,5.7997,5.7997,5.7997,5.7997,5.7997,5.7997,5.7997,5.7997,5.8097,5.8484,5.9009,5.9509,5.9885,6.0424,6.08,6.08,6.08,6.08,6.08,6.08,6.08,6.08,6.08,6.08,6.08,6.08,6.08,6.08,6.08,6.08,6.08,6.08,6.08,6.08,6.08,6.08,6.08,6.08,6.08,6.08,6.08,6.08,6.08,6.08,6.08,4.0636,4.0946,4.0634,3.7165,3.823,3.8453,3.2063,0.0,3.2577,3.0179,0.0,2.9354,3.054,0.0,0.0,3.0613,3.2852,3.4174,3.328,3.5532,3.7551,3.8355,4.0341,4.1921,4.2635,4.2708,4.3626,4.5865,4.4048,4.4176,4.7223,4.8067,4.8893,4.9849,5.1263,5.2032,5.2142,5.2839,5.3185,5.3185,5.3185,5.3185,5.3185,5.3185,5.3185,5.3185,5.3185,5.3185,5.3203,5.3316,5.3332,5.35,5.5005,5.5614,5.5614,5.5684,5.5739,5.5849,5.6657,5.695,5.706,5.7776,5.7997,5.7997,5.7997,5.7997,5.7997,5.7997,5.7997,5.7997,5.7997,5.7997,5.7997,5.7997,5.7997,5.802,5.807,5.8775,5.9425,5.9458,6.0189,6.08,6.08,6.08,6.08,6.08,6.08,6.08,6.08,6.08,6.08,6.08,6.08,6.08,6.08,6.08,6.08,6.08,6.08,6.08,6.08,6.08,6.08,6.08,6.08,6.08,6.08,6.08,6.08,6.08,6.08,6.08,4.1315,4.1352,4.1093,3.8927,3.8689,3.8083,3.4541,3.3421,3.3115,3.322,0.0,0.0,0.0,0.0,0.0,0.0,3.076,3.1274,2.9989,3.1916,3.4284,3.6538,3.7257,3.8251,4.0047,3.979,4.0708,4.3589,4.2011,4.2304,4.5535,4.6911,4.7994,4.882,4.9996,5.1061,5.1977,5.2325,5.2747,5.3185,5.3185,5.3185,5.3185,5.3185,5.3185,5.3185,5.3185,5.3185,5.3185,5.3185,5.3185,5.328,5.394,5.4216,5.4252,5.473,5.4895,5.5023,5.5812,5.6106,5.6235,5.7042,5.7611,5.7997,5.7997,5.7997,5.7997,5.7997,5.7997,5.7997,5.7997,5.7997,5.7997,5.7997,5.7997,5.7997,5.7997,5.8526,5.9084,5.9356,5.9931,6.0482,6.0757,6.08,6.08,6.08,6.08,6.08,6.08,6.08,6.08,6.08,6.08,6.08,6.08,6.08,6.08,6.08,6.08,6.08,6.08,6.08,6.08,6.08,6.08,6.08,6.08,6.08,6.08,6.08,6.08,6.08,4.1919,4.1772,4.135,3.9662,3.8539,3.7382,3.5661,3.4431,3.4064,3.5624,3.3954,0.0,0.0,0.0,3.0106,0.0,0.0,2.9567,2.7732,2.898,3.1127,3.3954,3.4509,3.5463,3.7481,3.656,3.7364,4.1038,3.9405,4.0029,4.4158,4.5682,4.6911,4.7938,4.9022,5.0161,5.1336,5.1775,5.2289,5.2876,5.3075,5.3185,5.3185,5.3185,5.3185,5.3185,5.3185,5.3185,5.3185,5.3185,5.3185,5.3185,5.3185,5.3185,5.328,5.3867,5.4069,5.4197,5.4987,5.5409,5.5684,5.6271,5.7024,5.7666,5.7666,5.7831,5.7997,5.7997,5.7997,5.7997,5.7997,5.7997,5.7997,5.7997,5.7997,5.7997,5.7997,5.8372,5.8835,5.9302,5.9773,6.025,6.0714,6.08,6.08,6.08,6.08,6.08,6.08,6.08,6.08,6.08,6.08,6.08,6.08,6.08,6.08,6.08,6.08,6.08,6.08,6.08,6.08,6.08,6.08,6.08,6.08,6.08,6.08,6.08,6.08,6.08,4.3441,4.3423,4.2486,3.8557,3.812,3.7624,3.3628,3.4504,3.5954,3.5206,3.6229,3.7052,3.634,3.4798,0.0,0.0,0.0,0.0,0.0,2.6722,2.7372,2.9042,3.1971,3.4174,3.5041,3.2981,3.3587,3.845,3.5826,3.678,4.3203,4.4323,4.5498,4.7094,4.8728,4.9629,4.9684,5.1226,5.1995,5.205,5.2839,5.3185,5.3185,5.3185,5.3185,5.3185,5.3185,5.3185,5.3185,5.3185,5.3185,5.3185,5.3185,5.3185,5.3185,5.3222,5.3243,5.3353,5.4161,5.495,5.5614,5.5633,5.618,5.684,5.684,5.7373,5.7997,5.7997,5.7997,5.7997,5.7997,5.7997,5.7997,5.7997,5.7997,5.7997,5.7997,5.8372,5.8835,5.9302,5.9773,6.025,6.0714,6.08,6.08,6.08,6.08,6.08,6.08,6.08,6.08,6.08,6.08,6.08,6.08,6.08,6.08,6.08,6.08,6.08,6.08,6.08,6.08,6.08,6.08,6.08,6.08,6.08,6.08,6.08,6.08,6.08,4.341,4.3515,4.291,4.0487,3.9294,3.8065,3.5605,3.5697,3.5899,3.4504,3.5954,3.7088,3.5683,3.4541,0.0,0.0,0.0,0.0,0.0,2.5815,2.6209,2.7281,2.9787,3.1329,3.106,3.0766,3.2173,3.5977,3.5224,3.6729,4.1662,4.3682,4.5204,4.6269,4.737,4.8471,4.9592,5.0143,5.0951,5.1995,5.227,5.2692,5.3185,5.3185,5.3185,5.3185,5.3185,5.3185,5.3185,5.3185,5.3185,5.3185,5.3185,5.3185,5.3185,5.3185,5.3185,5.3243,5.3518,5.4124,5.4803,5.4803,5.5354,5.6106,5.6638,5.6987,5.7317,5.785,5.7997,5.7997,5.7997,5.7997,5.7997,5.7997,5.7997,5.7997,5.7997,5.8119,5.8482,5.9248,5.9545,5.9885,6.0678,6.08,6.08,6.08,6.08,6.08,6.08,6.08,6.08,6.08,6.08,6.08,6.08,6.08,6.08,6.08,6.08,6.08,6.08,6.08,6.08,6.08,6.08,6.08,6.08,6.08,6.08,6.08,6.08,6.08,4.2791,4.3051,4.2758,4.0825,3.9955,3.8909,3.6413,3.6523,3.6762,3.5404,3.6611,3.7771,3.7261,3.5811,0.0,0.0,0.0,0.0,0.0,2.5466,2.5815,2.575,2.7611,2.8943,2.8987,2.8686,3.0063,3.3867,3.3885,3.5738,4.0432,4.269,4.4488,4.5865,4.6672,4.7774,4.9114,4.9445,5.0124,5.1153,5.1426,5.1995,5.2766,5.2766,5.2931,5.3185,5.3185,5.3185,5.3185,5.3185,5.3185,5.3185,5.3185,5.3185,5.3185,5.3185,5.3185,5.3185,5.3185,5.3555,5.3977,5.3977,5.4528,5.5317,5.6124,5.6583,5.6969,5.7776,5.7997,5.7997,5.7997,5.7997,5.7997,5.7997,5.7997,5.7997,5.7997,5.8142,5.8482,5.9248,5.9526,5.9885,6.0678,6.08,6.08,6.08,6.08,6.08,6.08,6.08,6.08,6.08,6.08,6.08,6.08,6.08,6.08,6.08,6.08,6.08,6.08,6.08,6.08,6.08,6.08,6.08,6.08,6.08,6.08,6.08,6.08,6.08]}]]